[[{"header":{"parameterUnit":"m.s-1","parameterCategory":1,"la1":31.0,"la2":29.5877,"lo1":-88.7671,"lo2":-86.6584,"dy":0.0162,"dx":0.0185,"nx":115,"ny":88,"refTime":"2023-07-11T18:00:00:Z","depth":0,"parameterNumber":2,"parameterNumberName":"U-component_of_WINDS"},"data":[0.0,0.0,0.0,0.0,0.0,0.0,0.0,0.0,0.0,0.0,0.0,0.0,0.0,0.0,0.0,0.0,0.0,0.0,0.0,0.0,0.0,0.0,0.0,0.0,0.0,0.0,0.0,0.0,0.0,0.0,0.0,0.0,0.0,0.0,0.0,0.0,0.0,0.0,0.0,0.0,0.0,0.0,0.0,0.0,0.0,0.0,0.0,0.0,0.0,0.0,0.0,0.0,0.0,0.0,0.0,0.0,0.0,0.0,0.0,0.0,0.0,0.0,0.0,0.0,0.0,0.0,0.0,0.0,0.0,0.0,0.0,0.0,0.0,0.0,0.0,0.0,0.0,0.0,0.0,0.0,0.0,0.0,0.0,0.0,0.0,0.0,0.0,0.0,0.0,0.0,0.0,0.0,0.0,0.0,0.0,0.0,0.0,0.0,0.0,0.0,0.0,0.0,0.0,0.0,0.0,0.0,0.0,0.0,0.0,0.0,0.0,0.0,0.0,0.0,0.0,0.0,0.0,0.0,0.0,0.0,0.0,0.0,0.0,0.0,0.0,0.0,0.0,0.0,0.0,0.0,0.0,0.0,0.0,0.0,0.0,0.0,0.0,0.0,0.0,0.0,0.0,0.0,0.0,0.0,0.0,0.0,0.0,0.0,0.0,0.0,0.0,0.0,0.0,0.0,0.0,0.0,0.0,0.0,0.0,0.0,0.0,0.0,0.0,0.0,0.0,0.0,0.0,0.0,0.0,0.0,0.0,0.0,0.0,0.0,0.0,0.0,0.0,0.0,0.0,0.0,0.0,0.0,0.0,0.0,0.0,0.0,0.0,0.0,0.0,0.0,0.0,0.0,0.0,0.0,0.0,0.0,0.0,0.0,0.0,0.0,0.0,0.0,0.0,0.0,0.0,0.0,0.0,0.0,0.0,0.0,0.0,0.0,0.0,0.0,0.0,0.0,0.0,0.0,0.0,0.0,0.0,0.0,0.0,0.0,0.0,0.0,0.0,0.0,0.0,0.0,0.0,0.0,0.0,0.0,0.0,0.0,0.0,0.0,0.0,0.0,0.0,0.0,0.0,0.0,0.0,0.0,0.0,0.0,0.0,0.0,0.0,0.0,0.0,0.0,0.0,0.0,0.0,0.0,0.0,0.0,0.0,0.0,0.0,0.0,0.0,0.0,0.0,0.0,0.0,0.0,0.0,0.0,0.0,0.0,0.0,0.0,0.0,0.0,0.0,0.0,0.0,0.0,0.0,0.0,0.0,0.0,0.0,0.0,0.0,0.0,0.0,0.0,0.0,0.0,0.0,0.0,0.0,0.0,0.0,0.0,0.0,0.0,0.0,0.0,0.0,0.0,0.0,0.0,0.0,0.0,0.0,0.0,0.0,0.0,0.0,0.0,0.0,0.0,0.0,0.0,0.0,0.0,0.0,0.0,0.0,0.0,0.0,0.0,0.0,0.0,0.0,0.0,0.0,0.0,0.0,0.0,0.0,0.0,0.0,0.0,0.0,0.0,0.0,0.0,0.0,0.0,0.0,0.0,0.0,0.0,0.0,0.0,0.0,0.0,0.0,0.0,0.0,0.0,0.0,0.0,0.0,0.0,0.0,0.0,0.0,0.0,0.0,0.0,0.0,0.0,0.0,0.0,0.0,0.0,0.0,0.0,0.0,0.0,0.0,0.0,0.0,0.0,0.0,0.0,0.0,0.0,0.0,0.0,0.0,0.0,0.0,0.0,0.0,0.0,0.0,0.0,0.0,0.0,0.0,0.0,0.0,0.0,0.0,0.0,0.0,0.0,0.0,0.0,0.0,0.0,0.0,0.0,0.0,0.0,0.0,0.0,0.0,0.0,0.0,0.0,0.0,0.0,0.0,0.0,0.0,0.0,0.0,0.0,0.0,0.0,0.0,0.0,0.0,0.0,0.0,0.0,0.0,0.0,0.0,0.0,0.0,0.0,0.0,0.0,0.0,0.0,0.0,0.0,0.0,0.0,0.0,0.0,0.0,0.0,0.0,0.0,0.0,0.0,0.0,0.0,0.0,0.0,0.0,0.0,0.0,0.0,0.0,0.0,0.0,0.0,0.0,0.0,0.0,0.0,0.0,0.0,0.0,0.0,0.0,0.0,0.0,0.0,0.0,0.0,0.0,0.0,0.0,0.0,0.0,0.0,0.0,0.0,0.0,0.0,0.0,0.0,0.0,0.0,0.0,0.0,0.0,0.0,0.0,0.0,0.0,0.0,0.0,0.0,0.0,0.0,0.0,0.0,0.0,0.0,0.0,0.0,0.0,0.0,0.0,0.0,0.0,0.0,0.0,0.0,0.0,0.0,0.0,0.0,0.0,0.0,0.0,0.0,0.0,0.0,0.0,0.0,0.0,0.0,0.0,0.0,0.0,0.0,0.0,0.0,0.0,0.0,0.0,0.0,0.0,0.0,0.0,0.0,0.0,0.0,0.0,0.0,0.0,0.0,0.0,0.0,0.0,0.0,0.0,0.0,0.0,0.0,0.0,0.0,0.0,0.0,0.0,0.0,0.0,0.0,0.0,0.0,0.0,0.0,0.0,0.0,0.0,0.0,0.0,0.0,0.0,0.0,0.0,0.0,0.0,0.0,0.0,0.0,0.0,0.0,0.0,0.0,0.0,0.0,0.0,0.0,0.0,0.0,0.0,0.0,0.0,0.0,0.0,0.0,0.0,0.0,0.0,0.0,0.0,0.0,0.0,0.0,0.0,0.0,0.0,0.0,0.0,0.0,0.0,0.0,0.0,0.0,0.0,0.0,0.0,0.0,0.0,0.0,0.0,0.0,0.0,0.0,0.0,0.0,0.0,0.0,0.0,0.0,0.0,0.0,0.0,0.0,0.0,0.0,0.0,0.0,0.0,0.0,0.0,0.0,0.0,0.0,0.0,0.0,0.0,0.0,0.0,0.0,0.0,0.0,0.0,0.0,0.0,0.0,0.0,0.0,0.0,0.0,0.0,0.0,0.0,0.0,0.0,0.0,0.0,0.0,0.0,0.0,0.0,0.0,0.0,0.0,0.0,0.0,0.0,0.0,0.0,0.0,0.0,0.0,0.0,0.0,0.0,0.0,0.0,0.0,0.0,0.0,0.0,0.0,0.0,0.0,0.0,0.0,0.0,0.0,0.0,0.0,0.0,0.0,0.0,0.0,0.0,0.0,0.0,0.0,0.0,0.0,0.0,0.0,0.0,0.0,0.0,0.0,0.0,0.0,0.0,0.0,0.0,0.0,0.0,0.0,0.0,0.0,0.0,0.0,0.0,0.0,0.0,0.0,0.0,0.0,0.0,0.0,0.0,0.0,0.0,0.0,0.0,0.0,0.0,0.0,0.0,0.0,0.0,0.0,0.0,0.0,0.0,0.0,0.0,0.0,0.0,0.0,0.0,0.0,0.0,0.0,0.0,0.0,0.0,0.0,0.0,0.0,0.0,0.0,0.0,0.0,0.0,0.0,0.0,0.0,0.0,0.0,0.0,0.0,0.0,0.0,0.0,0.0,0.0,0.0,0.0,0.0,0.0,0.0,0.0,0.0,0.0,0.0,0.0,0.0,0.0,0.0,0.0,0.0,0.0,0.0,0.0,0.0,0.0,0.0,0.0,0.0,0.0,0.0,0.0,0.0,0.0,0.0,0.0,0.0,0.0,0.0,0.0,0.0,0.0,0.0,0.0,0.0,0.0,0.0,0.0,0.0,0.0,0.0,0.0,0.0,0.0,0.0,0.0,0.0,0.0,0.0,0.0,0.0,0.0,0.0,0.0,0.0,0.0,0.0,0.0,0.0,0.0,0.0,0.0,0.0,0.0,0.0,0.0,0.0,0.0,0.0,0.0,0.0,0.0,0.0,0.0,0.0,0.0,0.0,0.0,0.0,0.0,0.0,0.0,0.0,0.0,0.0,0.0,0.0,0.0,0.0,0.0,0.0,0.0,0.0,0.0,0.0,0.0,0.0,0.0,0.0,0.0,0.0,0.0,0.0,0.0,0.0,0.0,0.0,0.0,0.0,0.0,0.0,0.0,0.0,0.0,0.0,0.0,0.0,0.0,0.0,0.0,0.0,0.0,0.0,0.0,0.0,0.0,0.0,0.0,0.0,0.0,0.0,0.0,0.0,0.0,0.0,0.0,0.0,0.0,0.0,0.0,0.0,0.0,0.0,0.0,0.0,0.0,0.0,0.0,0.0,0.0,0.0,0.0,0.0,0.0,0.0,0.0,0.0,0.0,0.0,0.0,0.0,0.0,0.0,0.0,0.0,0.0,0.0,-1.0152,0.0,0.0,0.0,0.0,0.0,0.0,0.0,0.0,0.0,0.0,0.0,0.0,0.0,0.0,0.0,0.0,0.0,0.0,0.0,0.0,0.0,0.0,0.0,0.0,0.0,0.0,0.0,0.0,0.0,0.0,0.0,0.0,0.0,0.0,0.0,0.0,0.0,0.0,0.0,0.0,0.0,0.0,0.0,0.0,0.0,0.0,0.0,0.0,0.0,0.0,0.0,0.0,0.0,0.0,0.0,0.0,0.0,0.0,0.0,0.0,0.0,0.0,0.0,0.0,0.0,0.0,0.0,0.0,0.0,0.0,0.0,0.0,0.0,0.0,0.0,0.0,0.0,0.0,0.0,0.0,0.0,0.0,0.0,0.0,0.0,0.0,0.0,0.0,0.0,0.0,0.0,0.0,0.0,0.0,0.0,0.0,0.0,0.0,0.0,0.0,0.0,0.0,0.0,0.0,0.0,0.0,0.0,0.0,0.0,0.0,-0.6749,-0.8224,-0.7919,-0.8507,-1.0102,0.0,0.0,0.0,0.0,0.0,0.0,0.0,0.0,0.0,0.0,0.0,0.0,0.0,0.0,0.0,0.0,0.0,0.0,0.0,0.0,0.0,0.0,0.0,0.0,0.0,0.0,0.0,0.0,0.0,0.0,0.0,0.0,0.0,0.0,0.0,0.0,0.0,0.0,0.0,0.0,0.0,0.0,0.0,0.0,0.0,0.0,0.0,0.0,0.0,0.0,0.0,0.0,0.0,0.0,0.0,0.0,0.0,0.0,0.0,0.0,0.0,0.0,0.0,0.0,0.0,0.0,0.0,0.0,0.0,0.0,0.0,0.0,0.0,0.0,0.0,0.0,0.0,0.0,0.0,0.0,0.0,0.0,0.0,0.0,0.0,0.0,0.0,0.0,0.0,0.0,0.0,0.0,0.0,0.0,0.0,0.0,0.0,0.0,0.0,0.0,0.0,0.0,0.0,0.0,0.0,0.0,0.0,0.0,0.0,0.0,0.0,0.0,-0.7081,-0.7436,-0.8885,0.0,0.0,0.0,0.0,0.0,0.0,0.0,0.0,0.0,0.0,0.0,0.0,0.0,0.0,0.0,0.0,0.0,0.0,0.0,0.0,0.0,0.0,0.0,0.0,0.0,0.0,0.0,0.0,0.0,0.0,0.0,0.0,0.0,0.0,0.0,0.0,0.0,0.0,0.0,0.0,0.0,0.0,0.0,0.0,0.0,0.0,0.0,0.0,0.0,0.0,0.0,0.0,0.0,0.0,0.0,0.0,0.0,0.0,0.0,0.0,0.0,0.0,0.0,0.0,0.0,0.0,0.0,0.0,0.0,0.0,0.0,0.0,0.0,0.0,0.0,0.0,0.0,0.0,0.0,0.0,0.0,0.0,0.0,0.0,0.0,0.0,0.0,0.0,0.0,0.0,0.0,0.0,0.0,0.0,0.0,0.0,0.0,0.0,0.0,0.0,0.0,0.0,0.0,0.0,0.0,0.0,0.0,0.0,0.0,0.0,-0.5971,-0.7019,-0.6616,0.0,-0.5436,0.0,0.0,0.0,0.0,0.0,0.0,0.0,0.0,0.0,0.0,0.0,0.0,0.0,0.0,0.0,0.0,0.0,0.0,0.0,0.0,0.0,0.0,0.0,0.0,0.0,0.0,0.0,0.0,0.0,0.0,0.0,0.0,0.0,0.0,0.0,0.0,0.0,0.0,0.0,0.0,0.0,0.0,0.0,0.0,0.0,0.0,0.0,0.0,0.0,0.0,0.0,0.0,0.0,0.0,0.0,0.0,0.0,0.0,0.0,0.0,0.0,0.0,0.0,0.0,0.0,0.0,0.0,0.0,0.0,0.0,0.0,0.0,0.0,0.0,0.0,0.0,0.0,0.0,0.0,0.0,0.0,0.0,0.0,0.0,0.0,0.0,0.0,0.0,0.0,0.0,0.0,0.0,0.0,0.0,0.0,0.0,0.0,0.0,0.0,0.0,0.0,0.0,0.0,0.0,0.0,0.0,0.0,0.0,0.0,0.0,-0.4686,-0.5974,-0.6418,-0.6501,0.0,0.0,0.0,0.0,0.0,0.0,0.0,0.0,0.0,0.0,0.0,0.0,0.0,0.0,0.0,0.0,0.0,0.0,0.0,0.0,0.0,0.0,0.0,0.0,0.0,0.0,0.0,0.0,0.0,0.0,0.0,0.0,0.0,0.0,0.0,0.0,0.0,0.0,0.0,0.0,0.0,0.0,0.0,0.0,0.0,0.0,0.0,0.0,0.0,0.0,0.0,0.0,0.0,0.0,0.0,0.0,0.0,0.0,0.0,0.0,0.0,0.0,0.0,0.0,0.0,0.0,0.0,0.0,0.0,0.0,0.0,0.0,0.0,0.0,0.0,0.0,0.0,0.0,0.0,0.0,0.0,0.0,0.0,0.0,0.0,0.0,0.0,0.0,0.0,0.0,0.0,0.0,0.0,0.0,0.0,0.0,0.0,0.0,0.0,0.0,0.0,0.0,0.0,0.0,0.0,0.0,0.0,0.0,0.0,0.0,-0.2116,-0.3193,-0.4245,-0.5003,-0.537,-0.5311,0.0,0.0,0.0,0.0,0.0,0.0,0.0,0.0,0.0,0.0,0.0,0.0,0.0,0.0,0.0,0.0,0.0,0.0,0.0,0.0,0.0,0.0,0.0,0.0,0.0,0.0,0.0,0.0,0.0,0.0,0.0,0.0,0.0,0.0,0.0,0.0,0.0,0.0,0.0,0.0,0.0,0.0,0.0,0.0,0.0,0.0,0.0,0.0,0.0,0.0,0.0,0.0,0.0,0.0,0.0,0.0,0.0,0.0,0.0,0.0,0.0,0.0,0.0,0.0,0.0,0.0,0.0,0.0,0.0,0.0,0.0,0.0,0.0,0.0,0.0,0.0,0.0,0.0,0.0,0.0,0.0,0.0,0.0,0.0,0.0,0.0,0.0,0.0,0.0,0.0,0.0,0.0,0.0,0.0,0.0,0.0,0.0,0.0,0.0,0.0,0.0,0.0,0.0,0.0,0.0,0.0,0.0,0.0,-0.0677,-0.1253,-0.1634,-0.184,-0.1757,-0.1399,0.0,0.0,0.0,0.0,0.0,0.0,0.0,0.0,0.0,0.0,0.0,0.0,0.0,0.0,0.0,0.0,0.0,0.0,0.0,0.0,0.0,0.0,0.0,0.0,0.0,0.0,0.0,0.0,0.0,0.0,0.0,0.0,0.0,0.0,0.0,0.0,0.0,0.0,0.0,0.0,0.0,0.0,0.0,0.0,0.0,0.0,0.0,0.0,0.0,0.0,0.0,0.0,0.0,0.0,0.0,0.0,0.0,0.0,0.0,0.0,0.0,0.0,0.0,0.0,0.0,0.0,0.0,0.0,0.0,0.0,0.0,0.0,0.0,0.0,0.0,0.0,0.0,0.0,0.0,0.0,0.0,0.0,0.0,0.0,0.0,0.0,0.0,0.0,0.0,0.0,0.0,0.0,0.0,0.0,0.0,0.0,0.0,0.0,0.0,0.0,0.0,0.0,0.0,0.0,0.0,0.0,0.0,0.0,0.0,0.0072,-0.0847,-0.154,-0.1834,-0.1879,-0.1734,0.0,0.0,0.0,0.0,0.0,0.0,0.0,0.0,0.0,0.0,0.0,0.0,0.0,0.0,0.0,0.0,0.0,0.0,0.0,0.0,0.0,0.0,0.0,0.0,0.0,0.0,0.0,0.0,0.0,0.0,0.0,0.0,0.0,0.0,0.0,0.0,0.0,0.0,0.0,0.0,0.0,0.0,0.0,0.0,0.0,0.0,0.0,0.0,0.0,0.0,0.0,0.0,0.0,0.0,0.0,0.0,0.0,0.0,0.0,0.0,0.0,0.0,0.0,0.0,0.0,0.0,0.0,0.0,0.0,0.0,0.0,0.0,0.0,0.0,0.0,0.0,0.0,0.0,0.0,0.0,0.0,0.0,0.0,0.0,0.0,0.0,0.0,0.0,0.0,0.0,0.0,0.0,0.0,0.0,0.0,0.0,0.0,0.0,0.0,0.0,0.0,0.0,0.0,0.0,0.0,0.0,0.0,0.0,0.0,0.0514,0.0,-0.0683,-0.1373,-0.1453,-0.1561,0.0,0.0,0.0,0.0,0.0,0.0,0.0,0.0,0.0,0.0,0.0,0.0,0.0,0.0,0.0,0.0,0.0,0.0,0.0,0.0,0.0,0.0,0.0,0.0,0.0,0.0,0.0,0.0,0.0,0.0,0.0,0.0,0.0,0.0,0.0,0.0,0.0,0.0,0.0,0.0,0.0,0.0,0.0,0.0,0.0,0.0,0.0,0.0,0.0,0.0,0.0,0.0,0.0,0.0,0.0,0.0,0.0,0.0,0.0,0.0,0.0,0.0,0.0,0.0,0.0,0.0,0.0,0.0,0.0,0.0,0.0,0.0,0.0,0.0,0.0,0.0,0.0,0.0,0.0,0.0,0.0,0.0,0.0,0.0,0.0,0.0,0.0,0.0,0.0,0.0,0.0,0.0,0.0,0.0,0.0,0.0,0.0,0.0,0.0,0.0,0.0,0.0,0.0,0.0,0.0,0.0,0.0,0.0,0.0045,0.0541,0.1257,0.0978,-0.0156,-0.0258,-0.055,0.0,0.0,0.0,0.0,0.0,0.0,0.0,0.0,0.0,0.0,0.0,0.0,0.0,0.0,0.0,0.0,0.0,0.0,0.0,0.0,0.0,0.0,0.0,0.0,0.0,0.0,0.0,0.0,0.0,0.0,0.0,0.0,0.0,0.0,0.0,0.0,0.0,0.0,0.0,0.0,0.0,0.0,0.0,0.0,0.0,0.0,0.0,0.0,0.0,0.0,0.0,0.0,0.0,0.0,0.0,0.0,0.0,0.0,0.0,0.0,0.0,0.0,0.0,0.0,0.0,0.0,0.0,0.0,0.0,0.0,0.0,0.0,0.0,0.0,0.0,0.0,0.0,0.0,0.0,0.0,0.0,0.0,0.0,0.0,0.0,0.0,0.0,0.0,0.0,0.0,0.0,0.0,0.0,0.0,0.0,0.0,0.0,0.0,0.0,0.0,0.0,0.0,0.0,0.0,0.0,0.0,0.0,0.0,0.0,0.124,0.1419,0.1061,0.0179,-0.0223,-0.0752,0.0,0.0,0.0,0.0,0.0,0.0,0.0,0.0,0.0,0.0,0.0,0.0,0.0,0.0,0.0,0.0,0.0,0.0,0.0,0.0,0.0,0.0,0.0,0.0,0.0,0.0,0.0,0.0,0.0,0.0,0.0,0.0,0.0,0.0,0.0,0.0,0.0,0.0,0.0,0.0,0.0,0.0,0.0,0.0,0.0,0.0,0.0,0.0,0.0,0.0,0.0,0.0,0.0,0.0,0.0,0.0,0.0,0.0,0.0,0.0,0.0,0.0,0.0,0.0,0.0,0.0,0.0,0.0,0.0,0.0,0.0,0.0,0.0,0.0,0.0,0.0,0.0,0.0,0.0,0.0,0.0,0.0,0.0,0.0,0.0,0.0,0.0,0.0,0.0,0.0,0.0,0.0,0.0,0.0,0.0,0.0,0.0,0.0,0.0,0.0,0.0,0.0,0.0,0.0,0.0,0.0,0.0,0.0,0.0,0.1031,0.0798,0.0453,0.0054,-0.0907,-0.161,-0.1969,0.0,0.0,0.0,0.0,0.0,0.0,0.0,0.0,0.0,0.0,0.0,0.0,0.0,0.0,0.0,0.0,0.0,0.0,0.0,0.0,0.0,0.0,0.0,0.0,0.0,0.0,0.0,0.0,0.0,0.0,0.0,0.0,0.0,0.0,0.0,0.0,0.0,0.0,0.0,0.0,0.0,0.0,0.0,0.0,0.0,0.0,0.0,0.0,0.0,0.0,0.0,0.0,0.0,0.0,0.0,0.0,0.0,0.0,0.0,0.0,0.0,0.0,0.0,0.0,0.0,0.0,0.0,0.0,0.0,0.0,0.0,0.0,0.0,0.0,0.0,0.0,0.0,0.0,0.0,0.0,0.0,0.0,0.0,0.0,0.0,0.0,0.0,0.0,0.0,0.0,0.0,0.0,0.0,0.0,0.0,0.0,0.0,0.0,0.0,0.0,0.0,0.0,0.0,0.0,0.0,0.0,0.0,0.0,0.0103,-0.0383,-0.0548,-0.0516,-0.2062,-0.2875,0.0,0.0,0.0,0.0,0.0,0.0,0.0,0.0,0.0,0.0,0.0,0.0,0.0,0.0,0.0,0.0,0.0,0.0,0.0,0.0,0.0,0.0,0.0,0.0,0.0,0.0,0.0,0.0,0.0,0.0,0.0,0.0,0.0,0.0,0.0,0.0,0.0,0.0,0.0,0.0,0.0,0.0,0.0,0.0,0.0,0.0,0.0,0.0,0.0,0.0,0.0,0.0,0.0,0.0,0.0,0.0,0.0,0.0,0.0,0.0,0.0,0.0,0.0,0.0,0.0,0.0,0.0,0.0,0.0,0.0,0.0,0.0,0.0,0.0,0.0,0.0,0.0,0.0,0.0,0.0,0.0,0.0,0.0,0.0,0.0,0.0,0.0,0.0,0.0,0.0,0.0,0.0,0.0,0.0,0.0,0.0,0.0,0.0,0.0,0.0,0.0,0.0,0.0,0.0,0.0,0.0,0.0,0.0,0.0,-0.022,-0.053,-0.0928,-0.1413,-0.2224,-0.2905,0.0,0.0,0.0,0.0,0.0,0.0,0.0,0.0,0.0,0.0,0.0,0.0,0.0,0.0,0.0,0.0,0.0,0.0,0.0,0.0,0.0,0.0,0.0,0.0,0.0,0.0,0.0,0.0,0.0,0.0,0.0,0.0,0.0,0.0,0.0,0.0,0.0,0.0,0.0,0.0,0.0,0.0,0.0,0.0,0.0,0.0,0.0,0.0,0.0,0.0,0.0,0.0,0.0,0.0,0.0,0.0,0.0,0.0,0.0,0.0,0.0,0.0,0.0,0.0,0.0,0.0,0.0,0.0,0.0,0.0,0.0,0.0,0.0,0.0,0.0,0.0,0.0,0.0,0.0,0.0,0.0,0.0,0.0,0.0,0.0,0.0,0.0,0.0,0.0,0.0,0.0,0.0,0.0,0.0,0.0,0.0,0.0,0.0,0.0,0.0,0.0,0.0,0.0,0.0,0.0,0.0,0.0,0.0,0.0932,-0.025,-0.0812,-0.1433,-0.2104,-0.2443,-0.3041,0.0,0.0,0.0,0.0,0.0,0.0,0.0,0.0,0.0,0.0,0.0,0.0,0.0,0.0,0.0,0.0,0.0,0.0,0.0,0.0,0.0,0.0,0.0,0.0,0.0,0.0,0.0,0.0,0.0,0.0,0.0,0.0,0.0,0.0,0.0,0.0,0.0,0.0,0.0,0.0,0.0,0.0,0.0,0.0,0.0,0.0,0.0,0.0,0.0,0.0,0.0,0.0,0.0,0.0,0.0,0.0,0.0,0.0,0.0,0.0,0.0,0.0,0.0,0.0,0.0,0.0,0.0,0.0,0.0,0.0,0.0,0.0,0.0,0.0,0.0,0.0,0.0,0.0,0.0,0.0,0.0,0.0,0.0,0.0,0.0,0.0,0.0,0.0,0.0,0.0,0.0,0.0,0.0,0.0,0.0,0.0,0.0,0.0,0.0,0.0,0.0,0.0,0.0,0.0,0.0,0.0,0.0,0.0,0.1095,-0.006,-0.1239,-0.2138,-0.2645,-0.2762,-0.3222,0.0,0.0,0.0,0.0,0.0,0.0,0.0,0.0,0.0,0.0,0.0,0.0,0.0,0.0,0.0,0.0,0.0,0.0,0.0,0.0,0.0,0.0,0.0,0.0,0.0,0.0,0.0,0.0,0.0,0.0,0.0,0.0,0.0,0.0,0.0,0.0,0.0,0.0,0.0,0.0,0.0,0.0,0.0,0.0,0.0,0.0,0.0,0.0,0.0,0.0,0.0,0.0,0.0,0.0,0.0,0.0,0.0,0.0,0.0,0.0,0.0,0.0,0.0,0.0,0.0,0.0,0.0,0.0,0.0,0.0,0.0,0.0,0.0,0.0,0.0,0.0,0.0,0.0,0.0,0.0,0.0,0.0,0.0,0.0,0.0,0.0,0.0,0.0,0.0,0.0,0.0,0.0,0.0,0.0,0.0,0.0,0.0,0.0,0.0,0.0,0.0,0.0,0.0,0.0,0.0,0.0,0.0,0.0,0.1441,0.0123,-0.1945,-0.3139,-0.33,-0.294,-0.3115,0.0,0.0,0.0,0.0,0.0,0.0,0.0,0.0,0.0,0.0,0.0,0.0,0.0,0.0,0.0,0.0,0.0,0.0,0.0,0.0,0.0,0.0,0.0,0.0,0.0,0.0,0.0,0.0,0.0,0.0,0.0,0.0,0.0,0.0,0.0,0.0,0.0,0.0,0.0,0.0,0.0,0.0,0.0,0.0,0.0,0.0,0.0,0.0,0.4436,0.0,0.0,0.0,0.0,0.0,0.0,0.0,0.0,0.0,0.0,0.0,0.0,0.0,0.0,0.0,0.0,0.0,0.0,0.0,0.0,0.0,0.0,0.0,0.0,0.0,0.0,0.0,0.0,0.0,0.0,0.0,0.0,0.0,0.0,0.0,0.0,0.0,0.0,0.0,0.0,0.0,0.0,0.0,0.0,0.0,0.0,0.0,0.0,0.0,0.0,0.0,0.0,0.0,0.0,0.0,0.0,0.0,0.0,0.0,0.0942,-0.0413,-0.2133,-0.3169,-0.3527,-0.3254,-0.3443,0.0,0.0,0.0,0.0,0.0,0.0,0.0,0.0,0.0,0.0,0.0,0.0,0.0,0.0,0.0,0.0,0.0,0.0,0.0,0.0,0.0,0.0,0.0,0.0,0.0,0.0,0.0,0.0,0.0,0.0,0.0,0.0,0.0,0.0,0.0,0.0,0.0,0.0,0.0,0.0,0.0,0.0,0.0,0.0,0.0,0.0,0.0,0.0,0.0,0.0,0.0,0.0,0.0,0.0,0.0,0.0,0.0,0.0,0.0,0.0,0.0,0.0,0.0,0.0,0.0,0.0,0.0,0.0,0.0,0.0,0.0,0.0,0.0,0.0,0.0,0.0,0.0,0.0,0.0,0.0,0.0,0.0,0.0,0.0,0.0,0.0,0.0,0.0,0.0,0.0,0.0,0.0,0.0,0.0,0.0,0.0,0.0,0.0,0.0,0.0,0.0,0.0,0.0,0.0,0.0,0.0,0.0,0.127,-0.0,-0.1389,-0.2324,-0.3071,-0.3552,-0.3618,-0.3888,-0.4231,0.0,0.0,0.0,0.0,0.0,0.0,0.0,0.0,0.0,0.0,0.0,0.0,0.0,0.0,0.0,0.0,0.0,0.0,0.0,0.0,0.0,0.0,0.0,0.0,0.0,0.0,0.0,0.0,0.0,0.0,0.0,0.0,0.0,0.0,0.0,0.0,0.0,0.0,-0.6187,-0.2743,0.0,0.0,0.0,0.0,0.0,0.0,0.0,0.0,-0.037,0.0,0.0,0.0,0.0,0.0,0.0,0.0,0.0,0.0,0.0,0.0,0.0,0.0,0.0,0.0,0.0,0.0,0.0,0.0,0.0,0.0,0.0,0.0,0.0,0.0,0.0,0.0,0.0,0.0,0.0,0.0,0.0,0.0,0.0,0.0,0.0,0.0,0.0,0.0,0.0,0.0,0.0,0.0,0.0,0.0,0.0,0.0,0.0,0.0,0.0,0.0,0.0,0.0,0.0,0.0,0.0,0.0999,-0.0176,-0.1312,-0.242,-0.3348,-0.3682,-0.3374,-0.3838,-0.4014,-0.3718,0.0,0.0,0.0,0.0,0.0,0.0,0.0,0.0,0.0,0.0,0.0,0.0,0.0,0.0,0.0,0.0,0.0,0.0,0.0,0.0,0.0,0.0,0.0,0.0,0.0,0.0,0.0,0.0,0.0,0.0,0.0,0.0,0.0,0.0,0.0,0.0,0.0,0.0,0.0,-0.1608,0.0452,0.0,0.0,0.0,0.0,0.0,0.0,0.0,0.0,-0.0176,0.0,0.0,0.0,0.0,0.0,0.0,0.0,0.0,0.0,0.0,0.0,0.0,0.0,0.0,0.0,0.0,0.0,0.0,0.0,0.0,0.0,0.0,0.0,0.0,0.0,0.0,0.0,0.0,0.0,0.0,0.0,0.0,0.0,0.0,0.0,0.0,0.0,0.0,0.0,0.0,0.0,0.0,0.0,0.0,0.0,0.0,0.0,0.0,0.0,0.0,0.0,0.0,0.0,0.0,0.0,0.1331,-0.0,-0.1229,-0.2447,-0.3297,-0.3542,-0.3207,-0.3621,-0.3707,0.0,0.0,0.0,0.0,0.0,0.0,0.0,0.0,0.0,0.0,0.0,0.0,0.0,0.0,0.0,0.0,0.0,0.0,0.0,0.0,0.0,0.0,0.0,0.0,0.0,0.0,0.0,0.0,0.0,0.0,0.0,0.0,0.0,0.0,0.0,0.0,0.0,0.0,0.0,0.0,-0.1201,-0.1325,-0.3571,0.0,0.0,0.0,0.0,0.0,0.0,-0.2409,-0.1583,0.0,0.0,0.0,0.0,0.0,0.0,0.0,0.0,0.0,0.0,0.0,0.0,0.0,0.0,0.0,0.0,0.0,0.0,0.0,0.0,0.0,0.0,0.0,0.0,0.0,0.0,0.0,0.0,0.0,0.0,0.0,0.0,0.0,0.0,0.0,0.0,0.0,0.0,0.0,0.0,0.0,0.0,0.0,0.0,0.0,0.0,0.0,0.0,0.0,0.0,0.0,0.0,0.0,0.0,0.0,0.1811,0.0593,-0.0806,-0.2326,-0.2957,-0.3192,-0.3118,-0.3314,-0.3258,0.0,0.0,0.0,0.0,0.0,0.0,0.0,0.0,0.0,0.0,0.0,0.0,0.0,0.0,0.0,0.0,0.0,0.0,0.0,0.0,0.0,0.0,0.0,0.0,0.0,0.0,0.0,0.0,0.0,0.0,0.0,0.0,0.0,0.0,0.0,0.0,0.0,0.0,0.0,0.0,0.0,-0.2811,-0.703,-0.3688,0.0,0.0,0.0,0.0,-0.3257,-0.4003,0.0,0.0,0.0,0.0,0.0,0.0,0.0,0.0,0.0,0.0,0.0,0.0,0.0,0.0,0.0,0.0,0.0,0.0,0.0,0.0,0.0,0.0,0.0,0.0,0.0,0.0,0.0,0.0,0.0,0.0,0.0,0.0,0.0,0.0,0.0,0.0,0.0,0.0,0.0,0.0,0.0,0.0,0.0,0.0,0.0,0.0,0.0,0.0,0.0,0.0,0.0,0.0,0.0,0.0,0.0,0.0,0.1828,0.0923,-0.0546,-0.252,-0.2989,-0.3092,-0.3026,-0.3237,-0.2833,0.0,0.0,0.0,0.0,0.0,0.0,0.0,0.0,0.0,0.0,0.0,0.0,0.0,0.0,0.0,0.0,0.0,0.0,0.0,0.0,0.0,0.0,0.0,0.0,0.0,0.0,0.0,0.0,0.0,0.0,0.0,0.0,0.0,0.0,0.0,0.0,0.0,0.0,0.0,0.0,0.0,-0.2623,-0.8872,-0.6689,-0.3873,0.0,0.0,-0.5324,-0.5488,-0.7395,0.0,0.0,0.0,0.0,0.0,0.0,0.0,0.0,0.0,0.0,0.0,0.0,0.0,0.0,0.0,0.0,0.0,0.0,0.0,0.0,0.0,0.0,0.0,0.0,0.0,0.0,0.0,0.0,0.0,0.0,0.0,0.0,0.0,0.0,0.0,0.0,0.0,0.0,0.0,0.0,0.0,0.0,0.0,0.0,0.0,0.0,0.0,0.0,0.0,0.0,0.0,0.0,0.0,0.0,0.0,0.5108,0.1795,0.0595,-0.0874,-0.2609,-0.3159,-0.3342,-0.3342,-0.3296,-0.3026,0.0,0.0,0.0,0.0,0.0,0.0,0.0,0.0,0.0,0.0,0.0,0.0,0.0,0.0,0.0,0.0,0.0,0.0,0.0,0.0,0.0,0.0,0.0,0.0,0.0,0.0,0.0,0.0,0.0,0.0,0.0,0.0,0.0,0.0,0.0,0.0,0.0,0.0,0.0,0.0,0.0,0.0,-0.6993,-0.7593,0.0,0.0,0.0,-0.5101,-0.4296,0.0,0.0,0.0,0.0,0.0,0.0,0.0,0.0,0.0,0.0,0.0,0.0,0.0,0.0,0.0,0.0,0.0,0.0,0.0,0.0,0.0,0.0,0.0,0.0,0.0,0.0,0.0,0.0,0.0,0.0,0.0,0.0,0.0,0.0,0.0,0.0,0.0,0.0,0.0,0.0,0.0,0.0,0.0,0.0,0.0,0.0,0.0,0.0,0.0,0.0,0.0,0.0,0.0,0.0,0.0,0.0,0.0,0.188,0.0424,-0.114,-0.2611,-0.3329,-0.3599,-0.3653,-0.3591,0.0,0.0,0.0,0.0,0.0,0.0,0.0,0.0,0.0,0.0,0.0,0.0,0.0,0.0,0.0,0.0,0.0,0.0,0.0,0.0,0.0,0.0,0.0,0.0,0.0,0.0,0.0,-0.1272,0.0,0.0,0.0,0.0,0.0,0.0,0.0,0.0,0.0,0.0,0.0,0.0,0.0,0.0,-0.2954,-0.5233,-0.7766,-0.801,0.0,0.0,-0.5114,-0.4341,-0.7742,-0.8876,0.0,0.0,0.0,0.0,0.0,0.0,0.0,0.0,0.0,0.0,0.0,0.0,0.0,0.0,0.0,0.0,0.0,0.0,0.0,0.0,0.0,0.0,0.0,0.0,0.0,0.0,0.0,0.0,0.0,0.0,0.0,0.0,0.0,0.0,0.0,0.0,0.0,0.0,0.0,0.0,0.0,0.0,0.0,0.0,0.0,0.0,0.0,0.0,0.0,0.0,0.0,0.0,0.0,0.0,0.5075,0.2305,0.0612,-0.1013,-0.2611,-0.3262,-0.3663,-0.3852,-0.4222,-0.3725,0.0,0.0,0.0,0.0,0.0,0.0,0.0,0.0,0.0,0.0,0.0,0.0,0.0,0.0,0.0,0.0,0.0,0.0,0.0,0.0,0.0,0.0,0.0,0.0,0.0,0.0,0.0,0.0,0.0,0.0,0.0,0.0,0.0,0.0,0.0,0.0,0.0,0.0,0.0,0.0,0.0,-0.271,-0.5056,-0.7334,-0.8497,0.0,-0.6681,-0.6387,-0.7544,-1.0485,-1.0902,-0.5851,0.0,0.0,0.0,0.0,0.0,0.0,0.0,0.0,0.0,0.0,0.0,0.0,0.0,0.0,0.0,0.0,0.0,0.0,0.0,0.0,0.0,0.0,0.0,0.0,0.0,0.0,0.0,0.0,0.0,0.0,0.0,0.0,0.0,0.0,0.0,0.0,0.0,0.0,0.0,0.0,0.0,0.0,0.0,0.0,0.0,0.0,0.0,0.0,0.0,0.0,0.0,0.0,0.0,0.4146,0.1823,-0.0311,-0.2063,-0.3347,-0.3982,-0.4421,-0.4614,-0.4867,-0.4473,0.0,0.0,0.0,0.0,0.0,0.0,0.0,0.0,0.0,0.0,0.0,0.0,0.0,0.0,0.0,0.0,0.0,0.0,0.0,0.0,0.0,0.0,0.0,0.0,0.0,0.0,0.0,0.0,-0.1033,0.0152,0.5511,0.0,0.0,0.0,0.0,0.0,0.0,0.0,0.0,0.0,0.0,-0.395,-0.5878,-0.7995,0.0,0.0,-0.9078,-0.92,-0.7585,-1.012,-1.077,-0.6361,-0.6186,0.0,0.0,0.0,0.0,0.0,0.0,0.0,0.0,0.0,0.0,0.0,0.0,0.0,0.0,0.0,0.0,0.0,0.0,0.0,0.0,0.0,0.0,0.0,0.0,0.0,0.0,0.0,0.0,0.0,0.0,0.0,0.0,0.0,0.0,0.0,0.0,0.0,0.0,0.0,0.0,0.0,0.0,0.0,0.0,0.0,0.0,0.0,0.0,0.0,0.0,0.0,0.0,0.3437,0.1517,-0.1008,-0.2866,-0.3954,-0.4495,-0.496,-0.5282,-0.5427,-0.5294,0.0,0.0,0.0,0.0,0.0,0.0,0.0,0.0,0.0,0.0,0.0,0.0,0.0,0.0,0.0,0.0,0.0,0.0,0.0,0.0,0.0,0.0,0.0,0.0,0.0,0.0,0.0,0.0,0.003,0.1751,0.9801,0.0,0.0,0.0,0.0,0.0,0.0,0.0,0.0,0.0,0.0,-0.4895,-0.6216,-0.83,-0.9493,-0.8655,-1.0141,-1.0468,-0.8112,-0.9724,-1.018,-0.7232,0.0,0.0,0.0,0.0,0.0,0.0,0.0,0.0,0.0,0.0,0.0,0.0,0.0,0.0,0.0,0.0,0.0,0.0,0.0,0.0,0.0,0.0,0.0,0.0,0.0,0.0,0.0,0.1862,0.0,0.0,0.1956,0.0,0.0,0.0,0.0,0.0,0.0,0.0,0.0,0.0,0.0,0.0,0.0,0.0,0.0,0.0,0.0,0.0,0.0,0.0,0.0,0.0,0.0,0.3038,0.1516,-0.1198,-0.3065,-0.4281,-0.4625,-0.516,-0.5822,-0.5857,-0.6156,-0.6619,0.0,0.0,0.0,0.0,0.0,0.0,0.0,0.0,0.0,0.0,0.0,0.0,0.0,0.0,0.0,0.0,0.0,0.0,0.0,0.0,0.0,0.0,0.0,0.0,0.0,0.0,0.2615,0.2043,0.2896,0.0,0.0,0.0,0.0,0.0,0.0,0.0,0.0,0.0,-0.0967,-0.3529,-0.5338,-0.5795,-0.8069,-0.9521,-0.9134,-0.9358,-0.9553,-0.957,-0.9617,-0.9459,0.0,0.0,0.0,0.0,0.0,0.0,0.0,0.0,0.0,0.0,0.0,0.0,0.0,0.0,0.0,0.0,0.0,0.0,0.0,0.0,0.0,0.0,0.0,0.0,0.0,0.0,0.0,-0.0111,0.0724,0.0,0.0,0.0,0.0,0.0,0.0,0.0,0.0,0.0,0.0,0.0,-0.2821,-0.4273,0.0,0.0,0.0,0.0,0.0,0.0,0.0,0.0,0.0,0.0,0.0,0.0,0.1437,0.0365,-0.2439,-0.4119,-0.4622,-0.5286,-0.5752,-0.6017,-0.6485,-0.6724,-0.6598,0.0,0.0,0.0,0.0,0.0,0.0,0.0,0.0,0.0,0.0,0.0,0.0,0.0,0.0,0.0,0.0,0.0,0.0,0.0,0.0,0.0,0.0,0.0,0.0,0.0,0.0891,0.0,0.0,0.0,0.0,0.0,0.0,0.0,0.0,0.0,0.0,0.0,0.0534,-0.2172,-0.3863,-0.5036,-0.563,-0.6932,-0.8357,0.0,0.0,0.0,0.0,0.0,0.0,0.0,0.0,0.0,0.0,0.0,0.0,0.0,0.0,-0.3373,0.3133,0.3893,0.39,0.5246,0.0,0.0,0.0,0.0,0.0,0.0,0.0,0.0,0.0,0.0,0.0,0.0,0.0,0.0,-0.1849,-0.1383,-0.1072,0.0,0.0,0.0,0.0,0.0,0.0,0.0,0.0,-0.3271,-0.4058,-0.4651,-0.6309,-0.6375,0.0,-0.4918,-0.3214,0.0,0.0,0.0,0.0,0.0,0.0,0.0,0.0,0.0182,-0.0611,-0.3243,-0.4761,-0.5027,-0.5683,-0.621,-0.6412,-0.7136,-0.7409,-0.7274,-0.6293,-0.5185,0.0,0.0,0.0,0.0,0.0,0.0,0.0,0.0,0.0,0.0,0.0,0.0,0.0,0.0,0.0,0.0,0.0,0.0,0.0,0.0,0.0,0.0,0.0,0.0971,0.0,0.0,0.0,0.0,0.0,0.0,0.0,0.0,0.0,0.2266,0.1225,-0.0305,-0.3029,-0.4468,-0.5262,-0.5175,0.0,0.0,0.0,0.0,0.0,0.0,0.0,-0.8074,-0.759,-0.8366,-0.9373,-1.0208,-1.0716,-1.1013,-1.1086,0.0,0.0,-0.1399,-0.1368,-0.2012,-0.0331,-0.0328,-0.0371,0.0371,0.0609,0.0805,0.0,0.0,0.0,0.0,0.0,0.0,0.0,0.0,-0.3625,-0.368,0.0,-0.3542,0.0,0.0,0.0,0.0,-0.2517,-0.355,0.0,0.0,-0.5894,-0.6573,-0.635,-0.6291,-0.6417,-0.6656,-0.594,-0.5864,-0.6228,-0.3231,0.0,0.0,0.0,0.0,0.0,0.0,-0.079,-0.1468,-0.3704,-0.503,-0.5425,-0.5892,-0.6424,-0.6977,-0.775,-0.8289,-0.8629,-0.8531,-0.8142,-0.726,-0.4478,0.0,0.0,0.0,0.0,0.0,0.0,0.0,0.0,0.0,0.0,0.0,0.0,0.0,0.0,0.0,0.0,0.0,0.0,0.0,0.0,0.3947,0.0,0.0,0.0,0.0,0.0,0.0,0.0,0.0,0.0,0.0,-0.0,-0.0342,-0.113,-0.3466,0.0,0.0,0.0,0.0,-0.6911,-0.5404,-0.8331,-0.9782,-0.7222,-0.7583,-0.8495,-0.9315,0.0,0.0,-1.302,-1.2286,-1.1784,-1.2299,-1.2496,-1.1469,-0.7733,-0.6513,-0.6415,-0.7202,-0.485,-0.2552,-0.1841,-0.1813,-0.1608,-0.8292,0.0,0.0,0.0,0.0,-0.6497,-0.6407,-0.637,-0.6043,-0.5729,-0.542,-0.5071,0.0,0.0,0.0,0.0,0.0,0.0,-0.5373,-0.6029,-0.6417,-0.6839,-0.7256,-0.7334,-0.7398,-0.7469,-0.7414,-0.7386,-0.7395,-0.6358,-0.4318,-0.1562,0.0,0.0,0.0,0.0,-0.2284,-0.3095,-0.4727,-0.569,-0.5881,-0.6601,-0.7282,-0.7979,-0.8319,-0.8594,-0.8725,-0.8674,-0.8211,-0.7282,-0.7212,0.0,0.0,0.0,0.0,0.0,0.0,0.0,0.0,0.0,0.0,0.0,0.0,0.0,0.0,0.0,0.0,0.0,0.0,0.0,0.0649,-0.0321,-0.0,0.0,0.0,0.0,0.0,0.0,0.0,0.0,0.0,0.0,-0.0691,-0.081,-0.1026,0.0,0.0,-0.3275,-0.3113,-0.4244,-0.5463,-0.6481,-0.7641,0.0,-0.9227,-0.8692,-0.8416,-0.9106,-1.0352,-1.1652,-1.2546,-1.2772,-1.2868,-1.3019,-1.3211,-1.2846,-1.1662,-1.0989,-1.0429,-0.9553,-0.8353,-0.718,-0.6073,-0.535,-0.4864,-0.9585,-0.9168,-0.8172,-0.7787,-0.7849,-0.7726,-0.7711,-0.7697,-0.7489,-0.7242,-0.7078,-0.6547,-0.6138,-0.583,-0.536,0.0,0.0,0.0,-0.6538,-0.7355,-0.7242,-0.7414,-0.7731,-0.7793,-0.7845,-0.7787,-0.7815,-0.7815,-0.7777,-0.7412,-0.6136,-0.405,0.0,-0.2741,-0.2565,-0.3036,-0.3588,-0.4293,-0.5343,-0.5954,-0.6083,-0.6996,-0.785,-0.8628,-0.8857,-0.897,-0.9062,-0.9062,-0.8707,-0.8065,-0.8894,-0.8054,0.0,0.0,0.0,0.0,0.0,0.0,0.0,0.0,0.0,0.0,0.0,0.8439,0.9172,0.0,0.0,0.0,0.2976,0.0887,-0.1987,-0.1566,0.0,0.0,0.0,0.0,0.0,0.0,0.0,0.3912,0.2835,0.1177,-0.1154,-0.1715,-0.2111,-0.2773,-0.3538,-0.3822,-0.3278,0.0,-0.5439,-0.7062,-0.7806,-0.837,-0.906,-0.8896,-0.8936,-0.9759,-1.0674,-1.1559,-1.2416,-1.2803,-1.3075,-1.3141,-1.3021,-1.3094,-1.3533,-1.286,-1.174,-1.0485,-0.9824,-0.9122,-0.7852,-0.7204,-0.6745,-1.0764,-1.107,-0.9414,-0.8601,-0.8427,-0.8343,-0.8384,-0.8492,-0.8217,-0.8461,-0.8983,-0.7911,-0.7668,-0.7981,-0.6738,0.0,-0.7413,-0.7327,-0.7702,-0.8331,-0.8311,-0.813,-0.7874,-0.7825,-0.7829,-0.7825,-0.7693,-0.7693,-0.7782,-0.7145,-0.6647,-0.6392,-0.5721,-0.5258,-0.4887,-0.4697,-0.4763,-0.5148,-0.5676,-0.6094,-0.625,-0.731,-0.8224,-0.8993,-0.9218,-0.9395,-0.9528,-0.9539,-0.9473,-0.9311,-0.9593,-0.9526,-0.8922,0.0,0.0,0.0,0.0,0.0,0.0,0.0,0.0,0.0,0.0,0.0,0.0,0.0,0.0,0.0,0.0213,0.0,-0.304,-0.111,0.0,0.0,0.0,0.2204,0.184,0.0858,0.0723,0.1992,0.0,0.0,-0.1542,-0.2824,-0.3821,-0.4364,-0.5814,-0.6203,-0.4331,-0.5095,-0.6272,-0.7202,-0.8424,-0.8776,-0.7959,-0.8646,-0.9734,-1.0719,-1.1254,-1.1656,-1.2325,-1.2485,-1.2622,-1.2699,-1.2317,-1.2308,-1.3932,-1.2362,-1.096,-1.0437,-0.9817,-0.9045,-0.7997,-0.7596,-0.7396,-1.1659,-1.1732,-1.1337,-1.0825,-1.0235,-0.975,-0.9627,-0.9755,-0.9383,-0.9265,-0.9376,-0.8851,-0.8591,-0.8503,-0.7911,-0.7765,-0.8105,-0.7801,-0.7909,-0.8384,-0.8151,-0.8127,-0.8168,-0.8255,-0.8255,-0.8255,-0.8203,-0.8118,-0.8004,-0.7686,-0.7309,-0.6811,-0.6498,-0.6128,-0.5643,-0.5672,-0.5886,-0.6278,-0.6453,-0.6877,-0.7646,-0.835,-0.8952,-0.9456,-0.9686,-0.9637,-0.9392,-0.9392,-0.9246,-0.9094,-0.901,-0.866,-0.7891,-0.6168,0.0,0.0,0.0,0.0,0.0,0.0,0.0,0.0,0.0,0.6168,0.5843,0.0,0.4161,0.0,-0.1643,-0.3721,-0.3836,-0.4061,0.0,0.0,-0.2769,-0.2329,-0.0377,-0.1944,-0.2145,0.0622,-0.0907,-0.2279,-0.2372,-0.3407,-0.4424,-0.5219,-0.4971,-0.4721,-0.4733,-0.5182,-0.5902,-0.6888,-0.801,-0.8796,-0.8667,-0.9238,-0.9997,-1.0691,-1.1037,-1.1335,-1.1861,-1.1929,-1.1846,-1.153,-1.1593,-1.1536,-1.1169,-1.0923,-1.0536,-0.9661,-0.9409,-0.9239,-0.8294,-0.7992,-0.7857,-1.2659,-1.2779,-1.2579,-1.2207,-1.1774,-1.0921,-1.047,-1.0293,-0.9922,-0.9695,-0.969,-0.9335,-0.899,-0.8656,-0.8359,-0.8351,-0.8524,-0.8194,-0.8277,-0.8683,-0.8411,-0.8379,-0.8447,-0.8417,-0.8401,-0.8396,-0.8307,-0.8245,-0.8212,-0.8014,-0.7742,-0.7283,-0.7377,-0.7129,-0.6486,-0.5944,-0.5906,-0.623,-0.6694,-0.7301,-0.8203,-0.8839,-0.9061,-0.9018,-0.9092,-0.8772,-0.8008,-0.8008,-0.8003,-0.8008,-0.7941,-0.7765,-0.7391,-0.6277,-0.5162,0.0,0.0,0.0,0.0,0.0,0.0,0.0,0.0,0.0,0.0,0.0,0.1127,0.03,-0.2332,-0.3756,-0.3236,-0.3971,-0.4227,-0.3687,-0.4161,-0.4149,-0.3142,-0.4047,-0.39,-0.193,-0.2811,-0.367,-0.3713,-0.4159,-0.4876,-0.5732,-0.5267,-0.512,-0.5677,-0.6184,-0.6773,-0.7073,-0.7737,-0.8322,-0.8775,-0.9241,-0.962,-1.0062,-1.0288,-1.0513,-1.0818,-1.0887,-1.0819,-1.0768,-1.0728,-1.0532,-1.0074,-1.0091,-0.9939,-0.9544,-0.9886,-0.9973,-0.8953,-0.8647,-0.8565,-1.3566,-1.3786,-1.3379,-1.318,-1.294,-1.197,-1.1236,-1.0691,-1.0312,-0.9997,-0.9965,-0.9565,-0.9165,-0.8851,-0.8632,-0.8632,-0.8703,-0.8479,-0.8637,-0.887,-0.8708,-0.8609,-0.866,-0.8513,-0.8365,-0.836,-0.8226,-0.8289,-0.8392,-0.8255,-0.8065,-0.7844,-0.8117,-0.7934,-0.7122,-0.5967,-0.5563,-0.5927,-0.6742,-0.7627,-0.8452,-0.8969,-0.8944,-0.8408,-0.8159,-0.755,-0.6548,-0.6465,-0.6535,-0.6658,-0.6802,-0.6964,-0.7193,-0.6023,-0.5357,0.0,-0.4697,0.0,0.0,0.0,0.0,0.0,0.0,0.0,0.0,-0.1928,-0.2021,-0.1612,-0.268,-0.3115,-0.2518,-0.2904,-0.3671,-0.481,-0.445,-0.4553,-0.5717,-0.5556,-0.5093,-0.4618,-0.4612,-0.4743,-0.5043,-0.5055,-0.5258,-0.5809,-0.5871,-0.5983,-0.6428,-0.7108,-0.7563,-0.748,-0.7557,-0.794,-0.8475,-0.8784,-0.9018,-0.9311,-0.9463,-0.9544,-0.9765,-0.976,-0.9889,-1.0113,-0.9802,-0.9547,-0.9875,-0.9597,-0.9349,-0.9509,-1.0743,-1.1285,-1.0048,-0.9622,-0.9649,-1.4094,-1.408,-1.4022,-1.3789,-1.347,-1.2945,-1.2419,-1.1933,-1.13,-1.0712,-1.0207,-0.9932,-0.9765,-0.962,-0.9316,-0.9084,-0.8922,-0.8551,-0.8403,-0.8479,-0.8331,-0.8309,-0.8424,-0.8424,-0.8424,-0.841,-0.8508,-0.8578,-0.8617,-0.8408,-0.8216,-0.7892,-0.7829,-0.7447,-0.6839,0.0,0.0,0.0,-0.7603,-0.8044,-0.8516,-0.8658,-0.8775,-0.879,-0.8204,0.0,-0.7003,-0.6872,-0.6609,-0.6272,-0.6539,0.0,0.0,0.0,0.0,0.0,0.0,0.0,0.0,0.0,0.0,0.0,-0.4964,-0.4186,-0.3033,-0.3445,-0.4001,-0.4488,-0.4262,-0.4113,-0.4225,-0.4254,-0.4581,-0.5366,-0.5042,-0.5143,-0.6002,-0.6321,-0.6167,-0.5321,-0.53,-0.5449,-0.5616,-0.5585,-0.549,-0.5736,-0.5825,-0.5976,-0.605,-0.6381,-0.6707,-0.718,-0.7565,-0.794,-0.8318,-0.8475,-0.8479,-0.8551,-0.8703,-0.8856,-0.8927,-0.9079,-0.9085,-0.915,-0.9041,-0.9062,-0.8912,-0.8821,-0.9061,-0.999,-1.1768,-1.2692,-1.1269,-1.0923,-1.1098,-1.4711,-1.4764,-1.4619,-1.4482,0.0,-1.3387,-1.3021,-1.2816,-1.1764,-1.0969,-1.0455,-1.0331,-1.0213,-1.0105,-0.9792,-0.9499,-0.916,-0.8703,-0.8551,-0.8551,-0.8255,-0.8178,-0.8403,-0.8403,-0.8403,-0.8399,-0.868,-0.8856,-0.8846,-0.8822,-0.8641,-0.8317,-0.8276,-0.7956,-0.7446,-0.7372,-0.7462,-0.7491,-0.7941,-0.8449,-0.9087,-0.9169,-0.9059,-0.8769,-0.8303,0.0,0.0,0.0,0.0,0.0,0.0,0.0,0.0,-0.6981,0.0,-0.7342,-0.6916,-0.6819,-0.7129,-0.7155,-0.7065,-0.6908,-0.6769,-0.6175,-0.4864,-0.5271,-0.564,-0.5939,-0.5426,-0.5176,-0.5226,-0.5087,-0.5246,-0.587,-0.5404,-0.5401,-0.6479,-0.6788,-0.6707,-0.6247,-0.5792,-0.5712,-0.6015,-0.586,-0.5867,-0.6022,-0.6173,-0.6251,-0.6325,-0.6093,-0.6251,-0.7411,-0.7868,-0.8169,-0.8322,-0.8322,-0.8322,-0.8322,-0.8403,-0.8403,-0.8403,-0.8556,-0.8666,-0.8716,-0.8846,-0.8956,-0.8945,-0.8758,-0.9144,-1.0912,-1.3158,-1.4545,-1.3599,-1.2967,-1.2651,-1.5289,-1.5378,-1.5137,-1.501,-1.4738,-1.3654,-1.3237,-1.3203,-1.1838,0.0,0.0,-1.0654,-1.0536,-1.0358,-1.0184,-0.9823,-0.9306,-0.8913,-0.866,-0.8546,-0.8097,-0.8025,-0.825,-0.8246,-0.825,-0.8327,-0.8784,-0.9018,-0.9022,-0.9251,-0.9155,-0.8857,-0.8854,-0.8618,-0.814,-0.8303,-0.8232,-0.7816,-0.8189,-0.8759,-0.9484,-0.9675,-0.9405,-0.8674,-0.8235,-0.7564,-0.6544,-0.6433,-0.6498,-0.6662,-0.6597,-0.6766,-0.7238,-0.718,-0.7216,-0.7355,-0.7442,-0.7655,-0.8268,-0.8002,-0.7893,-0.8153,-0.8006,-0.7513,-0.6611,-0.6859,-0.6945,-0.6714,-0.6251,-0.6018,-0.586,-0.5634,-0.5634,-0.6261,-0.564,-0.5712,-0.6872,-0.6945,-0.6868,-0.6865,-0.6251,-0.6022,-0.6402,-0.6328,-0.6251,-0.6637,-0.6791,-0.6865,-0.6942,-0.6479,-0.656,-0.7868,-0.825,-0.8246,-0.8246,-0.8246,-0.8246,-0.8174,-0.8102,-0.8106,-0.8102,-0.8327,-0.8475,-0.8689,-0.8861,-0.916,-0.9392,-0.9357,-0.982,-1.1717,-1.4204,-1.6088,-1.5747,-1.4898,-1.4229,-1.5571,-1.5391,-1.5351,-1.491,-1.4308,-1.3879,-1.3237,-1.2479,-1.1668,-1.1183,-1.0923,-1.0724,-1.0622,-1.0589,-1.0503,-1.0056,-0.938,-0.9125,-0.8636,-0.794,-0.7488,-0.7411,-0.7633,-0.7638,-0.7791,-0.8178,-0.8703,-0.9084,-0.9251,-0.9473,-0.9453,-0.92,-0.8694,-0.8376,-0.8165,-0.8444,-0.8813,-0.906,-0.8918,-0.9032,-0.9232,-0.9114,-0.898,-0.8837,-0.8077,-0.7407,-0.699,-0.672,-0.6374,-0.6199,-0.647,-0.6881,-0.7547,-0.7789,-0.8036,-0.8459,-0.8656,-0.8684,-0.8652,-0.8557,-0.8548,-0.8571,-0.8424,-0.8031,-0.7411,-0.7532,-0.7488,-0.6942,-0.6637,-0.6328,-0.5941,-0.5712,-0.5792,-0.6183,-0.6183,-0.6412,-0.7026,-0.6872,-0.6795,-0.7026,-0.6868,-0.6791,-0.6949,-0.7026,-0.7103,-0.733,-0.748,-0.7633,-0.7633,-0.748,-0.7633,-0.8322,-0.8327,-0.8102,-0.8097,-0.8097,-0.8025,-0.7638,-0.7795,-0.7953,-0.8183,-0.8475,-0.8703,-0.8699,-0.9089,-0.9473,-1.0003,-1.0519,-1.1248,-1.2558,-1.4378,-1.5621,-1.5974,-1.5896,-1.5748,-1.5752,-1.5611,-1.5458,-1.5127,-1.4583,-1.3785,-1.2998,-1.2204,-1.1882,-1.157,-1.1348,-1.1128,-1.095,-1.0826,-1.0821,-1.029,-0.9346,-0.9105,-0.8515,-0.7626,-0.7313,-0.711,-0.7176,-0.7253,-0.7561,-0.8106,-0.8627,-0.9084,-0.9473,-0.9695,-0.9463,-0.8937,-0.8399,-0.825,-0.8556,-0.8764,-0.906,-0.9468,-0.9342,-0.938,-0.9593,-0.9491,-0.9432,-0.9432,-0.9006,-0.8669,-0.8487,-0.8253,-0.8033,-0.7847,-0.7989,-0.8226,-0.8558,-0.8719,-0.8956,-0.8998,-0.9094,-0.9094,-0.8861,-0.8627,-0.8551,-0.8551,-0.8327,-0.8102,-0.7718,-0.7723,-0.7646,-0.7249,-0.6945,-0.671,-0.6479,-0.6177,-0.6103,-0.6261,-0.6261,-0.649,-0.6795,-0.6641,-0.6644,-0.7026,-0.7173,-0.7249,-0.733,-0.7484,-0.7561,-0.7791,-0.7944,-0.8021,-0.8093,-0.8021,-0.8089,-0.8551,-0.8551,-0.8327,-0.8169,-0.8097,-0.8025,-0.7872,-0.7949,-0.825,-0.8556,-0.8932,-0.9084,-0.9003,-0.9533,-1.0218,-1.0674,-1.126,-1.2211,-1.344,-1.4752,-1.5842,-1.6342,-1.6412,-1.621,-1.5825,-1.5805,-1.5585,-1.5249,-1.486,-1.3607,-1.2753,-1.2303,-1.2151,-1.2027,-1.1833,-1.1558,-1.1289,-1.1074,-1.1063,-1.0434,-0.9412,-0.9069,-0.8363,-0.7282,-0.7031,-0.6946,-0.6876,-0.7099,-0.7585,-0.8159,-0.8698,-0.9187,-0.9694,-0.9853,-0.9438,-0.8693,-0.8268,-0.8327,-0.8865,-0.9084,-0.9311,-0.962,-0.9695,-0.9771,-0.9922,-0.9922,-0.9922,-0.9916,-0.9863,-0.9712,-0.9614,-0.9492,-0.9417,-0.9241,-0.9246,-0.9322,-0.9322,-0.9473,-0.9473,-0.9246,-0.9251,-0.917,-0.887,-0.856,-0.8403,-0.8327,-0.8178,-0.7953,-0.7804,-0.7723,-0.7642,-0.7484,-0.7096,-0.6865,-0.6788,-0.6486,-0.6261,-0.6261,-0.6261,-0.6412,-0.6644,-0.657,-0.6641,-0.718,-0.7484,-0.7638,-0.7714,-0.7863,-0.8012,-0.8174,-0.8255,-0.825,-0.8399,-0.8399,-0.8475,-0.8627,-0.8703,-0.8627,-0.8479,-0.8331,-0.8255,-0.8255,-0.8556,-0.8937,-0.9306,-0.969,-0.9841,-0.9836,-1.0288,-1.0962,-1.1409,-1.1929,-1.2806,-1.3954,-1.4974,-1.585,-1.6263,-1.6193,-1.6132,-1.5825,-1.5825,-1.5792,-1.5229,-1.4292,-1.3312,-1.2796,-1.2753,-1.2474,-1.2371,-1.228,-1.1865,-1.1548,-1.1332,-1.1322,-1.0585,-0.9363,-0.9101,-0.8247,-0.6995,-0.6635,-0.6551,-0.674,-0.7265,-0.7802,-0.8418,-0.9223,-0.979,-1.0204,-0.9983,-0.9412,-0.8589,-0.873,-0.8803,-0.8641,-0.9256,-0.97,-0.9846,-1.0067,-1.0067,-0.9916,-0.9922,-0.9922,-0.9922,-0.9723,-0.9638,-0.9604,-0.9426,-0.9268,-0.914,-0.9241,-0.9402,-0.9483,-0.9554,-0.9473,-0.9103,-0.918,-0.9013,-0.8565,-0.8403,-0.8345,-0.8102,-0.7961,-0.7808,-0.7804,-0.7642,-0.7557,-0.7488,-0.718,-0.6942,-0.6865,-0.6563,-0.6261,-0.6338,-0.6338,-0.6416,-0.6644,-0.6791,-0.7096,-0.7787,-0.797,-0.7944,-0.8295,-0.8372,-0.8426,-0.8588,-0.8593,-0.8574,-0.8627,-0.8627,-0.8703,-0.8703,-0.8703,-0.8627,-0.8479,-0.8551,-0.878,-0.8927,-0.9236,-0.9765,-1.0363,-1.0663,-1.0738,-1.0887,-1.1037,-1.1484,-1.2157,-1.2753,-1.3112,-1.3905,-1.4705,-1.515,-1.5275,-1.5338,-1.5488,-1.5825,-1.5825,-1.5825,-1.5452,-1.4688,-1.3636,-1.3437,-1.3613,-1.2945,-1.2734,-1.277,-1.239,-1.1989,-1.1752,-1.1623,-1.0793,-0.9468,-0.9178,-0.8556,-0.7579,-0.7398,-0.7558,-0.7889,-0.8112,-0.856,-0.911,-0.9521,-0.9973,-1.0293,-0.9984,-0.9604,-0.9356,-0.9423,-0.9701,-1.0168,-1.0488,-1.0802,-1.1114,-1.1126,-1.1126,-1.108,-1.0591,-1.0218,-1.0062,-0.9894,-0.9734,-0.975,-0.9675,-0.9675,-0.9604,-0.962,-0.97,-0.9927,-0.9922,-0.9771,-0.9402,-0.9217,-0.9106,-0.8988,-0.8679,-0.8471,-0.8277,-0.796,-0.7766,-0.765,-0.7561,-0.7525,-0.7614,-0.7239,-0.6865,-0.6868,-0.6563,-0.6261,-0.6335,-0.6412,-0.6641,-0.6953,-0.6942,-0.7204,-0.8086,-0.8992,-0.93,-0.8913,-0.8834,-0.8941,-0.893,-0.8888,-0.8845,-0.8737,-0.8703,-0.8856,-0.9079,-0.9155,-0.9079,-0.8856,-0.9453,-0.9755,-0.9836,-1.0137,-1.0738,-1.126,-1.1484,-1.1558,-1.1787,-1.1787,-1.1861,-1.2305,-1.29,-1.3339,-1.4065,-1.4569,-1.4944,-1.4999,-1.4848,-1.4848,-1.5825,-1.5832,-1.5642,-1.5458,-1.4987,-1.4112,-1.3919,-1.4202,-1.3534,-1.3329,-1.3454,-1.2981,-1.2603,-1.2396,-1.1956,-1.0885,-0.9692,-0.9504,-0.8962,-0.8122,-0.8195,-0.843,-0.8764,-0.8991,-0.9269,-0.9727,-0.9988,-1.0264,-1.0558,-1.0172,-0.9983,-1.0054,-1.0075,-1.0525,-1.1347,-1.1508,-1.1748,-1.2068,-1.1926,-1.1926,-1.2013,-1.1456,-1.0924,-1.0621,-1.0315,-1.0132,-1.0148,-1.0138,-1.0177,-1.0177,-1.0237,-1.0423,-1.0582,-1.0423,-1.0116,-0.9746,-0.9414,-0.9247,-0.9399,-0.9,-0.8702,-0.8484,-0.8066,-0.7776,-0.7659,-0.7524,-0.758,-0.7793,-0.747,-0.7152,-0.6932,-0.6592,-0.6338,-0.6338,-0.6486,-0.6721,-0.718,-0.7249,-0.77,-0.8444,-0.9533,-1.0177,-0.9351,-0.9141,-0.9223,-0.9053,-0.9011,-0.8944,-0.876,-0.878,-0.9089,-0.9539,-0.969,-0.9685,-0.9453,-0.9906,-1.0513,-1.0812,-1.1037,-1.1558,-1.215,-1.2224,-1.2231,-1.2305,-1.2305,-1.2378,-1.2606,-1.2973,-1.3339,-1.4,-1.4433,-1.4505,-1.4433,-1.4209,-1.3992,-1.5825,-1.5737,-1.5363,-1.5178,-1.5083,-1.4496,-1.4298,-1.4394,-1.4196,-1.419,-1.4166,-1.3698,-1.3409,-1.3329,-1.2301,-1.0985,-0.9786,-1.0069,-0.952,-0.8406,-0.8811,-0.895,-0.8832,-0.9404,-0.9843,-1.0282,-1.0627,-1.081,-1.0641,-1.0652,-1.0548,-1.0371,-1.0762,-1.1123,-1.1543,-1.1882,-1.2086,-1.2388,-1.2308,-1.2357,-1.251,-1.2552,-1.2151,-1.1522,-1.1029,-1.0778,-1.079,-1.0847,-1.0823,-1.0818,-1.1016,-1.1318,-1.1588,-1.0997,-1.0412,-1.0034,-0.9796,-0.9644,-0.9673,-0.9283,-0.8937,-0.8669,-0.8164,-0.7823,-0.7939,-0.7692,-0.77,-0.7992,-0.8,-0.7686,-0.7205,-0.6659,-0.6416,-0.6563,-0.6412,-0.6718,-0.7484,-0.8016,-0.8571,-0.8829,-0.953,-0.9955,-0.9403,-0.9327,-0.9275,-0.9133,-0.9044,-0.8954,-0.8837,-0.9013,-0.9392,-0.9841,-1.0137,-1.0368,-1.0218,-1.0513,-1.0956,-1.1329,-1.1781,-1.2157,-1.2599,-1.2893,-1.282,-1.2673,-1.2452,-1.2452,-1.2826,-1.3053,-1.3346,-1.3637,-1.3783,-1.3855,-1.3702,-1.3419,-1.3193,-1.5825,-1.5825,-1.5642,-1.5547,-1.5452,-1.4981,-1.4975,-1.5159,-1.4586,-1.4496,-1.4694,-1.4208,-1.4016,-1.3992,-1.3362,-1.2334,-1.1091,-1.1181,-1.1023,-1.0649,-1.0896,-1.1202,-1.1541,-1.1319,-1.1191,-1.1272,-1.1209,-1.0995,-1.0702,-1.0909,-1.1129,-1.1283,-1.1792,-1.2332,-1.2837,-1.3176,-1.3341,-1.3437,-1.3182,-1.3099,-1.3233,-1.2839,-1.2532,-1.2506,-1.1763,-1.1384,-1.1408,-1.1265,-1.1147,-1.1147,-1.1238,-1.1364,-1.1376,-1.0886,-1.0626,-1.0584,-1.0274,-1.0168,-1.0209,-0.9724,-0.9324,-0.9038,-0.8522,-0.805,-0.8032,-0.7893,-0.793,-0.8162,-0.8308,-0.8114,-0.7654,-0.6867,-0.657,-0.7026,-0.6868,-0.7099,-0.794,-0.8097,-0.8294,-0.9285,-0.9996,-1.0206,-1.0254,-1.0059,-0.9644,-0.9455,-0.9471,-0.931,-0.8947,-0.916,-0.969,-1.0363,-1.0519,-1.0519,-1.0962,-1.1111,-1.1484,-1.2003,-1.2452,-1.2673,-1.2973,-1.2893,-1.282,-1.2599,-1.2452,-1.2452,-1.268,-1.2973,-1.3273,-1.3119,-1.3266,-1.3193,-1.2966,-1.2746,-1.2526,-1.5825,-1.5825,-1.5825,-1.5825,-1.5737,-1.5458,-1.5553,-1.5737,-1.5064,-1.4968,-1.5172,-1.4783,-1.4586,-1.4465,-1.4206,-1.3596,-1.2704,-1.2523,-1.2304,-1.2249,-1.2511,-1.2779,-1.3105,-1.2604,-1.222,-1.2065,-1.163,-1.125,-1.0926,-1.1418,-1.176,-1.202,-1.2705,-1.3307,-1.3899,-1.4159,-1.4334,-1.425,-1.3828,-1.373,-1.3717,-1.3213,-1.2945,-1.301,-1.2517,-1.2089,-1.1864,-1.1682,-1.156,-1.1572,-1.156,-1.1518,-1.1271,-1.1024,-1.084,-1.0905,-1.0683,-1.066,-1.0788,-1.0294,-0.988,-0.9577,-0.8961,-0.8475,-0.8367,-0.8275,-0.8344,-0.8721,-0.9256,-0.9269,-0.8632,-0.793,-0.7549,-0.7745,-0.7471,-0.7748,-0.8663,-0.853,-0.8989,-1.0064,-1.0211,-1.0418,-1.0686,-1.0348,-1.0108,-0.9822,-0.996,-0.9732,-0.9346,-0.9463,-1.0137,-1.1031,-1.0887,-1.0962,-1.126,-1.1484,-1.1706,-1.2224,-1.2599,-1.282,-1.2973,-1.29,-1.282,-1.2599,-1.2526,-1.2452,-1.2599,-1.29,-1.29,-1.2746,-1.2673,-1.2673,-1.2378,-1.2077,-1.1929,-1.5825,-1.5832,-1.5825,-1.5825,-1.592,-1.5737,-1.5825,-1.5825,-1.573,-1.573,-1.5642,-1.5267,-1.5077,-1.4975,-1.4644,-1.4413,-1.4353,-1.386,-1.3368,-1.2854,-1.3314,-1.3683,-1.367,-1.317,-1.2681,-1.2486,-1.196,-1.1591,-1.1435,-1.2124,-1.2557,-1.2771,-1.3345,-1.3932,-1.4398,-1.4566,-1.4657,-1.4489,-1.4159,-1.4004,-1.3997,-1.3542,-1.3269,-1.3288,-1.3269,-1.2868,-1.2234,-1.2186,-1.2058,-1.2011,-1.2199,-1.1997,-1.1439,-1.1268,-1.1225,-1.1052,-1.0992,-1.1084,-1.117,-1.0814,-1.0371,-1.0163,-0.9479,-0.9113,-0.9187,-0.8852,-0.8865,-0.9483,-1.0361,-1.0742,-0.9833,-0.9676,-0.9413,-0.8621,-0.8379,-0.864,-0.9154,-0.9653,-1.0182,-1.077,-1.0495,-1.0197,-1.0429,-1.0473,-1.0304,-1.0338,-1.0305,-1.0253,-0.9925,-1.0111,-1.0669,-1.1335,-1.1335,-1.126,-1.1484,-1.1706,-1.1929,-1.2224,-1.2526,-1.2746,-1.29,-1.2826,-1.2753,-1.2606,-1.2452,-1.2378,-1.2526,-1.2746,-1.2606,-1.2526,-1.2378,-1.2231,-1.2003,-1.1781,-1.1632,-1.6109,-1.6581,-1.6015,-1.6109,-1.648,-1.6015,-1.5825,-1.5825,-1.5825,-1.5825,-1.573,-1.5642,-1.5547,-1.5547,-1.535,-1.5393,-1.5396,-1.5204,-1.4888,-1.4628,-1.4701,-1.4799,-1.4662,-1.4138,-1.3465,-1.2762,-1.2575,-1.2451,-1.2479,-1.3159,-1.3603,-1.3822,-1.4104,-1.4334,-1.4685,-1.4657,-1.4573,-1.4243,-1.3997,-1.3737,-1.3398,-1.3137,-1.2966,-1.2881,-1.2881,-1.279,-1.2565,-1.2271,-1.2143,-1.2234,-1.2157,-1.1946,-1.1602,-1.1429,-1.1257,-1.1262,-1.1176,-1.1181,-1.1176,-1.0809,-1.0544,-1.0371,-0.9941,-0.9772,-0.9689,-0.9349,-0.9345,-0.9864,-1.0738,-1.0875,-1.0235,-1.0514,-1.0454,-0.9615,-0.995,-1.0131,-1.0007,-1.0179,-1.0379,-1.0686,-1.0824,-1.0874,-1.0851,-1.0776,-1.0761,-1.075,-1.073,-1.0599,-1.0534,-1.0678,-1.0974,-1.1416,-1.1409,-1.1496,-1.169,-1.1878,-1.2029,-1.2276,-1.2526,-1.2753,-1.2826,-1.2826,-1.2753,-1.268,-1.2452,-1.2445,-1.2599,-1.2526,-1.2452,-1.2305,-1.2157,-1.2009,-1.1774,-1.1626,-1.1558,-1.6669,-1.7326,-1.6574,-1.648,-1.6943,-1.6103,-1.5825,-1.5825,-1.5825,-1.5825,-1.5825,-1.5825,-1.5825,-1.5825,-1.6109,-1.6204,-1.6298,-1.648,-1.6577,-1.6316,-1.5744,-1.5558,-1.5425,-1.4793,-1.4012,-1.3377,-1.3193,-1.3318,-1.3507,-1.4223,-1.4681,-1.5062,-1.5276,-1.546,-1.544,-1.5333,-1.5169,-1.4826,-1.4309,-1.39,-1.3617,-1.3187,-1.2881,-1.2881,-1.2784,-1.2699,-1.2528,-1.2174,-1.2009,-1.2112,-1.1946,-1.1693,-1.1527,-1.1354,-1.1267,-1.1267,-1.1267,-1.1267,-1.1267,-1.0992,-1.0727,-1.0727,-1.0472,-1.0299,-1.0212,-0.9951,-1.0038,-1.0391,-1.0916,-1.1089,-1.0824,-1.1089,-1.1198,-1.0767,-1.0969,-1.116,-1.0821,-1.0756,-1.0794,-1.0929,-1.0915,-1.1069,-1.1242,-1.1006,-1.107,-1.0995,-1.1009,-1.1131,-1.1101,-1.1235,-1.1443,-1.1667,-1.1827,-1.1899,-1.1922,-1.2056,-1.2209,-1.2428,-1.2628,-1.2748,-1.282,-1.29,-1.2826,-1.2826,-1.2673,-1.2673,-1.282,-1.2599,-1.2532,-1.2311,-1.2231,-1.2083,-1.2003,-1.1781,-1.1706,-1.7419,-1.7994,-1.7326,-1.6943,-1.6857,-1.6103,-1.5825,-1.5825,-1.5825,-1.5825,-1.5927,-1.6015,-1.6015,-1.6109,-1.6763,-1.7044,-1.7138,-1.7613,-1.7885,-1.7483,-1.6727,-1.6062,-1.5644,-1.5058,-1.449,-1.4017,-1.4111,-1.4352,-1.4741,-1.5376,-1.5875,-1.6418,-1.6662,-1.6742,-1.6557,-1.6441,-1.6118,-1.5539,-1.4919,-1.4462,-1.4348,-1.3748,-1.3351,-1.318,-1.2881,-1.2607,-1.2448,-1.202,-1.186,-1.1871,-1.1527,-1.1354,-1.1267,-1.1267,-1.1267,-1.1267,-1.1267,-1.1267,-1.1267,-1.1262,-1.1176,-1.1003,-1.0916,-1.0916,-1.0733,-1.0738,-1.0824,-1.1003,-1.1262,-1.1435,-1.1613,-1.1699,-1.1666,-1.1757,-1.1494,-1.1305,-1.1257,-1.1214,-1.1166,-1.1134,-1.0966,-1.0947,-1.1636,-1.13,-1.1223,-1.1235,-1.1286,-1.1338,-1.1554,-1.1611,-1.1976,-1.2154,-1.216,-1.227,-1.2264,-1.2602,-1.2758,-1.3006,-1.3134,-1.3181,-1.3089,-1.3135,-1.3008,-1.2994,-1.2966,-1.2966,-1.2966,-1.29,-1.2893,-1.282,-1.2673,-1.2452,-1.2378,-1.2224,-1.2077,-1.7893,-1.7994,-1.7326,-1.7037,-1.685,-1.6109,-1.5825,-1.5825,-1.5825,-1.6204,-1.6574,-1.6669,-1.6951,-1.752,-1.7707,-1.78,-1.7893,-1.8087,-1.8087,-1.8087,-1.7707,-1.677,-1.592,-1.5292,-1.4962,-1.4861,-1.5302,-1.5658,-1.5865,-1.6921,-1.7462,-1.7363,-1.752,-1.7316,-1.6595,-1.65,-1.602,-1.5315,-1.5082,-1.4665,-1.4352,-1.3931,-1.3703,-1.3591,-1.3065,-1.2717,-1.2534,-1.2032,-1.1613,-1.1521,-1.1348,-1.1267,-1.1267,-1.1267,-1.1267,-1.1267,-1.1267,-1.1267,-1.1267,-1.1267,-1.1267,-1.1267,-1.1176,-1.1176,-1.1176,-1.1176,-1.1267,-1.144,-1.1602,-1.1774,-1.1866,-1.1952,-1.2037,-1.2037,-1.1688,-1.1354,-1.1267,-1.1267,-1.1267,-1.1246,-1.1305,-1.1398,-1.1387,-1.1516,-1.1439,-1.1375,-1.1426,-1.1583,-1.1704,-1.1893,-1.2219,-1.2265,-1.232,-1.2487,-1.2696,-1.3114,-1.3396,-1.3604,-1.379,-1.3853,-1.376,-1.3563,-1.3411,-1.3219,-1.3207,-1.3185,-1.3411,-1.3484,-1.3404,-1.3397,-1.3542,-1.3462,-1.3185,-1.2966,-1.2673,-1.8458,-1.8904,-1.7598,-1.7232,-1.7326,-1.6298,-1.5825,-1.592,-1.6197,-1.6574,-1.7037,-1.7326,-1.7792,-1.835,-1.8542,-1.8719,-1.8812,-1.9004,-1.9004,-1.9004,-1.8727,-1.7699,-1.648,-1.5737,-1.5553,-1.5927,-1.6292,-1.6842,-1.749,-1.8249,-1.8417,-1.8466,-1.8518,-1.7947,-1.7108,-1.6777,-1.6316,-1.5684,-1.5322,-1.5053,-1.4754,-1.4493,-1.4184,-1.3911,-1.346,-1.301,-1.2564,-1.2037,-1.1613,-1.1348,-1.1267,-1.1267,-1.1267,-1.1267,-1.1267,-1.1267,-1.1267,-1.1267,-1.1267,-1.1267,-1.1267,-1.1354,-1.1354,-1.144,-1.1527,-1.1527,-1.1699,-1.178,-1.2032,-1.2112,-1.2118,-1.2203,-1.2375,-1.2375,-1.2112,-1.1688,-1.1348,-1.1267,-1.1267,-1.1354,-1.144,-1.1521,-1.1348,-1.144,-1.144,-1.1419,-1.1514,-1.1601,-1.1815,-1.2087,-1.2284,-1.2441,-1.2581,-1.2801,-1.3048,-1.3486,-1.3736,-1.3936,-1.4024,-1.417,-1.403,-1.3853,-1.3665,-1.34,-1.3425,-1.3477,-1.3775,-1.3992,-1.4057,-1.4122,-1.441,-1.4338,-1.3912,-1.3557,-1.3258,-1.8912,-1.9828,-1.7885,-1.7419,-1.752,-1.6487,-1.6015,-1.6109,-1.6669,-1.7131,-1.7505,-1.8071,-1.8711,-1.9072,-1.9455,-1.9629,-1.9985,-2.0011,-2.0011,-1.9737,-1.9188,-1.8164,-1.6951,-1.6298,-1.6298,-1.6763,-1.7044,-1.7885,-1.8635,-1.8912,-1.9104,-1.9147,-1.9155,-1.8527,-1.7602,-1.7274,-1.6864,-1.6108,-1.5638,-1.5444,-1.5292,-1.5066,-1.4744,-1.4376,-1.3824,-1.3194,-1.2514,-1.1946,-1.1607,-1.1348,-1.1267,-1.1267,-1.1267,-1.1267,-1.1267,-1.1267,-1.1267,-1.1267,-1.1267,-1.1267,-1.1354,-1.1435,-1.1613,-1.1785,-1.1785,-1.1871,-1.1952,-1.2037,-1.2454,-1.2448,-1.2534,-1.2613,-1.2705,-1.279,-1.2705,-1.2277,-1.1602,-1.1354,-1.1267,-1.1267,-1.1267,-1.1267,-1.1267,-1.1267,-1.1267,-1.1348,-1.1466,-1.1707,-1.1855,-1.2172,-1.2415,-1.2584,-1.2856,-1.3171,-1.3484,-1.3871,-1.4041,-1.4221,-1.4172,-1.4193,-1.3884,-1.3794,-1.3662,-1.3633,-1.3695,-1.3925,-1.4209,-1.4425,-1.4561,-1.4776,-1.4919,-1.4768,-1.4482,-1.4201,-1.3912,-1.845,-1.7684,-1.78,-1.7239,-1.6487,-1.6581,-1.6763,-1.6763,-1.6943,-1.787,-1.898,-1.9438,-2.0085,-2.0997,-2.0637,-2.0718,-2.0628,-2.0374,-2.0011,-1.9371,-1.8635,-1.7885,-1.7138,-1.6763,-1.6857,-1.7138,-1.7606,-1.8357,-1.9012,-1.9279,-1.9371,-1.9196,-1.8827,-1.8172,-1.7347,-1.7066,-1.6683,-1.6015,-1.5752,-1.5712,-1.5658,-1.5451,-1.5257,-1.4942,-1.4129,-1.3082,-1.2267,-1.1952,-1.1871,-1.1613,-1.1435,-1.1354,-1.1267,-1.1267,-1.1267,-1.1267,-1.1267,-1.1267,-1.1267,-1.1348,-1.1435,-1.1602,-1.178,-1.1877,-1.2123,-1.2043,-1.2123,-1.2289,-1.2454,-1.2705,-1.296,-1.3058,-1.3143,-1.3137,-1.296,-1.2625,-1.2123,-1.1613,-1.1354,-1.1267,-1.1267,-1.1267,-1.1267,-1.1267,-1.1267,-1.1348,-1.1527,-1.1785,-1.1952,-1.2209,-1.246,-1.2619,-1.2881,-1.3137,-1.3372,-1.3743,-1.3908,-1.4068,-1.4058,-1.4048,-1.383,-1.398,-1.4001,-1.4021,-1.4079,-1.4334,-1.464,-1.4927,-1.5062,-1.5213,-1.5371,-1.5254,-1.5056,-1.4816,-1.4632,-1.8257,-1.752,-1.7145,-1.6958,-1.6864,-1.6951,-1.7232,-1.7512,-1.7885,-1.8619,-1.9446,-1.9911,-2.0546,-2.1275,-2.0916,-2.0727,-2.0727,-2.0192,-1.9554,-1.9096,-1.845,-1.7707,-1.7138,-1.7044,-1.7138,-1.7512,-1.7893,-1.845,-1.9096,-1.9371,-1.9279,-1.8727,-1.8357,-1.79,-1.7066,-1.6878,-1.6494,-1.5927,-1.5825,-1.5825,-1.5785,-1.5691,-1.5312,-1.4982,-1.4153,-1.3312,-1.2774,-1.2452,-1.2319,-1.2018,-1.1679,-1.144,-1.1348,-1.1267,-1.1267,-1.1267,-1.1267,-1.1267,-1.1267,-1.1435,-1.1521,-1.178,-1.1952,-1.2118,-1.2289,-1.2289,-1.2375,-1.2534,-1.2875,-1.3222,-1.3483,-1.3404,-1.3404,-1.3313,-1.3215,-1.296,-1.2631,-1.1866,-1.1267,-1.1267,-1.1267,-1.1267,-1.1267,-1.1267,-1.1267,-1.1354,-1.1521,-1.1785,-1.1957,-1.2209,-1.2375,-1.2625,-1.2796,-1.3052,-1.3288,-1.3471,-1.3598,-1.3778,-1.3754,-1.3762,-1.3613,-1.4014,-1.4412,-1.4396,-1.4372,-1.4785,-1.5041,-1.527,-1.5426,-1.5505,-1.561,-1.5677,-1.5576,-1.5273,-1.521,-1.7994,-1.78,-1.6676,-1.6864,-1.78,-1.7505,-1.7699,-1.8357,-1.892,-1.9271,-1.9546,-2.0192,-2.0736,-2.0997,-2.0736,-2.0645,-2.0275,-1.9637,-1.8912,-1.8535,-1.8079,-1.7426,-1.6857,-1.6763,-1.7232,-1.7994,-1.8087,-1.8542,-1.9096,-1.9279,-1.8812,-1.8079,-1.7893,-1.734,-1.6878,-1.6595,-1.6305,-1.5832,-1.573,-1.5825,-1.5825,-1.5704,-1.5376,-1.4644,-1.4276,-1.3804,-1.3333,-1.3016,-1.2738,-1.2543,-1.2057,-1.169,-1.1489,-1.1273,-1.1267,-1.1267,-1.1267,-1.1354,-1.144,-1.1613,-1.1699,-1.1785,-1.2209,-1.2369,-1.2454,-1.2534,-1.2619,-1.2881,-1.3137,-1.3652,-1.4004,-1.3835,-1.3659,-1.3568,-1.3568,-1.3392,-1.3058,-1.2203,-1.1952,-1.1429,-1.1348,-1.1267,-1.1267,-1.1267,-1.1267,-1.1354,-1.1527,-1.1785,-1.1957,-1.2123,-1.2375,-1.254,-1.2796,-1.294,-1.3155,-1.3269,-1.3394,-1.3559,-1.3541,-1.3743,-1.373,-1.4337,-1.481,-1.4655,-1.4744,-1.5028,-1.525,-1.5325,-1.5426,-1.5655,-1.5769,-1.5694,-1.5673,-1.5732,-1.5811,-1.7707,-1.7232,-1.7606,-1.752,-1.7419,-1.835,-1.8819,-1.9004,-1.9188,-1.9828,-2.0637,-2.0817,-2.1096,-2.1275,-2.1087,-2.0456,-1.9579,-1.869,-1.8016,-1.7628,-1.7246,-1.6763,-1.6298,-1.6204,-1.6763,-1.78,-1.8087,-1.8357,-1.8819,-1.8812,-1.8164,-1.7512,-1.7052,-1.6581,-1.6305,-1.6123,-1.6028,-1.5737,-1.573,-1.5825,-1.5825,-1.5622,-1.5246,-1.4627,-1.4347,-1.4044,-1.3683,-1.3495,-1.3266,-1.3068,-1.2578,-1.2198,-1.1937,-1.1538,-1.1359,-1.1267,-1.1354,-1.144,-1.1613,-1.1705,-1.1952,-1.2203,-1.246,-1.2631,-1.2625,-1.2705,-1.2705,-1.279,-1.3137,-1.3561,-1.3737,-1.3919,-1.4004,-1.3997,-1.3913,-1.3737,-1.3483,-1.3313,-1.2973,-1.2283,-1.1774,-1.1267,-1.1267,-1.1267,-1.1267,-1.1354,-1.1435,-1.1693,-1.1957,-1.2123,-1.2203,-1.2454,-1.2705,-1.2806,-1.2997,-1.3096,-1.3302,-1.3476,-1.3592,-1.4176,-1.4314,-1.4894,-1.5145,-1.5031,-1.5057,-1.5209,-1.5308,-1.5312,-1.5229,-1.5325,-1.5438,-1.5648,-1.5905,-1.6091,-1.6555,-1.8265,-1.7613,-1.7986,-1.8172,-1.8257,-1.8904,-1.9463,-1.9737,-1.9828,-2.0102,-2.0464,-2.0645,-2.0736,-2.0736,-2.0365,-1.9537,-1.8847,-1.804,-1.7567,-1.7165,-1.6658,-1.6204,-1.5825,-1.5825,-1.648,-1.7232,-1.7512,-1.7893,-1.855,-1.8071,-1.7512,-1.6871,-1.6494,-1.6211,-1.5927,-1.5933,-1.5832,-1.5547,-1.573,-1.5825,-1.5825,-1.5635,-1.5253,-1.5006,-1.4779,-1.4622,-1.4322,-1.4044,-1.3817,-1.3457,-1.2974,-1.2543,-1.217,-1.1854,-1.1435,-1.1348,-1.1435,-1.1527,-1.1785,-1.1957,-1.2198,-1.2363,-1.2625,-1.2711,-1.2705,-1.2705,-1.2705,-1.279,-1.313,-1.3476,-1.3652,-1.3913,-1.4088,-1.4088,-1.4088,-1.4004,-1.3828,-1.4004,-1.3568,-1.2875,-1.2283,-1.1774,-1.1267,-1.1267,-1.1267,-1.1354,-1.1435,-1.1693,-1.1952,-1.1952,-1.2037,-1.2454,-1.2693,-1.2668,-1.2881,-1.3077,-1.3341,-1.3535,-1.3841,-1.4337,-1.4901,-1.5394,-1.5532,-1.5499,-1.5483,-1.5423,-1.5331,-1.5386,-1.5121,-1.5049,-1.534,-1.5732,-1.6144,-1.6553,-1.6897,-1.8819,-1.8365,-1.8365,-1.8643,-1.9188,-1.9371,-1.9737,-2.0201,-2.0292,-2.0292,-2.0292,-2.0292,-2.0201,-1.9928,-1.922,-1.8528,-1.8162,-1.744,-1.7117,-1.6938,-1.6334,-1.5832,-1.5825,-1.592,-1.6298,-1.6951,-1.6763,-1.7138,-1.7707,-1.7512,-1.6864,-1.64,-1.6123,-1.5933,-1.5743,-1.5737,-1.5642,-1.5547,-1.573,-1.5825,-1.573,-1.5635,-1.5452,-1.5452,-1.5172,-1.5064,-1.4899,-1.4659,-1.4322,-1.397,-1.3399,-1.2916,-1.2645,-1.218,-1.1791,-1.1607,-1.1699,-1.1699,-1.2037,-1.2289,-1.2534,-1.2534,-1.2705,-1.279,-1.279,-1.279,-1.2875,-1.2881,-1.3307,-1.3561,-1.3737,-1.3913,-1.4082,-1.4088,-1.4088,-1.4088,-1.4088,-1.4088,-1.3913,-1.3307,-1.2705,-1.2192,-1.1688,-1.144,-1.144,-1.1521,-1.1607,-1.186,-1.2037,-1.1785,-1.1866,-1.2454,-1.2674,-1.2523,-1.2734,-1.3115,-1.3406,-1.3831,-1.4345,-1.4887,-1.5401,-1.5899,-1.5843,-1.5836,-1.574,-1.5745,-1.5533,-1.5397,-1.5339,-1.5346,-1.5543,-1.5708,-1.6038,-1.6587,-1.7076,-1.9096,-1.9096,-1.9104,-1.9096,-1.9279,-1.9928,-2.0201,-2.0292,-2.0292,-2.0292,-2.0201,-2.0201,-1.9928,-1.9128,-1.7908,-1.7523,-1.7184,-1.6649,-1.6381,-1.649,-1.6068,-1.5825,-1.5825,-1.5825,-1.6204,-1.6669,-1.6298,-1.648,-1.6951,-1.7044,-1.6574,-1.6015,-1.5832,-1.5642,-1.5458,-1.5642,-1.5553,-1.5363,-1.5642,-1.573,-1.5642,-1.554,-1.5452,-1.5267,-1.5172,-1.5178,-1.5178,-1.4994,-1.4804,-1.4446,-1.3987,-1.3619,-1.3291,-1.285,-1.2649,-1.2369,-1.2118,-1.1952,-1.2478,-1.2753,-1.2961,-1.2887,-1.304,-1.3064,-1.2875,-1.296,-1.3137,-1.3149,-1.3659,-1.3822,-1.3737,-1.3906,-1.4082,-1.4088,-1.4088,-1.4088,-1.4088,-1.4088,-1.3997,-1.3652,-1.3052,-1.2534,-1.2112,-1.1866,-1.1618,-1.1693,-1.1774,-1.2032,-1.2118,-1.1952,-1.1952,-1.2448,-1.2705,-1.2553,-1.2705,-1.3093,-1.3587,-1.4115,-1.4671,-1.5249,-1.5658,-1.6072,-1.6237,-1.6133,-1.6053,-1.5827,-1.547,-1.5411,-1.5547,-1.5687,-1.5787,-1.5729,-1.5782,-1.6404,-1.7147,-1.9837,-1.9853,-2.0063,-2.0029,-1.9837,-2.0201,-2.0292,-2.0292,-2.0292,-2.011,-1.9745,-1.9654,-1.9092,-1.8183,-1.7399,-1.7105,-1.6876,-1.638,-1.6139,-1.6179,-1.5992,-1.5832,-1.5825,-1.5825,-1.6109,-1.6109,-1.6015,-1.592,-1.6298,-1.6292,-1.6109,-1.592,-1.5825,-1.5642,-1.5356,-1.5642,-1.5547,-1.5547,-1.5642,-1.5737,-1.5642,-1.5635,-1.5642,-1.5458,-1.5452,-1.5458,-1.5458,-1.5356,-1.5119,-1.4775,-1.4368,-1.4013,-1.3674,-1.3385,-1.33,-1.3483,-1.2887,-1.2789,-1.3262,-1.3194,-1.3256,-1.3479,-1.3479,-1.3224,-1.2911,-1.2887,-1.3058,-1.2973,-1.3398,-1.3568,-1.3652,-1.3913,-1.3997,-1.4088,-1.4088,-1.4088,-1.4088,-1.4088,-1.3997,-1.3659,-1.3398,-1.2966,-1.254,-1.2203,-1.1957,-1.1866,-1.2032,-1.2198,-1.2369,-1.2369,-1.2369,-1.2619,-1.2705,-1.2607,-1.2857,-1.313,-1.3802,-1.4357,-1.5018,-1.5492,-1.5831,-1.6079,-1.6162,-1.6252,-1.6098,-1.5831,-1.5413,-1.5498,-1.5732,-1.5842,-1.6007,-1.6008,-1.6035,-1.6606,-1.7183,-2.0377,-2.0326,-2.0617,-2.0566,-2.03,-2.0292,-2.0292,-2.0292,-2.0292,-1.992,-1.9188,-1.8819,-1.8115,-1.7428,-1.7088,-1.6718,-1.6639,-1.6293,-1.6239,-1.6146,-1.5999,-1.5845,-1.5825,-1.5825,-1.5825,-1.5825,-1.5825,-1.5825,-1.5825,-1.5825,-1.592,-1.5825,-1.5825,-1.5635,-1.554,-1.5642,-1.5737,-1.5642,-1.573,-1.5825,-1.5825,-1.5825,-1.5825,-1.5825,-1.5825,-1.5825,-1.5832,-1.5642,-1.5402,-1.506,-1.4864,-1.4495,-1.4044,-1.3905,-1.3822,-1.3867,-1.3398,-1.3484,-1.3741,-1.3774,-1.3717,-1.3808,-1.3787,-1.3272,-1.2922,-1.2893,-1.2832,-1.2808,-1.3398,-1.3483,-1.3476,-1.3828,-1.3997,-1.4088,-1.4088,-1.4088,-1.4088,-1.4088,-1.4088,-1.3913,-1.3574,-1.3313,-1.2973,-1.2552,-1.2381,-1.2203,-1.2283,-1.2448,-1.2448,-1.254,-1.2619,-1.2705,-1.2705,-1.2705,-1.2881,-1.3222,-1.3906,-1.4496,-1.5159,-1.5409,-1.5575,-1.5748,-1.5824,-1.5914,-1.5922,-1.5202,-1.4388,-1.5102,-1.5802,-1.5656,-1.5707,-1.6126,-1.641,-1.6839,-1.6954,-2.0626,-2.0292,-2.0326,-2.0335,-2.0292,-2.0292,-2.0292,-2.0292,-2.0292,-1.9828,-1.8996,-1.7885,-1.7254,-1.6921,-1.6422,-1.6162,-1.6306,-1.5999,-1.6052,-1.6086,-1.5992,-1.5852,-1.5825,-1.5825,-1.5825,-1.5825,-1.5825,-1.5825,-1.5825,-1.5825,-1.5825,-1.5825,-1.5825,-1.5642,-1.5642,-1.573,-1.5832,-1.573,-1.5825,-1.5825,-1.5825,-1.5825,-1.5825,-1.5825,-1.5825,-1.5825,-1.5825,-1.573,-1.5597,-1.5325,-1.5239,-1.4969,-1.452,-1.4328,-1.4269,-1.4123,-1.39,-1.403,-1.4291,-1.4153,-1.392,-1.3641,-1.3489,-1.3414,-1.3153,-1.3536,-1.3324,-1.2905,-1.3538,-1.3717,-1.3698,-1.3743,-1.4088,-1.4088,-1.4088,-1.4088,-1.4088,-1.4088,-1.4088,-1.4004,-1.3828,-1.3483,-1.3228,-1.2894,-1.2637,-1.2454,-1.2283,-1.2448,-1.2454,-1.2454,-1.2534,-1.2619,-1.2705,-1.2705,-1.279,-1.3307,-1.399,-1.4412,-1.4908,-1.4992,-1.4992,-1.5159,-1.5492,-1.5416,-1.5249,-1.4314,-1.3717,-1.4552,-1.5189,-1.5249,-1.5423,-1.5901,-1.6285,-1.6596,-1.642,-2.042,-2.0292,-2.0292,-2.0292,-2.0292,-2.0292,-2.0292,-2.0292,-2.0292,-1.9654,-1.845,-1.7512,-1.6869,-1.6477,-1.6089,-1.5992,-1.6199,-1.5965,-1.5952,-1.5932,-1.5872,-1.5832,-1.5825,-1.5825,-1.5825,-1.5825,-1.5825,-1.5825,-1.5825,-1.5825,-1.5825,-1.5825,-1.5825,-1.5737,-1.5737,-1.573,-1.5825,-1.5825,-1.5825,-1.5825,-1.5825,-1.5825,-1.5825,-1.5825,-1.5825,-1.5825,-1.5825,-1.5825,-1.5651,-1.5524,-1.5571,-1.5271,-1.4883,-1.4723,-1.4636,-1.4561,-1.4269,-1.4475,-1.4658,-1.4513,-1.4179,-1.4266,-1.402,-1.3707,-1.355,-1.364,-1.3613,-1.3572,-1.3592,-1.3751,-1.3998,-1.4031,-1.4088,-1.4088,-1.4088,-1.4088,-1.4088,-1.4088,-1.4088,-1.4088,-1.3828,-1.3568,-1.3313,-1.3143,-1.2887,-1.2625,-1.254,-1.2454,-1.2369,-1.2454,-1.2619,-1.2705,-1.2705,-1.2881,-1.2966,-1.3483,-1.4075,-1.4412,-1.4741,-1.4657,-1.4657,-1.4741,-1.4908,-1.4831,-1.4573,-1.3893,-1.3724,-1.4243,-1.4664,-1.4853,-1.5264,-1.5748,-1.6095,-1.6228,-1.5858,-2.0192,-2.0011,-2.0201,-2.0292,-2.0292,-2.0292,-2.0292,-2.0292,-2.0292,-1.9654,-1.8357,-1.7621,-1.6964,-1.66,-1.6327,-1.6007,-1.6128,-1.5925,-1.5852,-1.5838,-1.5838,-1.5825,-1.5825,-1.5825,-1.5825,-1.5825,-1.5825,-1.5825,-1.5825,-1.5825,-1.5832,-1.5927,-1.5927,-1.5927,-1.5832,-1.5825,-1.5825,-1.5825,-1.5825,-1.5825,-1.5825,-1.5825,-1.5825,-1.5825,-1.5825,-1.5825,-1.5825,-1.5818,-1.5745,-1.5665,-1.5638,-1.5531,-1.5231,-1.5053,-1.4898,-1.4798,-1.4771,-1.479,-1.492,-1.476,-1.4545,-1.4551,-1.4331,-1.4127,-1.3882,-1.3731,-1.3695,-1.382,-1.3843,-1.3894,-1.4174,-1.4183,-1.4102,-1.4088,-1.4088,-1.4088,-1.4088,-1.4088,-1.4088,-1.4088,-1.3913,-1.3737,-1.3483,-1.3228,-1.2966,-1.2796,-1.2619,-1.2454,-1.2209,-1.2375,-1.2711,-1.2796,-1.279,-1.2966,-1.3143,-1.3568,-1.3899,-1.4159,-1.4412,-1.4412,-1.4496,-1.4489,-1.4489,-1.4412,-1.4075,-1.3555,-1.347,-1.3646,-1.4153,-1.472,-1.513,-1.5688,-1.5674,-1.574,-1.5119,-1.992,-1.9371,-2.0011,-2.0292,-2.0292,-2.0292,-2.0292,-2.0292,-2.0292,-1.9828,-1.9004,-1.8357,-1.7707,-1.7182,-1.6965,-1.6623,-1.6164,-1.5947,-1.5825,-1.5832,-1.6015,-1.592,-1.592,-1.592,-1.6109,-1.5825,-1.592,-1.6015,-1.5825,-1.5825,-1.5933,-1.6218,-1.6211,-1.6123,-1.5825,-1.5825,-1.5825,-1.5825,-1.5825,-1.5825,-1.5825,-1.5825,-1.5825,-1.5825,-1.5825,-1.5825,-1.5825,-1.5825,-1.5778,-1.5772,-1.5772,-1.5658,-1.5424,-1.5311,-1.515,-1.4867,-1.495,-1.5194,-1.5674,-1.5263,-1.5,-1.486,-1.4696,-1.4444,-1.4078,-1.3975,-1.4025,-1.427,-1.409,-1.4059,-1.4141,-1.4196,-1.4162,-1.4188,-1.4208,-1.4162,-1.4168,-1.4088,-1.4088,-1.4088,-1.4082,-1.3997,-1.3652,-1.3392,-1.3052,-1.2875,-1.2705,-1.254,-1.2295,-1.2466,-1.2881,-1.296,-1.296,-1.3052,-1.3228,-1.3476,-1.373,-1.399,-1.4166,-1.4159,-1.4075,-1.3906,-1.3906,-1.3997,-1.3561,-1.3045,-1.2875,-1.279,-1.3555,-1.4237,-1.4985,-1.547,-1.5394,-1.5054,-1.4475,-2.0201,-1.992,-2.0201,-2.0292,-2.0292,-2.0292,-2.0292,-2.0292,-2.0292,-1.9928,-1.9279,-1.8912,-1.845,-1.7893,-1.7606,-1.7232,-1.6669,-1.6574,-1.648,-1.5927,-1.6298,-1.6109,-1.6204,-1.6676,-1.6763,-1.6204,-1.6204,-1.6197,-1.5825,-1.6015,-1.6211,-1.64,-1.6777,-1.6683,-1.64,-1.6211,-1.6021,-1.6021,-1.5927,-1.5825,-1.5825,-1.5825,-1.5825,-1.5825,-1.5825,-1.5825,-1.5825,-1.5832,-1.5825,-1.5825,-1.5825,-1.5758,-1.5605,-1.5518,-1.5311,-1.5119,-1.5224,-1.5232,-1.5498,-1.5406,-1.5337,-1.5166,-1.4867,-1.474,-1.4659,-1.4551,-1.4672,-1.4778,-1.4679,-1.4728,-1.4942,-1.4362,-1.4249,-1.4516,-1.4543,-1.4402,-1.4329,-1.4168,-1.4088,-1.4088,-1.4082,-1.3997,-1.3737,-1.3561,-1.3307,-1.3137,-1.3045,-1.2966,-1.2802,-1.2887,-1.3052,-1.313,-1.3215,-1.3222,-1.3398,-1.3646,-1.3822,-1.3997,-1.3997,-1.3997,-1.3743,-1.3483,-1.3313,-1.3392,-1.296,-1.2619,-1.2619,-1.279,-1.3137,-1.3808,-1.4314,-1.4643,-1.4552,-1.4139,-1.3639,-2.011,-1.992,-2.0201,-2.011,-2.0019,-2.0201,-2.0292,-2.0292,-2.0292,-2.0019,-1.9646,-1.9554,-1.9188,-1.8542,-1.8179,-1.7707,-1.7037,-1.6669,-1.6763,-1.6204,-1.6669,-1.6763,-1.7052,-1.7434,-1.7145,-1.6676,-1.6574,-1.6662,-1.6292,-1.6393,-1.6777,-1.7145,-1.7527,-1.7426,-1.7153,-1.6784,-1.6414,-1.6224,-1.6028,-1.5927,-1.5825,-1.5825,-1.5832,-1.5927,-1.5927,-1.5832,-1.5832,-1.5832,-1.5825,-1.5825,-1.5825,-1.5825,-1.5732,-1.5631,-1.5484,-1.5504,-1.5524,-1.5498,-1.5563,-1.5622,-1.5635,-1.554,-1.507,-1.4879,-1.5083,-1.4962,-1.5146,-1.5305,-1.5285,-1.5324,-1.5219,-1.4589,-1.4603,-1.487,-1.4957,-1.4816,-1.4442,-1.4282,-1.4088,-1.4088,-1.4108,-1.3932,-1.3867,-1.373,-1.3476,-1.3392,-1.3307,-1.3313,-1.3319,-1.3398,-1.3398,-1.3392,-1.347,-1.3561,-1.3652,-1.3828,-1.3997,-1.4088,-1.3997,-1.3828,-1.3568,-1.3307,-1.3052,-1.279,-1.2619,-1.2619,-1.2619,-1.2796,-1.3052,-1.3137,-1.3307,-1.347,-1.3548,-1.33,-1.2966,-1.9928,-1.9371,-2.0019,-1.992,-1.9463,-2.0011,-2.0292,-2.0292,-2.0292,-2.0283,-2.0292,-2.0192,-1.9737,-1.9096,-1.845,-1.7792,-1.7044,-1.6393,-1.6386,-1.6763,-1.7044,-1.7326,-1.7721,-1.8132,-1.7759,-1.7347,-1.7174,-1.7435,-1.708,-1.7421,-1.7792,-1.8077,-1.8543,-1.8287,-1.7968,-1.75,-1.7022,-1.6718,-1.6407,-1.6305,-1.6116,-1.5927,-1.6021,-1.6116,-1.6021,-1.5933,-1.6028,-1.5933,-1.5832,-1.5825,-1.5825,-1.5825,-1.5818,-1.5825,-1.5825,-1.5818,-1.5785,-1.571,-1.5724,-1.5737,-1.5737,-1.5642,-1.5153,-1.5064,-1.5077,-1.528,-1.5363,-1.5399,-1.5416,-1.5384,-1.5245,-1.5184,-1.5044,-1.5251,-1.5438,-1.513,-1.4663,-1.4389,-1.4162,-1.4102,-1.4148,-1.4097,-1.4196,-1.4091,-1.4104,-1.4038,-1.3946,-1.3776,-1.3776,-1.3828,-1.3828,-1.3652,-1.3737,-1.3822,-1.3997,-1.3997,-1.4088,-1.4088,-1.3913,-1.3652,-1.3392,-1.3137,-1.3052,-1.2875,-1.2619,-1.2619,-1.2711,-1.2711,-1.2625,-1.2711,-1.2802,-1.2796,-1.3045,-1.2875,-1.254,-2.0201,-2.0019,-2.0201,-2.0201,-2.0011,-2.0201,-2.0292,-2.0292,-2.0292,-2.0292,-2.0292,-2.0292,-1.9928,-1.9188,-1.9004,-1.8071,-1.7326,-1.6763,-1.6386,-1.6669,-1.7232,-1.7419,-1.8047,-1.8808,-1.852,-1.8115,-1.7958,-1.8252,-1.7904,-1.8303,-1.8972,-1.9359,-1.9533,-1.9217,-1.8785,-1.841,-1.7849,-1.7391,-1.7059,-1.6777,-1.6595,-1.6407,-1.6501,-1.64,-1.6021,-1.6028,-1.6028,-1.5927,-1.5825,-1.5825,-1.5825,-1.5825,-1.5825,-1.5825,-1.5825,-1.5825,-1.5825,-1.5737,-1.5642,-1.5642,-1.5642,-1.5635,-1.5343,-1.5439,-1.5452,-1.5553,-1.5553,-1.5582,-1.5543,-1.5558,-1.5545,-1.5411,-1.5384,-1.5531,-1.5611,-1.5311,-1.4883,-1.4663,-1.4436,-1.4408,-1.4448,-1.4642,-1.4636,-1.4778,-1.4778,-1.4642,-1.4514,-1.4321,-1.422,-1.4186,-1.4166,-1.399,-1.399,-1.4159,-1.4082,-1.4082,-1.4082,-1.4088,-1.3828,-1.3652,-1.3476,-1.3307,-1.3137,-1.3052,-1.2966,-1.2881,-1.2966,-1.2881,-1.2711,-1.254,-1.254,-1.2454,-1.2454,-1.2369,-1.2283,-2.0382,-2.0555,-2.0555,-2.0555,-2.0555,-2.0555,-2.0473,-2.0292,-2.0292,-2.0292,-2.0292,-2.0292,-2.0019,-1.9554,-1.9004,-1.8257,-1.7512,-1.6669,-1.6386,-1.6756,-1.7232,-1.7699,-1.8543,-1.9196,-1.9047,-1.8761,-1.8722,-1.902,-1.882,-1.9646,-2.0471,-2.026,-2.0504,-1.9906,-1.9365,-1.8972,-1.8699,-1.8148,-1.7714,-1.7434,-1.7153,-1.6878,-1.6784,-1.669,-1.6211,-1.6116,-1.6123,-1.5927,-1.5825,-1.5825,-1.5825,-1.5825,-1.5825,-1.5825,-1.5825,-1.5825,-1.5825,-1.573,-1.5635,-1.5642,-1.5635,-1.5629,-1.5534,-1.5635,-1.5635,-1.5642,-1.5737,-1.5717,-1.5724,-1.5792,-1.5671,-1.5585,-1.5678,-1.5785,-1.5611,-1.5431,-1.5204,-1.499,-1.4905,-1.4838,-1.4967,-1.5082,-1.5253,-1.539,-1.5383,-1.5033,-1.484,-1.4644,-1.4436,-1.4334,-1.4328,-1.4243,-1.4328,-1.4328,-1.4243,-1.4159,-1.4159,-1.4082,-1.3743,-1.3568,-1.3476,-1.3476,-1.3476,-1.3398,-1.3313,-1.3313,-1.3228,-1.3058,-1.2887,-1.2802,-1.2711,-1.2887,-1.2717,-1.2289,-1.2203,-2.0654,-2.0997,-2.0997,-2.0907,-2.0907,-2.0907,-2.0637,-2.0292,-2.0292,-2.0292,-2.0292,-2.0292,-2.0201,-1.9737,-1.8912,-1.8265,-1.752,-1.6669,-1.6386,-1.6943,-1.7037,-1.7606,-1.845,-1.9128,-1.9209,-1.9252,-1.9576,-2.003,-2.0194,-2.082,-2.1371,-2.1176,-2.0929,-2.045,-1.9914,-1.9515,-1.9223,-1.8722,-1.8241,-1.7807,-1.7434,-1.716,-1.6979,-1.6885,-1.6501,-1.6123,-1.6123,-1.6028,-1.5825,-1.5825,-1.5825,-1.5825,-1.5825,-1.5825,-1.5825,-1.5825,-1.5825,-1.5825,-1.573,-1.573,-1.573,-1.573,-1.5825,-1.573,-1.573,-1.573,-1.5832,-1.5832,-1.5825,-1.5825,-1.5732,-1.5705,-1.5772,-1.5745,-1.5605,-1.5431,-1.5244,-1.5248,-1.5463,-1.5431,-1.5514,-1.5715,-1.5777,-1.591,-1.5917,-1.5518,-1.5172,-1.4981,-1.4739,-1.4517,-1.4496,-1.4587,-1.4496,-1.4496,-1.4489,-1.4405,-1.4321,-1.4153,-1.3906,-1.3822,-1.3893,-1.3899,-1.3899,-1.3815,-1.3815,-1.3568,-1.3483,-1.3313,-1.3228,-1.3313,-1.3313,-1.3483,-1.3228,-1.2631,-1.2289,-2.1463,-2.1463,-2.1177,-2.0817,-2.0464,-2.0464,-2.0382,-2.0292,-2.0292,-2.0292,-2.0292,-2.0292,-2.0019,-1.9554,-1.9096,-1.845,-1.7419,-1.7044,-1.648,-1.6669,-1.6857,-1.7606,-1.8419,-1.9103,-1.9281,-1.9726,-2.0254,-2.1111,-2.1303,-2.1837,-2.2107,-2.1812,-2.1603,-2.1145,-2.0504,-2.0107,-1.9716,-1.9185,-1.8715,-1.8248,-1.786,-1.7448,-1.7153,-1.6878,-1.6407,-1.6123,-1.6028,-1.5927,-1.5825,-1.5825,-1.5825,-1.5825,-1.5825,-1.5825,-1.5825,-1.5825,-1.5825,-1.5825,-1.5825,-1.5825,-1.5825,-1.5825,-1.5825,-1.5825,-1.5825,-1.5825,-1.5825,-1.5825,-1.5825,-1.5825,-1.5825,-1.5825,-1.5812,-1.5712,-1.5618,-1.5358,-1.5284,-1.5575,-1.5975,-1.6047,-1.619,-1.6317,-1.638,-1.6451,-1.6465,-1.6252,-1.596,-1.5616,-1.5106,-1.4804,-1.486,-1.486,-1.4748,-1.4657,-1.4657,-1.4573,-1.4573,-1.4489,-1.4321,-1.4314,-1.4314,-1.423,-1.4237,-1.4321,-1.4237,-1.4075,-1.3822,-1.3568,-1.3568,-1.3737,-1.3822,-1.3906,-1.3737,-1.3222,-1.2796,-2.258,-2.2422,-2.1891,-2.1365,-2.0916,-2.0736,-2.0473,-2.0292,-2.0292,-2.0292,-2.0292,-2.0283,-2.0011,-1.9554,-1.9371,-1.8912,-1.7878,-1.7606,-1.7419,-1.7145,-1.7138,-1.7885,-1.8567,-1.9121,-1.9629,-2.0094,-2.1145,-2.193,-2.2064,-2.2312,-2.2381,-2.2244,-2.2121,-2.1668,-2.0937,-2.0555,-2.0215,-1.9557,-1.9161,-1.8597,-1.8161,-1.771,-1.716,-1.6777,-1.6407,-1.6028,-1.5927,-1.5825,-1.5825,-1.5825,-1.5825,-1.5825,-1.5825,-1.5825,-1.5825,-1.5825,-1.5825,-1.5825,-1.5825,-1.5825,-1.5825,-1.5825,-1.5825,-1.5825,-1.5825,-1.5825,-1.5825,-1.5825,-1.5825,-1.5825,-1.592,-1.592,-1.6021,-1.5961,-1.5826,-1.5638,-1.5765,-1.6185,-1.6434,-1.6528,-1.6593,-1.6786,-1.6922,-1.6922,-1.6907,-1.6591,-1.6353,-1.6145,-1.5626,-1.512,-1.5175,-1.5223,-1.5125,-1.4922,-1.4915,-1.4831,-1.4831,-1.4741,-1.4817,-1.4734,-1.465,-1.4573,-1.4573,-1.4657,-1.4573,-1.4405,-1.4153,-1.3899,-1.3984,-1.4237,-1.4237,-1.4237,-1.3984,-1.3899,-1.3561,-2.378,-2.3464,-2.2775,-2.2167,-2.1642,-2.1177,-2.0736,-2.0374,-2.0292,-2.0292,-2.0292,-2.0292,-2.0292,-2.0011,-1.9737,-1.9371,-1.9004,-1.845,-1.8172,-1.7986,-1.7994,-1.8435,-1.8808,-1.9199,-1.9972,-2.0699,-2.1493,-2.1953,-2.215,-2.2398,-2.2619,-2.2466,-2.2235,-2.1812,-2.1273,-2.0815,-2.0426,-1.9758,-1.9208,-1.8621,-1.8183,-1.7799,-1.7203,-1.6683,-1.6312,-1.6028,-1.5832,-1.5825,-1.5825,-1.5825,-1.5825,-1.5825,-1.5825,-1.5825,-1.5825,-1.5825,-1.5825,-1.5825,-1.5825,-1.5825,-1.5825,-1.5825,-1.5825,-1.5825,-1.5825,-1.5825,-1.5825,-1.5825,-1.5825,-1.5825,-1.592,-1.6109,-1.6218,-1.6218,-1.6001,-1.5886,-1.6358,-1.664,-1.6655,-1.6763,-1.6951,-1.7225,-1.7225,-1.7232,-1.7115,-1.6982,-1.6784,-1.6482,-1.6199,-1.5684,-1.543,-1.5562,-1.5609,-1.5405,-1.5264,-1.5082,-1.5082,-1.5075,-1.5068,-1.5075,-1.4992,-1.4999,-1.4915,-1.4999,-1.4915,-1.4748,-1.4573,-1.4398,-1.4566,-1.4657,-1.4657,-1.4573,-1.4482,-1.4314,-1.4314,-2.4413,-2.3454,-2.3377,-2.2501,-2.1266,-2.0988,-2.0736,-2.0382,-2.0292,-2.0292,-2.0292,-2.0292,-2.0292,-2.0292,-2.0201,-1.992,-1.9371,-1.9004,-1.8542,-1.8172,-1.8357,-1.8885,-1.9333,-1.9735,-2.0662,-2.1362,-2.1691,-2.162,-2.2087,-2.2357,-2.2544,-2.2518,-2.2518,-2.2146,-2.157,-2.1172,-2.072,-1.9937,-1.9236,-1.8611,-1.7698,-1.7311,-1.6834,-1.6407,-1.6021,-1.5927,-1.5825,-1.5825,-1.5825,-1.5825,-1.5825,-1.5825,-1.5825,-1.5825,-1.5825,-1.5825,-1.5825,-1.5825,-1.5825,-1.5825,-1.5825,-1.5825,-1.5825,-1.5825,-1.5825,-1.5825,-1.5825,-1.5825,-1.5825,-1.5825,-1.592,-1.6298,-1.6494,-1.6501,-1.6298,-1.6473,-1.6756,-1.6567,-1.6386,-1.6676,-1.7059,-1.7239,-1.7326,-1.7333,-1.7326,-1.7128,-1.6982,-1.6791,-1.674,-1.6265,-1.5752,-1.5789,-1.5898,-1.5831,-1.5665,-1.5423,-1.5333,-1.5409,-1.5325,-1.5249,-1.5249,-1.534,-1.5347,-1.5257,-1.5257,-1.5173,-1.4999,-1.4734,-1.4824,-1.4831,-1.4999,-1.4999,-1.4824,-1.4741,-1.4741]},{"header":{"parameterUnit":"m.s-1","parameterCategory":1,"la1":31.0,"la2":29.5877,"lo1":-88.7671,"lo2":-86.6584,"dy":0.0162,"dx":0.0185,"nx":115,"ny":88,"refTime":"2023-07-11T18:00:00:Z","depth":0,"parameterNumber":3,"parameterNumberName":"V-component_of_WINDS"},"data":[0.0,0.0,0.0,0.0,0.0,0.0,0.0,0.0,0.0,0.0,0.0,0.0,0.0,0.0,0.0,0.0,0.0,0.0,0.0,0.0,0.0,0.0,0.0,0.0,0.0,0.0,0.0,0.0,0.0,0.0,0.0,0.0,0.0,0.0,0.0,0.0,0.0,0.0,0.0,0.0,0.0,0.0,0.0,0.0,0.0,0.0,0.0,0.0,0.0,0.0,0.0,0.0,0.0,0.0,0.0,0.0,0.0,0.0,0.0,0.0,0.0,0.0,0.0,0.0,0.0,0.0,0.0,0.0,0.0,0.0,0.0,0.0,0.0,0.0,0.0,0.0,0.0,0.0,0.0,0.0,0.0,0.0,0.0,0.0,0.0,0.0,0.0,0.0,0.0,0.0,0.0,0.0,0.0,0.0,0.0,0.0,0.0,0.0,0.0,0.0,0.0,0.0,0.0,0.0,0.0,0.0,0.0,0.0,0.0,0.0,0.0,0.0,0.0,0.0,0.0,0.0,0.0,0.0,0.0,0.0,0.0,0.0,0.0,0.0,0.0,0.0,0.0,0.0,0.0,0.0,0.0,0.0,0.0,0.0,0.0,0.0,0.0,0.0,0.0,0.0,0.0,0.0,0.0,0.0,0.0,0.0,0.0,0.0,0.0,0.0,0.0,0.0,0.0,0.0,0.0,0.0,0.0,0.0,0.0,0.0,0.0,0.0,0.0,0.0,0.0,0.0,0.0,0.0,0.0,0.0,0.0,0.0,0.0,0.0,0.0,0.0,0.0,0.0,0.0,0.0,0.0,0.0,0.0,0.0,0.0,0.0,0.0,0.0,0.0,0.0,0.0,0.0,0.0,0.0,0.0,0.0,0.0,0.0,0.0,0.0,0.0,0.0,0.0,0.0,0.0,0.0,0.0,0.0,0.0,0.0,0.0,0.0,0.0,0.0,0.0,0.0,0.0,0.0,0.0,0.0,0.0,0.0,0.0,0.0,0.0,0.0,0.0,0.0,0.0,0.0,0.0,0.0,0.0,0.0,0.0,0.0,0.0,0.0,0.0,0.0,0.0,0.0,0.0,0.0,0.0,0.0,0.0,0.0,0.0,0.0,0.0,0.0,0.0,0.0,0.0,0.0,0.0,0.0,0.0,0.0,0.0,0.0,0.0,0.0,0.0,0.0,0.0,0.0,0.0,0.0,0.0,0.0,0.0,0.0,0.0,0.0,0.0,0.0,0.0,0.0,0.0,0.0,0.0,0.0,0.0,0.0,0.0,0.0,0.0,0.0,0.0,0.0,0.0,0.0,0.0,0.0,0.0,0.0,0.0,0.0,0.0,0.0,0.0,0.0,0.0,0.0,0.0,0.0,0.0,0.0,0.0,0.0,0.0,0.0,0.0,0.0,0.0,0.0,0.0,0.0,0.0,0.0,0.0,0.0,0.0,0.0,0.0,0.0,0.0,0.0,0.0,0.0,0.0,0.0,0.0,0.0,0.0,0.0,0.0,0.0,0.0,0.0,0.0,0.0,0.0,0.0,0.0,0.0,0.0,0.0,0.0,0.0,0.0,0.0,0.0,0.0,0.0,0.0,0.0,0.0,0.0,0.0,0.0,0.0,0.0,0.0,0.0,0.0,0.0,0.0,0.0,0.0,0.0,0.0,0.0,0.0,0.0,0.0,0.0,0.0,0.0,0.0,0.0,0.0,0.0,0.0,0.0,0.0,0.0,0.0,0.0,0.0,0.0,0.0,0.0,0.0,0.0,0.0,0.0,0.0,0.0,0.0,0.0,0.0,0.0,0.0,0.0,0.0,0.0,0.0,0.0,0.0,0.0,0.0,0.0,0.0,0.0,0.0,0.0,0.0,0.0,0.0,0.0,0.0,0.0,0.0,0.0,0.0,0.0,0.0,0.0,0.0,0.0,0.0,0.0,0.0,0.0,0.0,0.0,0.0,0.0,0.0,0.0,0.0,0.0,0.0,0.0,0.0,0.0,0.0,0.0,0.0,0.0,0.0,0.0,0.0,0.0,0.0,0.0,0.0,0.0,0.0,0.0,0.0,0.0,0.0,0.0,0.0,0.0,0.0,0.0,0.0,0.0,0.0,0.0,0.0,0.0,0.0,0.0,0.0,0.0,0.0,0.0,0.0,0.0,0.0,0.0,0.0,0.0,0.0,0.0,0.0,0.0,0.0,0.0,0.0,0.0,0.0,0.0,0.0,0.0,0.0,0.0,0.0,0.0,0.0,0.0,0.0,0.0,0.0,0.0,0.0,0.0,0.0,0.0,0.0,0.0,0.0,0.0,0.0,0.0,0.0,0.0,0.0,0.0,0.0,0.0,0.0,0.0,0.0,0.0,0.0,0.0,0.0,0.0,0.0,0.0,0.0,0.0,0.0,0.0,0.0,0.0,0.0,0.0,0.0,0.0,0.0,0.0,0.0,0.0,0.0,0.0,0.0,0.0,0.0,0.0,0.0,0.0,0.0,0.0,0.0,0.0,0.0,0.0,0.0,0.0,0.0,0.0,0.0,0.0,0.0,0.0,0.0,0.0,0.0,0.0,0.0,0.0,0.0,0.0,0.0,0.0,0.0,0.0,0.0,0.0,0.0,0.0,0.0,0.0,0.0,0.0,0.0,0.0,0.0,0.0,0.0,0.0,0.0,0.0,0.0,0.0,0.0,0.0,0.0,0.0,0.0,0.0,0.0,0.0,0.0,0.0,0.0,0.0,0.0,0.0,0.0,0.0,0.0,0.0,0.0,0.0,0.0,0.0,0.0,0.0,0.0,0.0,0.0,0.0,0.0,0.0,0.0,0.0,0.0,0.0,0.0,0.0,0.0,0.0,0.0,0.0,0.0,0.0,0.0,0.0,0.0,0.0,0.0,0.0,0.0,0.0,0.0,0.0,0.0,0.0,0.0,0.0,0.0,0.0,0.0,0.0,0.0,0.0,0.0,0.0,0.0,0.0,0.0,0.0,0.0,0.0,0.0,0.0,0.0,0.0,0.0,0.0,0.0,0.0,0.0,0.0,0.0,0.0,0.0,0.0,0.0,0.0,0.0,0.0,0.0,0.0,0.0,0.0,0.0,0.0,0.0,0.0,0.0,0.0,0.0,0.0,0.0,0.0,0.0,0.0,0.0,0.0,0.0,0.0,0.0,0.0,0.0,0.0,0.0,0.0,0.0,0.0,0.0,0.0,0.0,0.0,0.0,0.0,0.0,0.0,0.0,0.0,0.0,0.0,0.0,0.0,0.0,0.0,0.0,0.0,0.0,0.0,0.0,0.0,0.0,0.0,0.0,0.0,0.0,0.0,0.0,0.0,0.0,0.0,0.0,0.0,0.0,0.0,0.0,0.0,0.0,0.0,0.0,0.0,0.0,0.0,0.0,0.0,0.0,0.0,0.0,0.0,0.0,0.0,0.0,0.0,0.0,0.0,0.0,0.0,0.0,0.0,0.0,0.0,0.0,0.0,0.0,0.0,0.0,0.0,0.0,0.0,0.0,0.0,0.0,0.0,0.0,0.0,0.0,0.0,0.0,0.0,0.0,0.0,0.0,0.0,0.0,0.0,0.0,0.0,0.0,0.0,0.0,0.0,0.0,0.0,0.0,0.0,0.0,0.0,0.0,0.0,0.0,0.0,0.0,0.0,0.0,0.0,0.0,0.0,0.0,0.0,0.0,0.0,0.0,0.0,0.0,0.0,0.0,0.0,0.0,0.0,0.0,0.0,0.0,0.0,0.0,0.0,0.0,0.0,0.0,0.0,0.0,0.0,0.0,0.0,0.0,0.0,0.0,0.0,0.0,0.0,0.0,0.0,0.0,0.0,0.0,0.0,0.0,0.0,0.0,0.0,0.0,0.0,0.0,0.0,0.0,0.0,0.0,0.0,0.0,0.0,0.0,0.0,0.0,0.0,0.0,0.0,0.0,0.0,0.0,0.0,0.0,0.0,0.0,0.0,0.0,0.0,0.0,0.0,0.0,0.0,0.0,0.0,0.0,0.0,0.0,0.0,0.0,0.0,0.0,0.0,0.0,0.0,0.0,0.0,0.0,0.0,0.0,0.0,0.0,0.0,0.0,0.0,0.0,0.0,0.0,0.0,0.0,0.0,0.0,0.0,0.0,0.0,0.0,0.0,0.0,0.0,0.0,0.0,0.0,0.0,0.0,0.0,0.0,0.0,0.0,0.0,0.0,0.0,0.0,0.0,0.0,0.0,0.0,0.0,0.0,0.0,0.0,0.0,0.0,0.0,0.0,0.0,0.0,0.0,0.0,0.0,0.0,0.0288,0.0,0.0,0.0,0.0,0.0,0.0,0.0,0.0,0.0,0.0,0.0,0.0,0.0,0.0,0.0,0.0,0.0,0.0,0.0,0.0,0.0,0.0,0.0,0.0,0.0,0.0,0.0,0.0,0.0,0.0,0.0,0.0,0.0,0.0,0.0,0.0,0.0,0.0,0.0,0.0,0.0,0.0,0.0,0.0,0.0,0.0,0.0,0.0,0.0,0.0,0.0,0.0,0.0,0.0,0.0,0.0,0.0,0.0,0.0,0.0,0.0,0.0,0.0,0.0,0.0,0.0,0.0,0.0,0.0,0.0,0.0,0.0,0.0,0.0,0.0,0.0,0.0,0.0,0.0,0.0,0.0,0.0,0.0,0.0,0.0,0.0,0.0,0.0,0.0,0.0,0.0,0.0,0.0,0.0,0.0,0.0,0.0,0.0,0.0,0.0,0.0,0.0,0.0,0.0,0.0,0.0,0.0,0.0,0.0,0.0,-0.532,-0.4078,-0.2421,-0.1215,-0.0552,0.0,0.0,0.0,0.0,0.0,0.0,0.0,0.0,0.0,0.0,0.0,0.0,0.0,0.0,0.0,0.0,0.0,0.0,0.0,0.0,0.0,0.0,0.0,0.0,0.0,0.0,0.0,0.0,0.0,0.0,0.0,0.0,0.0,0.0,0.0,0.0,0.0,0.0,0.0,0.0,0.0,0.0,0.0,0.0,0.0,0.0,0.0,0.0,0.0,0.0,0.0,0.0,0.0,0.0,0.0,0.0,0.0,0.0,0.0,0.0,0.0,0.0,0.0,0.0,0.0,0.0,0.0,0.0,0.0,0.0,0.0,0.0,0.0,0.0,0.0,0.0,0.0,0.0,0.0,0.0,0.0,0.0,0.0,0.0,0.0,0.0,0.0,0.0,0.0,0.0,0.0,0.0,0.0,0.0,0.0,0.0,0.0,0.0,0.0,0.0,0.0,0.0,0.0,0.0,0.0,0.0,0.0,0.0,0.0,0.0,0.0,0.0,-0.2473,-0.0276,0.0621,0.0,0.0,0.0,0.0,0.0,0.0,0.0,0.0,0.0,0.0,0.0,0.0,0.0,0.0,0.0,0.0,0.0,0.0,0.0,0.0,0.0,0.0,0.0,0.0,0.0,0.0,0.0,0.0,0.0,0.0,0.0,0.0,0.0,0.0,0.0,0.0,0.0,0.0,0.0,0.0,0.0,0.0,0.0,0.0,0.0,0.0,0.0,0.0,0.0,0.0,0.0,0.0,0.0,0.0,0.0,0.0,0.0,0.0,0.0,0.0,0.0,0.0,0.0,0.0,0.0,0.0,0.0,0.0,0.0,0.0,0.0,0.0,0.0,0.0,0.0,0.0,0.0,0.0,0.0,0.0,0.0,0.0,0.0,0.0,0.0,0.0,0.0,0.0,0.0,0.0,0.0,0.0,0.0,0.0,0.0,0.0,0.0,0.0,0.0,0.0,0.0,0.0,0.0,0.0,0.0,0.0,0.0,0.0,0.0,0.0,-0.807,-0.8591,-0.2262,0.0,0.5907,0.0,0.0,0.0,0.0,0.0,0.0,0.0,0.0,0.0,0.0,0.0,0.0,0.0,0.0,0.0,0.0,0.0,0.0,0.0,0.0,0.0,0.0,0.0,0.0,0.0,0.0,0.0,0.0,0.0,0.0,0.0,0.0,0.0,0.0,0.0,0.0,0.0,0.0,0.0,0.0,0.0,0.0,0.0,0.0,0.0,0.0,0.0,0.0,0.0,0.0,0.0,0.0,0.0,0.0,0.0,0.0,0.0,0.0,0.0,0.0,0.0,0.0,0.0,0.0,0.0,0.0,0.0,0.0,0.0,0.0,0.0,0.0,0.0,0.0,0.0,0.0,0.0,0.0,0.0,0.0,0.0,0.0,0.0,0.0,0.0,0.0,0.0,0.0,0.0,0.0,0.0,0.0,0.0,0.0,0.0,0.0,0.0,0.0,0.0,0.0,0.0,0.0,0.0,0.0,0.0,0.0,0.0,0.0,0.0,0.0,-0.8768,-0.8857,-0.3235,0.103,0.0,0.0,0.0,0.0,0.0,0.0,0.0,0.0,0.0,0.0,0.0,0.0,0.0,0.0,0.0,0.0,0.0,0.0,0.0,0.0,0.0,0.0,0.0,0.0,0.0,0.0,0.0,0.0,0.0,0.0,0.0,0.0,0.0,0.0,0.0,0.0,0.0,0.0,0.0,0.0,0.0,0.0,0.0,0.0,0.0,0.0,0.0,0.0,0.0,0.0,0.0,0.0,0.0,0.0,0.0,0.0,0.0,0.0,0.0,0.0,0.0,0.0,0.0,0.0,0.0,0.0,0.0,0.0,0.0,0.0,0.0,0.0,0.0,0.0,0.0,0.0,0.0,0.0,0.0,0.0,0.0,0.0,0.0,0.0,0.0,0.0,0.0,0.0,0.0,0.0,0.0,0.0,0.0,0.0,0.0,0.0,0.0,0.0,0.0,0.0,0.0,0.0,0.0,0.0,0.0,0.0,0.0,0.0,0.0,0.0,-0.9953,-0.821,-0.5532,-0.244,0.0923,0.4457,0.0,0.0,0.0,0.0,0.0,0.0,0.0,0.0,0.0,0.0,0.0,0.0,0.0,0.0,0.0,0.0,0.0,0.0,0.0,0.0,0.0,0.0,0.0,0.0,0.0,0.0,0.0,0.0,0.0,0.0,0.0,0.0,0.0,0.0,0.0,0.0,0.0,0.0,0.0,0.0,0.0,0.0,0.0,0.0,0.0,0.0,0.0,0.0,0.0,0.0,0.0,0.0,0.0,0.0,0.0,0.0,0.0,0.0,0.0,0.0,0.0,0.0,0.0,0.0,0.0,0.0,0.0,0.0,0.0,0.0,0.0,0.0,0.0,0.0,0.0,0.0,0.0,0.0,0.0,0.0,0.0,0.0,0.0,0.0,0.0,0.0,0.0,0.0,0.0,0.0,0.0,0.0,0.0,0.0,0.0,0.0,0.0,0.0,0.0,0.0,0.0,0.0,0.0,0.0,0.0,0.0,0.0,0.0,-1.2403,-1.0787,-0.5992,0.1635,0.1336,0.4371,0.0,0.0,0.0,0.0,0.0,0.0,0.0,0.0,0.0,0.0,0.0,0.0,0.0,0.0,0.0,0.0,0.0,0.0,0.0,0.0,0.0,0.0,0.0,0.0,0.0,0.0,0.0,0.0,0.0,0.0,0.0,0.0,0.0,0.0,0.0,0.0,0.0,0.0,0.0,0.0,0.0,0.0,0.0,0.0,0.0,0.0,0.0,0.0,0.0,0.0,0.0,0.0,0.0,0.0,0.0,0.0,0.0,0.0,0.0,0.0,0.0,0.0,0.0,0.0,0.0,0.0,0.0,0.0,0.0,0.0,0.0,0.0,0.0,0.0,0.0,0.0,0.0,0.0,0.0,0.0,0.0,0.0,0.0,0.0,0.0,0.0,0.0,0.0,0.0,0.0,0.0,0.0,0.0,0.0,0.0,0.0,0.0,0.0,0.0,0.0,0.0,0.0,0.0,0.0,0.0,0.0,0.0,0.0,0.0,-1.1054,-1.0767,-0.8732,-0.4777,-0.1822,0.1548,0.0,0.0,0.0,0.0,0.0,0.0,0.0,0.0,0.0,0.0,0.0,0.0,0.0,0.0,0.0,0.0,0.0,0.0,0.0,0.0,0.0,0.0,0.0,0.0,0.0,0.0,0.0,0.0,0.0,0.0,0.0,0.0,0.0,0.0,0.0,0.0,0.0,0.0,0.0,0.0,0.0,0.0,0.0,0.0,0.0,0.0,0.0,0.0,0.0,0.0,0.0,0.0,0.0,0.0,0.0,0.0,0.0,0.0,0.0,0.0,0.0,0.0,0.0,0.0,0.0,0.0,0.0,0.0,0.0,0.0,0.0,0.0,0.0,0.0,0.0,0.0,0.0,0.0,0.0,0.0,0.0,0.0,0.0,0.0,0.0,0.0,0.0,0.0,0.0,0.0,0.0,0.0,0.0,0.0,0.0,0.0,0.0,0.0,0.0,0.0,0.0,0.0,0.0,0.0,0.0,0.0,0.0,0.0,0.0,-1.0241,0.0,-0.9761,-0.7691,-0.4189,-0.0765,0.0,0.0,0.0,0.0,0.0,0.0,0.0,0.0,0.0,0.0,0.0,0.0,0.0,0.0,0.0,0.0,0.0,0.0,0.0,0.0,0.0,0.0,0.0,0.0,0.0,0.0,0.0,0.0,0.0,0.0,0.0,0.0,0.0,0.0,0.0,0.0,0.0,0.0,0.0,0.0,0.0,0.0,0.0,0.0,0.0,0.0,0.0,0.0,0.0,0.0,0.0,0.0,0.0,0.0,0.0,0.0,0.0,0.0,0.0,0.0,0.0,0.0,0.0,0.0,0.0,0.0,0.0,0.0,0.0,0.0,0.0,0.0,0.0,0.0,0.0,0.0,0.0,0.0,0.0,0.0,0.0,0.0,0.0,0.0,0.0,0.0,0.0,0.0,0.0,0.0,0.0,0.0,0.0,0.0,0.0,0.0,0.0,0.0,0.0,0.0,0.0,0.0,0.0,0.0,0.0,0.0,0.0,0.0,-1.0312,-1.0318,-1.0236,-0.8754,-0.5486,-0.513,-0.1935,0.0,0.0,0.0,0.0,0.0,0.0,0.0,0.0,0.0,0.0,0.0,0.0,0.0,0.0,0.0,0.0,0.0,0.0,0.0,0.0,0.0,0.0,0.0,0.0,0.0,0.0,0.0,0.0,0.0,0.0,0.0,0.0,0.0,0.0,0.0,0.0,0.0,0.0,0.0,0.0,0.0,0.0,0.0,0.0,0.0,0.0,0.0,0.0,0.0,0.0,0.0,0.0,0.0,0.0,0.0,0.0,0.0,0.0,0.0,0.0,0.0,0.0,0.0,0.0,0.0,0.0,0.0,0.0,0.0,0.0,0.0,0.0,0.0,0.0,0.0,0.0,0.0,0.0,0.0,0.0,0.0,0.0,0.0,0.0,0.0,0.0,0.0,0.0,0.0,0.0,0.0,0.0,0.0,0.0,0.0,0.0,0.0,0.0,0.0,0.0,0.0,0.0,0.0,0.0,0.0,0.0,0.0,0.0,0.0,-1.1103,-0.9938,-0.9688,-1.0272,-0.6383,-0.3694,0.0,0.0,0.0,0.0,0.0,0.0,0.0,0.0,0.0,0.0,0.0,0.0,0.0,0.0,0.0,0.0,0.0,0.0,0.0,0.0,0.0,0.0,0.0,0.0,0.0,0.0,0.0,0.0,0.0,0.0,0.0,0.0,0.0,0.0,0.0,0.0,0.0,0.0,0.0,0.0,0.0,0.0,0.0,0.0,0.0,0.0,0.0,0.0,0.0,0.0,0.0,0.0,0.0,0.0,0.0,0.0,0.0,0.0,0.0,0.0,0.0,0.0,0.0,0.0,0.0,0.0,0.0,0.0,0.0,0.0,0.0,0.0,0.0,0.0,0.0,0.0,0.0,0.0,0.0,0.0,0.0,0.0,0.0,0.0,0.0,0.0,0.0,0.0,0.0,0.0,0.0,0.0,0.0,0.0,0.0,0.0,0.0,0.0,0.0,0.0,0.0,0.0,0.0,0.0,0.0,0.0,0.0,0.0,0.0,-1.1497,-1.0732,-1.0928,-1.2285,-0.9213,-0.6905,-0.556,0.0,0.0,0.0,0.0,0.0,0.0,0.0,0.0,0.0,0.0,0.0,0.0,0.0,0.0,0.0,0.0,0.0,0.0,0.0,0.0,0.0,0.0,0.0,0.0,0.0,0.0,0.0,0.0,0.0,0.0,0.0,0.0,0.0,0.0,0.0,0.0,0.0,0.0,0.0,0.0,0.0,0.0,0.0,0.0,0.0,0.0,0.0,0.0,0.0,0.0,0.0,0.0,0.0,0.0,0.0,0.0,0.0,0.0,0.0,0.0,0.0,0.0,0.0,0.0,0.0,0.0,0.0,0.0,0.0,0.0,0.0,0.0,0.0,0.0,0.0,0.0,0.0,0.0,0.0,0.0,0.0,0.0,0.0,0.0,0.0,0.0,0.0,0.0,0.0,0.0,0.0,0.0,0.0,0.0,0.0,0.0,0.0,0.0,0.0,0.0,0.0,0.0,0.0,0.0,0.0,0.0,0.0,0.0,-1.1796,-1.2533,-1.2547,-1.1825,-1.3021,-1.1119,0.0,0.0,0.0,0.0,0.0,0.0,0.0,0.0,0.0,0.0,0.0,0.0,0.0,0.0,0.0,0.0,0.0,0.0,0.0,0.0,0.0,0.0,0.0,0.0,0.0,0.0,0.0,0.0,0.0,0.0,0.0,0.0,0.0,0.0,0.0,0.0,0.0,0.0,0.0,0.0,0.0,0.0,0.0,0.0,0.0,0.0,0.0,0.0,0.0,0.0,0.0,0.0,0.0,0.0,0.0,0.0,0.0,0.0,0.0,0.0,0.0,0.0,0.0,0.0,0.0,0.0,0.0,0.0,0.0,0.0,0.0,0.0,0.0,0.0,0.0,0.0,0.0,0.0,0.0,0.0,0.0,0.0,0.0,0.0,0.0,0.0,0.0,0.0,0.0,0.0,0.0,0.0,0.0,0.0,0.0,0.0,0.0,0.0,0.0,0.0,0.0,0.0,0.0,0.0,0.0,0.0,0.0,0.0,0.0,-1.4393,-1.5167,-1.5167,-1.4345,-1.347,-1.2459,0.0,0.0,0.0,0.0,0.0,0.0,0.0,0.0,0.0,0.0,0.0,0.0,0.0,0.0,0.0,0.0,0.0,0.0,0.0,0.0,0.0,0.0,0.0,0.0,0.0,0.0,0.0,0.0,0.0,0.0,0.0,0.0,0.0,0.0,0.0,0.0,0.0,0.0,0.0,0.0,0.0,0.0,0.0,0.0,0.0,0.0,0.0,0.0,0.0,0.0,0.0,0.0,0.0,0.0,0.0,0.0,0.0,0.0,0.0,0.0,0.0,0.0,0.0,0.0,0.0,0.0,0.0,0.0,0.0,0.0,0.0,0.0,0.0,0.0,0.0,0.0,0.0,0.0,0.0,0.0,0.0,0.0,0.0,0.0,0.0,0.0,0.0,0.0,0.0,0.0,0.0,0.0,0.0,0.0,0.0,0.0,0.0,0.0,0.0,0.0,0.0,0.0,0.0,0.0,0.0,0.0,0.0,0.0,-1.3758,-1.4295,-1.6171,-1.7245,-1.7452,-1.6105,-1.4948,0.0,0.0,0.0,0.0,0.0,0.0,0.0,0.0,0.0,0.0,0.0,0.0,0.0,0.0,0.0,0.0,0.0,0.0,0.0,0.0,0.0,0.0,0.0,0.0,0.0,0.0,0.0,0.0,0.0,0.0,0.0,0.0,0.0,0.0,0.0,0.0,0.0,0.0,0.0,0.0,0.0,0.0,0.0,0.0,0.0,0.0,0.0,0.0,0.0,0.0,0.0,0.0,0.0,0.0,0.0,0.0,0.0,0.0,0.0,0.0,0.0,0.0,0.0,0.0,0.0,0.0,0.0,0.0,0.0,0.0,0.0,0.0,0.0,0.0,0.0,0.0,0.0,0.0,0.0,0.0,0.0,0.0,0.0,0.0,0.0,0.0,0.0,0.0,0.0,0.0,0.0,0.0,0.0,0.0,0.0,0.0,0.0,0.0,0.0,0.0,0.0,0.0,0.0,0.0,0.0,0.0,0.0,0.0,-1.3177,-1.3652,-1.6673,-1.9139,-2.0789,-1.9651,-1.7816,0.0,0.0,0.0,0.0,0.0,0.0,0.0,0.0,0.0,0.0,0.0,0.0,0.0,0.0,0.0,0.0,0.0,0.0,0.0,0.0,0.0,0.0,0.0,0.0,0.0,0.0,0.0,0.0,0.0,0.0,0.0,0.0,0.0,0.0,0.0,0.0,0.0,0.0,0.0,0.0,0.0,0.0,0.0,0.0,0.0,0.0,0.0,0.0,0.0,0.0,0.0,0.0,0.0,0.0,0.0,0.0,0.0,0.0,0.0,0.0,0.0,0.0,0.0,0.0,0.0,0.0,0.0,0.0,0.0,0.0,0.0,0.0,0.0,0.0,0.0,0.0,0.0,0.0,0.0,0.0,0.0,0.0,0.0,0.0,0.0,0.0,0.0,0.0,0.0,0.0,0.0,0.0,0.0,0.0,0.0,0.0,0.0,0.0,0.0,0.0,0.0,0.0,0.0,0.0,0.0,0.0,0.0,0.0,-1.6068,-1.8789,-2.0199,-2.1984,-2.4249,-2.0276,-1.837,0.0,0.0,0.0,0.0,0.0,0.0,0.0,0.0,0.0,0.0,0.0,0.0,0.0,0.0,0.0,0.0,0.0,0.0,0.0,0.0,0.0,0.0,0.0,0.0,0.0,0.0,0.0,0.0,0.0,0.0,0.0,0.0,0.0,0.0,0.0,0.0,0.0,0.0,0.0,0.0,0.0,0.0,0.0,0.0,0.0,0.0,0.0,0.0,0.0822,0.0,0.0,0.0,0.0,0.0,0.0,0.0,0.0,0.0,0.0,0.0,0.0,0.0,0.0,0.0,0.0,0.0,0.0,0.0,0.0,0.0,0.0,0.0,0.0,0.0,0.0,0.0,0.0,0.0,0.0,0.0,0.0,0.0,0.0,0.0,0.0,0.0,0.0,0.0,0.0,0.0,0.0,0.0,0.0,0.0,0.0,0.0,0.0,0.0,0.0,0.0,0.0,0.0,0.0,0.0,0.0,0.0,0.0,0.0,-1.7983,-2.1031,-2.2673,-2.4483,-2.6347,-2.2441,-2.0573,0.0,0.0,0.0,0.0,0.0,0.0,0.0,0.0,0.0,0.0,0.0,0.0,0.0,0.0,0.0,0.0,0.0,0.0,0.0,0.0,0.0,0.0,0.0,0.0,0.0,0.0,0.0,0.0,0.0,0.0,0.0,0.0,0.0,0.0,0.0,0.0,0.0,0.0,0.0,0.0,0.0,0.0,0.0,0.0,0.0,0.0,0.0,0.0,0.0,0.0,0.0,0.0,0.0,0.0,0.0,0.0,0.0,0.0,0.0,0.0,0.0,0.0,0.0,0.0,0.0,0.0,0.0,0.0,0.0,0.0,0.0,0.0,0.0,0.0,0.0,0.0,0.0,0.0,0.0,0.0,0.0,0.0,0.0,0.0,0.0,0.0,0.0,0.0,0.0,0.0,0.0,0.0,0.0,0.0,0.0,0.0,0.0,0.0,0.0,0.0,0.0,0.0,0.0,0.0,0.0,0.0,0.0,-1.8159,-1.9668,-2.2711,-2.4696,-2.6443,-2.7919,-2.4954,-2.3232,-2.3112,0.0,0.0,0.0,0.0,0.0,0.0,0.0,0.0,0.0,0.0,0.0,0.0,0.0,0.0,0.0,0.0,0.0,0.0,0.0,0.0,0.0,0.0,0.0,0.0,0.0,0.0,0.0,0.0,0.0,0.0,0.0,0.0,0.0,0.0,0.0,0.0,0.0,0.0,-0.5145,-0.7855,0.0,0.0,0.0,0.0,0.0,0.0,0.0,0.0,-0.2591,0.0,0.0,0.0,0.0,0.0,0.0,0.0,0.0,0.0,0.0,0.0,0.0,0.0,0.0,0.0,0.0,0.0,0.0,0.0,0.0,0.0,0.0,0.0,0.0,0.0,0.0,0.0,0.0,0.0,0.0,0.0,0.0,0.0,0.0,0.0,0.0,0.0,0.0,0.0,0.0,0.0,0.0,0.0,0.0,0.0,0.0,0.0,0.0,0.0,0.0,0.0,0.0,0.0,0.0,0.0,0.0,-2.0796,-2.0214,-2.2246,-2.6981,-2.6784,-2.7055,-2.7981,-2.6067,-2.4992,-2.488,0.0,0.0,0.0,0.0,0.0,0.0,0.0,0.0,0.0,0.0,0.0,0.0,0.0,0.0,0.0,0.0,0.0,0.0,0.0,0.0,0.0,0.0,0.0,0.0,0.0,0.0,0.0,0.0,0.0,0.0,0.0,0.0,0.0,0.0,0.0,0.0,0.0,0.0,0.0,-0.9236,-0.9853,0.0,0.0,0.0,0.0,0.0,0.0,0.0,0.0,-0.4489,0.0,0.0,0.0,0.0,0.0,0.0,0.0,0.0,0.0,0.0,0.0,0.0,0.0,0.0,0.0,0.0,0.0,0.0,0.0,0.0,0.0,0.0,0.0,0.0,0.0,0.0,0.0,0.0,0.0,0.0,0.0,0.0,0.0,0.0,0.0,0.0,0.0,0.0,0.0,0.0,0.0,0.0,0.0,0.0,0.0,0.0,0.0,0.0,0.0,0.0,0.0,0.0,0.0,0.0,0.0,-2.2578,-2.2519,-2.4481,-2.8685,-2.8383,-2.8334,-2.8708,-2.6177,-2.4803,0.0,0.0,0.0,0.0,0.0,0.0,0.0,0.0,0.0,0.0,0.0,0.0,0.0,0.0,0.0,0.0,0.0,0.0,0.0,0.0,0.0,0.0,0.0,0.0,0.0,0.0,0.0,0.0,0.0,0.0,0.0,0.0,0.0,0.0,0.0,0.0,0.0,0.0,0.0,0.0,-1.0144,-1.0601,-0.9487,0.0,0.0,0.0,0.0,0.0,0.0,-0.8473,-0.679,0.0,0.0,0.0,0.0,0.0,0.0,0.0,0.0,0.0,0.0,0.0,0.0,0.0,0.0,0.0,0.0,0.0,0.0,0.0,0.0,0.0,0.0,0.0,0.0,0.0,0.0,0.0,0.0,0.0,0.0,0.0,0.0,0.0,0.0,0.0,0.0,0.0,0.0,0.0,0.0,0.0,0.0,0.0,0.0,0.0,0.0,0.0,0.0,0.0,0.0,0.0,0.0,0.0,0.0,0.0,-2.4366,-2.47,-2.6394,-2.9557,-2.9363,-2.9142,-2.9052,-2.5607,-2.3939,0.0,0.0,0.0,0.0,0.0,0.0,0.0,0.0,0.0,0.0,0.0,0.0,0.0,0.0,0.0,0.0,0.0,0.0,0.0,0.0,0.0,0.0,0.0,0.0,0.0,0.0,0.0,0.0,0.0,0.0,0.0,0.0,0.0,0.0,0.0,0.0,0.0,0.0,0.0,0.0,0.0,-1.1939,-1.0571,-1.1185,0.0,0.0,0.0,0.0,-1.2371,-1.1304,0.0,0.0,0.0,0.0,0.0,0.0,0.0,0.0,0.0,0.0,0.0,0.0,0.0,0.0,0.0,0.0,0.0,0.0,0.0,0.0,0.0,0.0,0.0,0.0,0.0,0.0,0.0,0.0,0.0,0.0,0.0,0.0,0.0,0.0,0.0,0.0,0.0,0.0,0.0,0.0,0.0,0.0,0.0,0.0,0.0,0.0,0.0,0.0,0.0,0.0,0.0,0.0,0.0,0.0,0.0,0.0,-2.6147,-2.6429,-2.7807,-3.0325,-2.9046,-2.823,-2.8197,-2.4179,-2.3069,0.0,0.0,0.0,0.0,0.0,0.0,0.0,0.0,0.0,0.0,0.0,0.0,0.0,0.0,0.0,0.0,0.0,0.0,0.0,0.0,0.0,0.0,0.0,0.0,0.0,0.0,0.0,0.0,0.0,0.0,0.0,0.0,0.0,0.0,0.0,0.0,0.0,0.0,0.0,0.0,0.0,-1.4153,-1.634,-1.5024,-1.3965,0.0,0.0,-1.9035,-1.5937,-1.7421,0.0,0.0,0.0,0.0,0.0,0.0,0.0,0.0,0.0,0.0,0.0,0.0,0.0,0.0,0.0,0.0,0.0,0.0,0.0,0.0,0.0,0.0,0.0,0.0,0.0,0.0,0.0,0.0,0.0,0.0,0.0,0.0,0.0,0.0,0.0,0.0,0.0,0.0,0.0,0.0,0.0,0.0,0.0,0.0,0.0,0.0,0.0,0.0,0.0,0.0,0.0,0.0,0.0,0.0,0.0,-2.3774,-2.6502,-2.7259,-2.86,-3.0592,-2.944,-2.8771,-2.8771,-2.4624,-2.3379,0.0,0.0,0.0,0.0,0.0,0.0,0.0,0.0,0.0,0.0,0.0,0.0,0.0,0.0,0.0,0.0,0.0,0.0,0.0,0.0,0.0,0.0,0.0,0.0,0.0,0.0,0.0,0.0,0.0,0.0,0.0,0.0,0.0,0.0,0.0,0.0,0.0,0.0,0.0,0.0,0.0,0.0,-1.7418,-1.7889,0.0,0.0,0.0,-1.9035,-1.6319,0.0,0.0,0.0,0.0,0.0,0.0,0.0,0.0,0.0,0.0,0.0,0.0,0.0,0.0,0.0,0.0,0.0,0.0,0.0,0.0,0.0,0.0,0.0,0.0,0.0,0.0,0.0,0.0,0.0,0.0,0.0,0.0,0.0,0.0,0.0,0.0,0.0,0.0,0.0,0.0,0.0,0.0,0.0,0.0,0.0,0.0,0.0,0.0,0.0,0.0,0.0,0.0,0.0,0.0,0.0,0.0,0.0,-2.6887,-2.777,-2.9021,-3.0611,-2.9795,-2.9311,-2.9226,-2.555,0.0,0.0,0.0,0.0,0.0,0.0,0.0,0.0,0.0,0.0,0.0,0.0,0.0,0.0,0.0,0.0,0.0,0.0,0.0,0.0,0.0,0.0,0.0,0.0,0.0,0.0,0.0,1.0175,0.0,0.0,0.0,0.0,0.0,0.0,0.0,0.0,0.0,0.0,0.0,0.0,0.0,0.0,-1.6753,-1.8249,-1.9969,-2.0335,0.0,0.0,-1.9254,-1.7738,-2.1126,-2.2533,0.0,0.0,0.0,0.0,0.0,0.0,0.0,0.0,0.0,0.0,0.0,0.0,0.0,0.0,0.0,0.0,0.0,0.0,0.0,0.0,0.0,0.0,0.0,0.0,0.0,0.0,0.0,0.0,0.0,0.0,0.0,0.0,0.0,0.0,0.0,0.0,0.0,0.0,0.0,0.0,0.0,0.0,0.0,0.0,0.0,0.0,0.0,0.0,0.0,0.0,0.0,0.0,0.0,0.0,-2.5516,-2.7736,-2.806,-2.9006,-3.0611,-2.9783,-2.9303,-2.9259,-2.666,-2.5688,0.0,0.0,0.0,0.0,0.0,0.0,0.0,0.0,0.0,0.0,0.0,0.0,0.0,0.0,0.0,0.0,0.0,0.0,0.0,0.0,0.0,0.0,0.0,0.0,0.0,0.0,0.0,0.0,0.0,0.0,0.0,0.0,0.0,0.0,0.0,0.0,0.0,0.0,0.0,0.0,0.0,-1.8691,-2.0278,-2.1002,-2.157,0.0,-2.1853,-2.1737,-2.2066,-2.595,-2.6982,-2.1098,0.0,0.0,0.0,0.0,0.0,0.0,0.0,0.0,0.0,0.0,0.0,0.0,0.0,0.0,0.0,0.0,0.0,0.0,0.0,0.0,0.0,0.0,0.0,0.0,0.0,0.0,0.0,0.0,0.0,0.0,0.0,0.0,0.0,0.0,0.0,0.0,0.0,0.0,0.0,0.0,0.0,0.0,0.0,0.0,0.0,0.0,0.0,0.0,0.0,0.0,0.0,0.0,0.0,-2.6178,-2.7811,-2.8553,-2.9498,-3.0559,-3.0247,-3.0028,-2.9979,-2.7958,-2.7094,0.0,0.0,0.0,0.0,0.0,0.0,0.0,0.0,0.0,0.0,0.0,0.0,0.0,0.0,0.0,0.0,0.0,0.0,0.0,0.0,0.0,0.0,0.0,0.0,0.0,0.0,0.0,0.0,0.9436,0.7752,-0.0422,0.0,0.0,0.0,0.0,0.0,0.0,0.0,0.0,0.0,0.0,-2.0561,-2.2729,-2.3893,0.0,0.0,-2.4443,-2.4772,-2.1721,-2.5528,-2.6825,-2.0807,-2.0391,0.0,0.0,0.0,0.0,0.0,0.0,0.0,0.0,0.0,0.0,0.0,0.0,0.0,0.0,0.0,0.0,0.0,0.0,0.0,0.0,0.0,0.0,0.0,0.0,0.0,0.0,0.0,0.0,0.0,0.0,0.0,0.0,0.0,0.0,0.0,0.0,0.0,0.0,0.0,0.0,0.0,0.0,0.0,0.0,0.0,0.0,0.0,0.0,0.0,0.0,0.0,0.0,-2.6556,-2.7791,-2.8869,-2.9765,-3.0546,-3.053,-3.0458,-3.0344,-2.8929,-2.8219,0.0,0.0,0.0,0.0,0.0,0.0,0.0,0.0,0.0,0.0,0.0,0.0,0.0,0.0,0.0,0.0,0.0,0.0,0.0,0.0,0.0,0.0,0.0,0.0,0.0,0.0,0.0,0.0,0.6914,0.5428,-0.5156,0.0,0.0,0.0,0.0,0.0,0.0,0.0,0.0,0.0,0.0,-2.2081,-2.3609,-2.5356,-2.556,-2.2995,-2.5099,-2.5746,-2.1989,-2.4844,-2.6008,-2.1615,0.0,0.0,0.0,0.0,0.0,0.0,0.0,0.0,0.0,0.0,0.0,0.0,0.0,0.0,0.0,0.0,0.0,0.0,0.0,0.0,0.0,0.0,0.0,0.0,0.0,0.0,0.0,-2.3011,0.0,0.0,-2.4179,0.0,0.0,0.0,0.0,0.0,0.0,0.0,0.0,0.0,0.0,0.0,0.0,0.0,0.0,0.0,0.0,0.0,0.0,0.0,0.0,0.0,0.0,-2.6663,-2.7771,-2.8881,-2.9784,-3.0462,-3.0491,-3.0425,-3.0305,-2.9443,-2.8962,-2.896,0.0,0.0,0.0,0.0,0.0,0.0,0.0,0.0,0.0,0.0,0.0,0.0,0.0,0.0,0.0,0.0,0.0,0.0,0.0,0.0,0.0,0.0,0.0,0.0,0.0,0.0,-0.0467,0.2813,0.3561,0.0,0.0,0.0,0.0,0.0,0.0,0.0,0.0,0.0,-2.1091,-2.2597,-2.3122,-2.2407,-2.465,-2.5466,-2.3041,-2.3456,-2.3946,-2.3687,-2.4572,-2.4967,0.0,0.0,0.0,0.0,0.0,0.0,0.0,0.0,0.0,0.0,0.0,0.0,0.0,0.0,0.0,0.0,0.0,0.0,0.0,0.0,0.0,0.0,0.0,0.0,0.0,0.0,0.0,-2.5488,-2.5517,0.0,0.0,0.0,0.0,0.0,0.0,0.0,0.0,0.0,0.0,0.0,-2.7414,-2.7364,0.0,0.0,0.0,0.0,0.0,0.0,0.0,0.0,0.0,0.0,0.0,0.0,-2.7423,-2.7908,-2.9352,-3.0268,-3.0472,-3.0364,-3.0299,-3.0247,-2.987,-2.9417,-2.8865,0.0,0.0,0.0,0.0,0.0,0.0,0.0,0.0,0.0,0.0,0.0,0.0,0.0,0.0,0.0,0.0,0.0,0.0,0.0,0.0,0.0,0.0,0.0,0.0,0.0,-0.4283,0.0,0.0,0.0,0.0,0.0,0.0,0.0,0.0,0.0,0.0,0.0,-1.8821,-2.2552,-2.1908,-2.1388,-2.2167,-2.2675,-2.3437,0.0,0.0,0.0,0.0,0.0,0.0,0.0,0.0,0.0,0.0,0.0,0.0,0.0,0.0,-1.8424,-1.3709,-1.4405,-1.5936,-1.6511,0.0,0.0,0.0,0.0,0.0,0.0,0.0,0.0,0.0,0.0,0.0,0.0,0.0,0.0,-2.7301,-2.7543,-2.7284,0.0,0.0,0.0,0.0,0.0,0.0,0.0,0.0,-2.7639,-2.7989,-2.8173,-2.8169,-2.8174,0.0,-2.789,-2.7154,0.0,0.0,0.0,0.0,0.0,0.0,0.0,0.0,-2.7831,-2.7982,-2.9608,-3.049,-3.0447,-3.0292,-3.0188,-3.0166,-3.0304,-3.0278,-3.001,-2.9292,-2.8675,0.0,0.0,0.0,0.0,0.0,0.0,0.0,0.0,0.0,0.0,0.0,0.0,0.0,0.0,0.0,0.0,0.0,0.0,0.0,0.0,0.0,0.0,0.0,-0.905,0.0,0.0,0.0,0.0,0.0,0.0,0.0,0.0,0.0,-2.0284,-1.9336,-1.9978,-2.3812,-2.2988,-2.1916,-2.1555,0.0,0.0,0.0,0.0,0.0,0.0,0.0,-2.2335,-2.1285,-2.2082,-2.3345,-2.4797,-2.5093,-2.5028,-2.461,0.0,0.0,-1.6836,-1.8406,-2.0899,-2.1658,-2.1501,-2.1247,-2.1266,-2.1476,-2.1684,0.0,0.0,0.0,0.0,0.0,0.0,0.0,0.0,-2.8008,-2.8435,0.0,-2.8334,0.0,0.0,0.0,0.0,-2.6757,-2.7427,0.0,0.0,-2.9296,-2.9651,-2.894,-2.8973,-2.8946,-2.8831,-2.8249,-2.7886,-2.7807,-2.7821,0.0,0.0,0.0,0.0,0.0,0.0,-2.786,-2.8008,-2.9633,-3.0466,-3.0379,-3.0312,-3.0223,-3.0221,-3.0798,-3.1486,-3.2204,-3.1563,-3.1201,-3.1137,-2.9091,0.0,0.0,0.0,0.0,0.0,0.0,0.0,0.0,0.0,0.0,0.0,0.0,0.0,0.0,0.0,0.0,0.0,0.0,0.0,0.0,-1.5683,0.0,0.0,0.0,0.0,0.0,0.0,0.0,0.0,0.0,0.0,-2.4766,-2.238,-2.1552,-2.466,0.0,0.0,0.0,0.0,-2.0507,-1.7403,-2.199,-2.4212,-1.9444,-2.1121,-2.3824,-2.6123,0.0,0.0,-2.9244,-2.7433,-2.5709,-2.44,-2.5762,-2.6065,-2.328,-2.3286,-2.4365,-2.575,-2.4664,-2.3298,-2.2758,-2.3034,-2.2991,-2.94,0.0,0.0,0.0,0.0,-2.9008,-2.9508,-3.0294,-3.0381,-3.0541,-3.0737,-2.9905,0.0,0.0,0.0,0.0,0.0,0.0,-2.8303,-2.9308,-2.9246,-2.933,-2.9652,-3.0257,-3.0522,-3.0525,-3.088,-3.0766,-3.0222,-3.0237,-2.9332,-2.7514,0.0,0.0,0.0,0.0,-2.8228,-2.8838,-2.9843,-3.033,-3.0254,-3.0725,-3.1232,-3.1707,-3.1882,-3.2072,-3.2279,-3.2091,-3.1748,-3.1232,-3.0627,0.0,0.0,0.0,0.0,0.0,0.0,0.0,0.0,0.0,0.0,0.0,0.0,0.0,0.0,0.0,0.0,0.0,0.0,0.0,-1.8582,-2.0994,-2.1133,0.0,0.0,0.0,0.0,0.0,0.0,0.0,0.0,0.0,-2.4346,-2.0629,-1.88,0.0,0.0,-1.9314,-1.938,-1.9344,-2.0212,-2.2788,-2.3516,0.0,-2.661,-2.5245,-2.4617,-2.6445,-2.8635,-2.9963,-2.9557,-2.9907,-2.995,-2.8902,-2.9158,-2.8852,-2.6982,-2.6694,-2.7169,-2.7943,-2.7755,-2.7516,-2.7681,-2.785,-2.7939,-3.236,-3.12,-2.9717,-2.9578,-3.0349,-3.0421,-3.0928,-3.1756,-3.1806,-3.2003,-3.226,-3.1475,-3.086,-3.0343,-2.9279,0.0,0.0,0.0,-2.9799,-3.0934,-3.0459,-3.0297,-3.044,-3.0968,-3.1176,-3.1231,-3.1345,-3.1345,-3.1193,-3.0579,-2.9825,-2.8818,0.0,-2.7226,-2.791,-2.8295,-2.8702,-2.9158,-2.9917,-3.0279,-3.0234,-3.0918,-3.1779,-3.277,-3.2769,-3.2901,-3.324,-3.324,-3.3072,-3.2651,-3.2071,-3.1143,0.0,0.0,0.0,0.0,0.0,0.0,0.0,0.0,0.0,0.0,0.0,-1.9524,-1.7619,0.0,0.0,0.0,-2.0843,-2.1388,-2.2706,-2.3894,0.0,0.0,0.0,0.0,0.0,0.0,0.0,-2.1105,-2.3088,-2.4503,-2.4035,-2.12,-2.0085,-2.2584,-2.2339,-2.1677,-2.0996,0.0,-2.3099,-2.6355,-2.7223,-2.7811,-2.8517,-2.738,-2.71,-2.9379,-3.078,-3.1543,-3.132,-3.2091,-3.2361,-3.1531,-3.1052,-3.0661,-3.0042,-2.94,-2.8876,-2.9003,-2.9151,-2.9378,-2.9823,-3.0007,-3.0113,-3.5208,-3.5379,-3.178,-3.0753,-3.1449,-3.1411,-3.1844,-3.2543,-3.2654,-3.3015,-3.3524,-3.295,-3.2566,-3.231,-3.1035,0.0,-3.1483,-3.1423,-3.1775,-3.2504,-3.2428,-3.2011,-3.129,-3.1383,-3.1402,-3.1383,-3.057,-3.057,-3.1212,-2.976,-2.9375,-3.007,-2.943,-2.8722,-2.8074,-2.8839,-2.9244,-2.9198,-2.9896,-3.0291,-3.0379,-3.1045,-3.2088,-3.3562,-3.3521,-3.3878,-3.4651,-3.4689,-3.4747,-3.4751,-3.3456,-3.2683,-3.2448,0.0,0.0,0.0,0.0,0.0,0.0,0.0,0.0,0.0,0.0,0.0,0.0,0.0,0.0,0.0,-2.4354,0.0,-2.6683,-2.5425,0.0,0.0,0.0,-2.4569,-2.7164,-2.8073,-2.7627,-2.5312,0.0,0.0,-2.4346,-2.3857,-2.4469,-2.6795,-2.8575,-2.8273,-2.4562,-2.591,-2.7717,-2.8358,-3.1996,-3.2751,-2.8459,-2.8727,-3.0639,-3.3236,-3.413,-3.385,-3.3633,-3.3616,-3.3314,-3.2237,-3.1674,-3.1447,-3.2427,-3.0984,-2.991,-2.9269,-2.9339,-2.9586,-2.9846,-2.991,-2.994,-3.7548,-3.6378,-3.5417,-3.4862,-3.4551,-3.4001,-3.3853,-3.402,-3.4124,-3.4278,-3.4389,-3.362,-3.2921,-3.2298,-3.2026,-3.2343,-3.3124,-3.2495,-3.2629,-3.3317,-3.2691,-3.2294,-3.2162,-3.2805,-3.3107,-3.3107,-3.2899,-3.2558,-3.2103,-3.1116,-3.0443,-3.0098,-2.9928,-2.9786,-2.9723,-2.9876,-2.9934,-2.9855,-3.0037,-3.0704,-3.1849,-3.258,-3.3411,-3.4388,-3.4344,-3.4459,-3.4749,-3.4749,-3.4809,-3.4849,-3.4527,-3.3791,-3.2553,-3.0316,0.0,0.0,0.0,0.0,0.0,0.0,0.0,0.0,0.0,-2.4972,-2.4107,0.0,-2.4215,0.0,-2.7862,-2.9768,-2.9636,-3.0335,0.0,0.0,-2.8754,-2.8793,-2.8787,-3.1776,-3.1666,-2.593,-2.77,-2.8953,-2.7809,-2.8783,-3.0047,-3.1187,-2.8555,-2.6774,-2.7545,-2.7624,-2.8377,-3.0441,-3.3047,-3.432,-3.2921,-3.3029,-3.3481,-3.4167,-3.4221,-3.4124,-3.3965,-3.3921,-3.3453,-3.2114,-3.207,-3.1696,-3.0479,-3.0215,-3.06,-3.0642,-3.0536,-3.0221,-2.9906,-2.9827,-2.9842,-3.9547,-3.8192,-3.7868,-3.7291,-3.6508,-3.5445,-3.4787,-3.4473,-3.4602,-3.4666,-3.4647,-3.4239,-3.3846,-3.3469,-3.3524,-3.3808,-3.4188,-3.3806,-3.3826,-3.4188,-3.3733,-3.3298,-3.2958,-3.3449,-3.3695,-3.3676,-3.3316,-3.307,-3.2937,-3.2141,-3.1343,-3.063,-3.1331,-3.1188,-3.019,-2.9883,-2.9692,-2.9625,-2.9884,-3.1007,-3.2899,-3.328,-3.3524,-3.3656,-3.3637,-3.3318,-3.2726,-3.2726,-3.2707,-3.2726,-3.2762,-3.2343,-3.1388,-2.9216,-2.719,0.0,0.0,0.0,0.0,0.0,0.0,0.0,0.0,0.0,0.0,0.0,-2.7164,-2.7498,-3.0477,-3.1732,-3.0159,-3.1213,-3.1574,-3.0579,-3.0577,-3.0993,-3.1896,-3.4195,-3.4232,-3.0466,-3.1339,-3.2213,-3.1972,-3.2134,-3.2626,-3.3359,-3.106,-2.9798,-3.1008,-3.109,-3.1527,-3.2921,-3.4194,-3.5001,-3.487,-3.479,-3.4687,-3.452,-3.4454,-3.4386,-3.4311,-3.4269,-3.3799,-3.2418,-3.2535,-3.2414,-3.0776,-3.1058,-3.1763,-3.1965,-3.2086,-3.1629,-3.047,-2.9908,-2.9626,-4.1141,-4.0037,-3.9412,-3.8551,-3.7581,-3.63,-3.5367,-3.4699,-3.4813,-3.4864,-3.4752,-3.4783,-3.481,-3.4851,-3.4946,-3.4946,-3.4908,-3.4983,-3.4965,-3.4926,-3.4927,-3.4529,-3.3791,-3.3828,-3.3865,-3.3846,-3.2994,-3.2938,-3.3657,-3.2805,-3.2048,-3.1459,-3.286,-3.2422,-3.0247,-2.966,-2.9301,-2.913,-2.9794,-3.117,-3.3279,-3.3184,-3.2806,-3.2222,-3.2125,-3.145,-3.0157,-3.0095,-3.0099,-3.0032,-3.006,-3.0164,-3.025,-2.7452,-2.6933,0.0,-2.664,0.0,0.0,0.0,0.0,0.0,0.0,0.0,0.0,-2.9409,-2.9834,-3.0758,-3.2252,-3.235,-3.0306,-3.086,-3.1604,-3.2182,-3.1661,-3.2396,-3.5104,-3.5584,-3.5673,-3.5679,-3.503,-3.4854,-3.5325,-3.4337,-3.3674,-3.4257,-3.4167,-3.393,-3.4265,-3.455,-3.4833,-3.519,-3.5174,-3.5089,-3.4964,-3.4908,-3.4868,-3.4751,-3.471,-3.4708,-3.4626,-3.4607,-3.4205,-3.3078,-3.309,-3.3023,-3.2048,-3.2398,-3.2876,-3.2891,-3.331,-3.3007,-3.1154,-3.006,-2.9477,-4.1521,-4.0038,-3.9872,-3.8939,-3.7518,-3.7331,-3.685,-3.6189,-3.6391,-3.6162,-3.5597,-3.4924,-3.4626,-3.4687,-3.4769,-3.4811,-3.4812,-3.4945,-3.5001,-3.4983,-3.5039,-3.4944,-3.4755,-3.4755,-3.4755,-3.4698,-3.3809,-3.3469,-3.362,-3.2807,-3.2352,-3.2252,-3.2609,-3.2257,-3.1172,0.0,0.0,0.0,-3.0492,-3.1105,-3.1506,-3.1487,-3.1374,-3.1167,-3.0619,0.0,-3.0034,-3.0064,-3.0123,-3.0155,-3.0118,0.0,0.0,0.0,0.0,0.0,0.0,0.0,0.0,0.0,0.0,0.0,-2.9666,-2.9785,-3.0121,-3.0234,-3.0914,-3.2445,-3.2928,-3.3498,-3.4409,-3.4642,-3.4797,-3.4863,-3.4773,-3.4936,-3.5393,-3.5397,-3.5424,-3.5601,-3.5465,-3.5403,-3.5456,-3.5263,-3.516,-3.5219,-3.5284,-3.5239,-3.5207,-3.5287,-3.5326,-3.5293,-3.5212,-3.5089,-3.4982,-3.4964,-3.4983,-3.4945,-3.4908,-3.487,-3.4831,-3.4792,-3.4508,-3.356,-3.3448,-3.324,-3.241,-3.2354,-3.2673,-3.2932,-3.3232,-3.2848,-3.0962,-3.0215,-2.9881,-4.2424,-4.1121,-4.0717,-4.006,0.0,-3.8604,-3.8358,-3.8303,-3.731,-3.6737,-3.646,-3.6028,-3.5615,-3.524,-3.5308,-3.5145,-3.4791,-3.4908,-3.4945,-3.4945,-3.5057,-3.5075,-3.5001,-3.5001,-3.5001,-3.4982,-3.4491,-3.4244,-3.4207,-3.3809,-3.3412,-3.3052,-3.3505,-3.314,-3.1936,-3.1933,-3.1692,-3.1203,-3.1555,-3.209,-3.2767,-3.2785,-3.239,-3.1619,-3.126,0.0,0.0,0.0,0.0,0.0,0.0,0.0,0.0,-3.054,0.0,-3.18,-3.1196,-3.1077,-3.1828,-3.1622,-3.1543,-3.1817,-3.1847,-3.1769,-3.16,-3.2366,-3.3256,-3.4116,-3.426,-3.4635,-3.5496,-3.5635,-3.5631,-3.5554,-3.5628,-3.5608,-3.5388,-3.533,-3.5326,-3.543,-3.5566,-3.556,-3.547,-3.5496,-3.5534,-3.5509,-3.5463,-3.5449,-3.5416,-3.5457,-3.5449,-3.5245,-3.5126,-3.5037,-3.5001,-3.5001,-3.5001,-3.5001,-3.5001,-3.5001,-3.5001,-3.4964,-3.4756,-3.4321,-3.4207,-3.4017,-3.3676,-3.3564,-3.3541,-3.3337,-3.298,-3.2478,-3.1464,-3.0736,-3.017,-4.3174,-4.2249,-4.1589,-4.124,-4.1048,-3.9937,-3.9851,-4.0335,-3.8126,0.0,0.0,-3.7155,-3.6742,-3.6122,-3.6111,-3.5725,-3.5035,-3.5097,-3.5059,-3.4926,-3.5073,-3.511,-3.5038,-3.5019,-3.5038,-3.502,-3.4908,-3.4868,-3.4887,-3.4827,-3.4469,-3.3941,-3.4547,-3.4245,-3.2955,-3.2693,-3.2711,-3.2873,-3.254,-3.2978,-3.4198,-3.4022,-3.3347,-3.2091,-3.1843,-3.1206,-3.0138,-2.9942,-2.9928,-3.0052,-3.0066,-3.0208,-3.044,-3.0494,-3.0947,-3.1857,-3.1917,-3.2509,-3.3788,-3.333,-3.3196,-3.3635,-3.3671,-3.3544,-3.3236,-3.4481,-3.532,-3.5364,-3.5449,-3.5489,-3.5496,-3.5572,-3.5572,-3.5507,-3.5611,-3.556,-3.5354,-3.532,-3.5335,-3.5315,-3.5449,-3.5509,-3.5402,-3.5435,-3.5449,-3.5379,-3.535,-3.5315,-3.53,-3.5388,-3.5393,-3.5126,-3.5038,-3.5019,-3.5019,-3.5019,-3.5019,-3.5056,-3.5092,-3.5111,-3.5092,-3.502,-3.4964,-3.4851,-3.4888,-3.4791,-3.4749,-3.4617,-3.4529,-3.3788,-3.2862,-3.2092,-3.2108,-3.1411,-3.069,-4.3073,-4.2286,-4.2176,-4.1816,-4.1261,-4.1181,-4.1351,-4.1463,-3.9076,-3.8059,-3.8094,-3.7399,-3.7042,-3.693,-3.6934,-3.6572,-3.5945,-3.593,-3.5628,-3.5089,-3.5229,-3.5245,-3.5157,-3.5176,-3.5143,-3.5075,-3.4908,-3.4811,-3.4827,-3.4747,-3.4672,-3.4639,-3.487,-3.4887,-3.4677,-3.3866,-3.3771,-3.4413,-3.2996,-3.2296,-3.2463,-3.1785,-3.1316,-3.1073,-2.9885,-2.9434,-2.9977,-2.9398,-2.9355,-3.0131,-3.0114,-3.0723,-3.2053,-3.2136,-3.284,-3.4244,-3.4396,-3.451,-3.4699,-3.4642,-3.4604,-3.4699,-3.4755,-3.4788,-3.4866,-3.5059,-3.5229,-3.53,-3.5379,-3.5435,-3.5502,-3.556,-3.5566,-3.552,-3.552,-3.546,-3.5324,-3.5354,-3.5369,-3.5324,-3.5335,-3.535,-3.5339,-3.5324,-3.5308,-3.5242,-3.519,-3.5157,-3.5157,-3.519,-3.5157,-3.5001,-3.502,-3.5092,-3.5073,-3.5073,-3.511,-3.5176,-3.5162,-3.5147,-3.5094,-3.4964,-3.4908,-3.4889,-3.483,-3.4747,-3.4599,-3.4404,-3.4111,-3.3588,-3.2872,-3.2386,-3.2214,-3.1882,-3.1585,-4.3277,-4.2892,-4.247,-4.2423,-4.2654,-4.2426,-4.2184,-4.1871,-4.0765,-4.0021,-3.9577,-3.8807,-3.8188,-3.7756,-3.7737,-3.742,-3.68,-3.6861,-3.652,-3.5878,-3.5943,-3.5745,-3.5273,-3.5258,-3.5193,-3.5111,-3.4927,-3.4811,-3.4747,-3.4666,-3.471,-3.4869,-3.4982,-3.5038,-3.4964,-3.451,-3.4413,-3.4728,-3.3973,-3.3537,-3.3456,-3.31,-3.2893,-3.2893,-3.2202,-3.2072,-3.2524,-3.2201,-3.2217,-3.2684,-3.265,-3.2994,-3.3696,-3.3715,-3.4017,-3.4793,-3.4849,-3.4849,-3.4888,-3.4927,-3.4945,-3.4945,-3.502,-3.5092,-3.5179,-3.5198,-3.5215,-3.5239,-3.532,-3.5345,-3.5388,-3.5482,-3.5515,-3.5507,-3.5507,-3.5446,-3.5369,-3.5398,-3.5417,-3.5324,-3.5254,-3.5239,-3.5242,-3.5209,-3.5193,-3.5143,-3.5108,-3.5091,-3.5054,-3.5091,-3.5035,-3.4945,-3.4945,-3.502,-3.5037,-3.5073,-3.511,-3.5145,-3.5127,-3.5038,-3.4964,-3.485,-3.4811,-3.4812,-3.467,-3.4495,-3.4377,-3.4148,-3.3778,-3.3266,-3.2749,-3.2301,-3.2073,-3.2037,-3.1986,-4.3479,-4.3424,-4.2818,-4.3063,-4.3777,-4.3487,-4.3053,-4.2554,-4.2374,-4.1942,-4.1267,-4.0309,-3.937,-3.8619,-3.8582,-3.8271,-3.775,-3.7774,-3.7337,-3.6607,-3.6596,-3.6155,-3.5373,-3.5289,-3.5308,-3.534,-3.5211,-3.5208,-3.5254,-3.523,-3.5222,-3.5192,-3.5114,-3.502,-3.4907,-3.4811,-3.4751,-3.4687,-3.4666,-3.4645,-3.4602,-3.4602,-3.4602,-3.4583,-3.4395,-3.4438,-3.4668,-3.4519,-3.454,-3.479,-3.4809,-3.4788,-3.4788,-3.4747,-3.4747,-3.4809,-3.4827,-3.4829,-3.4926,-3.4983,-3.5001,-3.502,-3.5075,-3.5147,-3.52,-3.5198,-3.5196,-3.5209,-3.527,-3.5315,-3.533,-3.5427,-3.5507,-3.5507,-3.5507,-3.546,-3.5417,-3.5451,-3.5398,-3.5293,-3.5209,-3.5176,-3.516,-3.5107,-3.5053,-3.5056,-3.5057,-3.5038,-3.4982,-3.4982,-3.4964,-3.4927,-3.4908,-3.4927,-3.4983,-3.5039,-3.5057,-3.5057,-3.4964,-3.4869,-3.4732,-3.4647,-3.4604,-3.4586,-3.4454,-3.4245,-3.4099,-3.3921,-3.3578,-3.3075,-3.2669,-3.2318,-3.2091,-3.2126,-3.2179,-4.3479,-4.3479,-4.3387,-4.3609,-4.3986,-4.4231,-4.4261,-4.4111,-4.3501,-4.3144,-4.2825,-4.1379,-4.0272,-3.9521,-3.9483,-3.9161,-3.8627,-3.865,-3.7982,-3.6842,-3.669,-3.6229,-3.5499,-3.5315,-3.556,-3.6102,-3.5985,-3.622,-3.6795,-3.6936,-3.6723,-3.6122,-3.5344,-3.4983,-3.4984,-3.4846,-3.4685,-3.4623,-3.4539,-3.4539,-3.4583,-3.4602,-3.4602,-3.4602,-3.3907,-3.389,-3.463,-3.399,-3.3994,-3.4715,-3.479,-3.4787,-3.4785,-3.4745,-3.4747,-3.4886,-3.4866,-3.4849,-3.5002,-3.5001,-3.5096,-3.5092,-3.5185,-3.5219,-3.52,-3.5196,-3.5174,-3.5229,-3.5293,-3.53,-3.5315,-3.5412,-3.5507,-3.5493,-3.5493,-3.5479,-3.5417,-3.535,-3.527,-3.5124,-3.5223,-3.5108,-3.5228,-3.521,-3.5096,-3.5097,-3.5116,-3.504,-3.4927,-3.4927,-3.4908,-3.4908,-3.4908,-3.4927,-3.4983,-3.4945,-3.4889,-3.4831,-3.4771,-3.4626,-3.4431,-3.434,-3.4316,-3.4269,-3.4221,-3.4074,-3.386,-3.3661,-3.3502,-3.316,-3.2834,-3.2674,-3.2573,-3.2521,-3.2472,-4.3479,-4.3479,-4.3479,-4.3634,-4.3897,-4.4255,-4.4296,-4.4181,-4.4055,-4.369,-4.3109,-4.2508,-4.1811,-4.0985,-4.0534,-4.0278,-4.0209,-3.9755,-3.8994,-3.8101,-3.8057,-3.7568,-3.6721,-3.6592,-3.6711,-3.688,-3.6816,-3.6898,-3.7115,-3.726,-3.7137,-3.6838,-3.6438,-3.6203,-3.6054,-3.5983,-3.589,-3.5795,-3.5832,-3.5832,-3.5683,-3.4913,-3.4495,-3.452,-3.4223,-3.4229,-3.4569,-3.4306,-3.4306,-3.463,-3.4687,-3.4685,-3.462,-3.4602,-3.4645,-3.4787,-3.5321,-3.5854,-3.6387,-3.6502,-3.633,-3.5854,-3.5905,-3.5768,-3.5234,-3.5193,-3.54,-3.5821,-3.558,-3.5315,-3.5335,-3.5412,-3.5507,-3.5474,-3.546,-3.5398,-3.5358,-3.53,-3.5407,-3.5737,-3.6064,-3.6288,-3.6425,-3.6445,-3.6197,-3.5817,-3.5647,-3.5476,-3.504,-3.4908,-3.487,-3.4792,-3.4772,-3.4792,-3.487,-3.4672,-3.4588,-3.4586,-3.4498,-3.4316,-3.4148,-3.4074,-3.4049,-3.3991,-3.3991,-3.3965,-3.3807,-3.3605,-3.3433,-3.3135,-3.2916,-3.2791,-3.2722,-3.277,-3.277,-4.3479,-4.3497,-4.3566,-4.3652,-4.3837,-4.4085,-4.4147,-4.4036,-4.4266,-4.3941,-4.333,-4.3474,-4.324,-4.2527,-4.1353,-4.0981,-4.1159,-4.0361,-3.9604,-3.9047,-3.8972,-3.8422,-3.7585,-3.7451,-3.7524,-3.761,-3.7602,-3.7649,-3.7751,-3.7634,-3.7583,-3.7524,-3.7276,-3.7009,-3.6827,-3.6777,-3.6701,-3.6597,-3.6705,-3.6705,-3.643,-3.5522,-3.4913,-3.4741,-3.4547,-3.448,-3.4536,-3.4783,-3.4914,-3.4914,-3.512,-3.5188,-3.5161,-3.5188,-3.5277,-3.5442,-3.6077,-3.6745,-3.7351,-3.7489,-3.7319,-3.6748,-3.6762,-3.6585,-3.6031,-3.578,-3.6048,-3.6661,-3.631,-3.5956,-3.5661,-3.5566,-3.5493,-3.5493,-3.5427,-3.5403,-3.5293,-3.5239,-3.5463,-3.6216,-3.7196,-3.7653,-3.7504,-3.7355,-3.6992,-3.631,-3.614,-3.5874,-3.5135,-3.4889,-3.483,-3.4689,-3.4647,-3.4628,-3.4672,-3.4545,-3.4386,-3.4293,-3.4221,-3.4049,-3.3842,-3.3815,-3.3834,-3.3807,-3.3807,-3.378,-3.3716,-3.3577,-3.3433,-3.3183,-3.2997,-3.2965,-3.2997,-3.3073,-3.3165,-4.3479,-4.3532,-4.3686,-4.3771,-4.3804,-4.3961,-4.4005,-4.3974,-4.4017,-4.3999,-4.3924,-4.4114,-4.4202,-4.3941,-4.1863,-4.0995,-4.1157,-4.0385,-3.9654,-3.9127,-3.8937,-3.8384,-3.7509,-3.737,-3.7721,-3.8373,-3.8319,-3.8653,-3.9368,-3.8738,-3.8361,-3.8369,-3.753,-3.6956,-3.6889,-3.6842,-3.6652,-3.6758,-3.6785,-3.6665,-3.6592,-3.6454,-3.6054,-3.546,-3.4716,-3.4447,-3.4484,-3.5203,-3.568,-3.5661,-3.6315,-3.6733,-3.6752,-3.6831,-3.6919,-3.7125,-3.7209,-3.7289,-3.7402,-3.7581,-3.7585,-3.7547,-3.76,-3.7613,-3.7349,-3.6982,-3.702,-3.7597,-3.7636,-3.7362,-3.6642,-3.5931,-3.5479,-3.5412,-3.546,-3.5383,-3.5209,-3.5072,-3.5363,-3.6426,-3.8224,-3.8842,-3.7713,-3.7409,-3.7201,-3.6632,-3.6272,-3.5912,-3.5116,-3.4849,-3.4749,-3.4604,-3.4498,-3.445,-3.4495,-3.4386,-3.4227,-3.4105,-3.3972,-3.386,-3.3698,-3.3587,-3.3615,-3.3671,-3.3753,-3.3753,-3.3633,-3.3567,-3.3452,-3.3334,-3.3274,-3.3244,-3.3286,-3.3422,-3.3491,-4.3479,-4.3479,-4.3566,-4.36,-4.3634,-4.3818,-4.38,-4.3716,-4.391,-4.3961,-4.3915,-4.4055,-4.4116,-4.4042,-4.2704,-4.1975,-4.1755,-4.1367,-4.0783,-4.0094,-3.9967,-3.972,-3.9277,-3.8833,-3.8708,-3.8989,-3.9089,-3.9312,-3.9595,-3.9336,-3.9132,-3.9027,-3.857,-3.8236,-3.809,-3.7995,-3.7937,-3.7945,-3.8014,-3.8042,-3.7893,-3.7553,-3.7183,-3.6841,-3.6203,-3.5833,-3.5907,-3.6279,-3.6459,-3.6459,-3.6758,-3.6883,-3.692,-3.7047,-3.7366,-3.7845,-3.8011,-3.8282,-3.8776,-3.9001,-3.8838,-3.8384,-3.8442,-3.8284,-3.7789,-3.7538,-3.771,-3.84,-3.9088,-3.9009,-3.8046,-3.6607,-3.5451,-3.5324,-3.5335,-3.5289,-3.5089,-3.5073,-3.5569,-3.6896,-3.865,-3.9463,-3.8946,-3.8896,-3.8679,-3.7921,-3.7293,-3.6326,-3.5229,-3.4791,-3.4647,-3.4431,-3.4404,-3.4404,-3.4245,-3.4197,-3.4074,-3.3895,-3.3753,-3.3671,-3.3577,-3.3587,-3.3615,-3.3698,-3.3753,-3.3753,-3.3689,-3.3577,-3.3481,-3.352,-3.3462,-3.3491,-3.3559,-3.3643,-3.3726,-4.3479,-4.3479,-4.3479,-4.3479,-4.3532,-4.3652,-4.3618,-4.3532,-4.3749,-4.3781,-4.3753,-4.3865,-4.391,-4.3868,-4.3398,-4.2794,-4.2212,-4.194,-4.1536,-4.1023,-4.0923,-4.084,-4.0634,-4.0281,-3.997,-3.9773,-3.9902,-3.9889,-3.9736,-3.9821,-3.9701,-3.9317,-3.9101,-3.8921,-3.8713,-3.864,-3.8596,-3.8627,-3.878,-3.8773,-3.8737,-3.8375,-3.8136,-3.8052,-3.7682,-3.7206,-3.6786,-3.705,-3.7231,-3.7268,-3.7517,-3.7673,-3.7748,-3.7821,-3.8117,-3.8667,-3.8851,-3.91,-3.9571,-3.9804,-3.9627,-3.9138,-3.9204,-3.9032,-3.8536,-3.8516,-3.884,-3.9338,-3.9697,-3.9754,-3.8937,-3.771,-3.6692,-3.6052,-3.5531,-3.5312,-3.5401,-3.5192,-3.5722,-3.6914,-3.8109,-3.8882,-3.9194,-3.9305,-3.9085,-3.8674,-3.7832,-3.664,-3.5186,-3.471,-3.4498,-3.4203,-3.4269,-3.4245,-3.4148,-3.4074,-3.3998,-3.3815,-3.3698,-3.3615,-3.3577,-3.3605,-3.3615,-3.3698,-3.3726,-3.3753,-3.3698,-3.3605,-3.3605,-3.3643,-3.3671,-3.3671,-3.378,-3.3868,-3.3921,-4.3479,-4.3497,-4.3479,-4.3479,-4.3444,-4.3532,-4.3479,-4.3479,-4.3513,-4.3513,-4.3566,-4.3719,-4.3786,-4.38,-4.3767,-4.3391,-4.2588,-4.2032,-4.176,-4.1717,-4.1593,-4.1494,-4.1456,-4.1454,-4.1157,-4.0522,-4.0701,-4.0422,-3.9877,-4.0285,-4.0132,-3.9305,-3.9032,-3.8805,-3.851,-3.8446,-3.8433,-3.8496,-3.864,-3.8738,-3.8719,-3.8778,-3.881,-3.8865,-3.881,-3.8183,-3.683,-3.7503,-3.7955,-3.8093,-3.8689,-3.9242,-3.9246,-3.9295,-3.947,-3.9519,-3.9637,-3.9631,-3.9607,-3.9665,-3.9743,-3.9656,-3.9865,-3.987,-3.9793,-3.9929,-3.9986,-3.9884,-3.9705,-3.9402,-3.9075,-3.9174,-3.8836,-3.7719,-3.6291,-3.5989,-3.6043,-3.5407,-3.5218,-3.6653,-3.7525,-3.7728,-3.8252,-3.8746,-3.8792,-3.858,-3.78,-3.666,-3.519,-3.4689,-3.4358,-3.4124,-3.4124,-3.4148,-3.4074,-3.3998,-3.3921,-3.3815,-3.3726,-3.3643,-3.3605,-3.3633,-3.3661,-3.3716,-3.3753,-3.378,-3.3726,-3.3643,-3.3716,-3.3726,-3.378,-3.3834,-3.3895,-3.3972,-3.4023,-4.3375,-4.3196,-4.341,-4.3375,-4.3214,-4.341,-4.3479,-4.3479,-4.3479,-4.3479,-4.3513,-4.3566,-4.36,-4.36,-4.3649,-4.3468,-4.3177,-4.2934,-4.2631,-4.2184,-4.2097,-4.2083,-4.1986,-4.165,-4.1441,-4.1418,-4.1455,-4.137,-4.1137,-4.1109,-4.0656,-3.9859,-3.9553,-3.9116,-3.8506,-3.8433,-3.8465,-3.8609,-3.8719,-3.8792,-3.891,-3.8979,-3.9036,-3.9064,-3.9064,-3.8785,-3.8386,-3.8625,-3.8809,-3.8801,-3.9152,-3.938,-3.9483,-3.9533,-3.9583,-3.9602,-3.9626,-3.9645,-3.9626,-3.9647,-3.9698,-3.9743,-3.9873,-3.9935,-3.9975,-4.0096,-4.0077,-3.9933,-3.9727,-3.9548,-3.9577,-3.9584,-3.9014,-3.7518,-3.7794,-3.7483,-3.6707,-3.6092,-3.6197,-3.6963,-3.8061,-3.8879,-3.9129,-3.919,-3.9133,-3.9096,-3.8047,-3.6663,-3.5848,-3.4927,-3.4282,-3.4117,-3.4099,-3.4358,-3.4437,-3.4497,-3.4444,-3.4191,-3.3954,-3.3661,-3.3633,-3.3633,-3.3661,-3.3689,-3.3753,-3.3734,-3.3698,-3.3726,-3.3753,-3.3807,-3.386,-3.3913,-3.3954,-3.4005,-3.4049,-4.3142,-4.2882,-4.3178,-4.3214,-4.3014,-4.3356,-4.3479,-4.3479,-4.3479,-4.3479,-4.3479,-4.3479,-4.3479,-4.3479,-4.3375,-4.3339,-4.3304,-4.3214,-4.2905,-4.2503,-4.2677,-4.2745,-4.2669,-4.2065,-4.1878,-4.2106,-4.2164,-4.192,-4.1571,-4.1601,-4.1172,-4.0284,-4.0057,-3.9756,-3.9197,-3.9176,-3.9261,-3.9392,-3.9313,-3.9252,-3.9268,-3.9127,-3.9064,-3.9064,-3.9055,-3.9082,-3.9137,-3.9208,-3.9279,-3.9309,-3.938,-3.9476,-3.9546,-3.9596,-3.962,-3.962,-3.962,-3.962,-3.962,-3.9637,-3.9689,-3.9689,-3.9777,-3.9823,-3.9845,-3.9911,-3.9889,-3.9819,-3.9698,-3.965,-3.9703,-3.965,-3.9051,-3.8179,-3.8893,-3.892,-3.7737,-3.7512,-3.7643,-3.8112,-3.838,-3.8601,-3.8571,-3.9024,-3.925,-3.9312,-3.8394,-3.728,-3.6595,-3.5634,-3.5219,-3.5125,-3.5606,-3.5562,-3.5121,-3.5014,-3.4961,-3.4614,-3.4229,-3.3872,-3.3615,-3.3605,-3.3633,-3.3633,-3.3671,-3.3671,-3.3615,-3.3698,-3.3744,-3.3825,-3.3834,-3.3887,-3.3895,-3.3972,-3.3998,-4.2844,-4.2649,-4.2882,-4.3014,-4.3069,-4.3356,-4.3479,-4.3479,-4.3479,-4.3479,-4.3463,-4.341,-4.341,-4.3375,-4.3105,-4.2995,-4.2957,-4.2786,-4.2652,-4.2734,-4.3014,-4.3246,-4.3275,-4.282,-4.2686,-4.2823,-4.2792,-4.2279,-4.1627,-4.1959,-4.1626,-4.0637,-4.0474,-4.042,-4.0221,-4.0438,-4.0399,-4.0479,-4.017,-4.0005,-3.9963,-3.9368,-3.905,-3.9108,-3.9064,-3.9091,-3.9183,-3.9317,-3.9406,-3.9444,-3.9546,-3.9596,-3.962,-3.962,-3.962,-3.962,-3.962,-3.962,-3.962,-3.9602,-3.9626,-3.9674,-3.9698,-3.9698,-3.9708,-3.9727,-3.9703,-3.9674,-3.9602,-3.9552,-3.952,-3.9495,-3.9383,-3.9376,-3.9433,-3.9427,-3.9583,-3.9432,-3.9263,-3.9151,-3.8244,-3.7253,-3.7473,-3.8147,-3.882,-3.9183,-3.8721,-3.7972,-3.7499,-3.6826,-3.6586,-3.6589,-3.6607,-3.6406,-3.5872,-3.5588,-3.5533,-3.5255,-3.4895,-3.4564,-3.4097,-3.3996,-3.3668,-3.3632,-3.3559,-3.3559,-3.3559,-3.3605,-3.3587,-3.3615,-3.3671,-3.3753,-3.378,-3.3815,-3.3868,-4.267,-4.2649,-4.2882,-4.2976,-4.305,-4.3375,-4.3479,-4.3479,-4.3479,-4.3339,-4.3178,-4.3142,-4.3032,-4.2824,-4.2747,-4.2709,-4.267,-4.2609,-4.2609,-4.2609,-4.2747,-4.3123,-4.3444,-4.3483,-4.3453,-4.3467,-4.321,-4.302,-4.2715,-4.2413,-4.1897,-4.1155,-4.1025,-4.0793,-4.0565,-4.0583,-4.0669,-4.0961,-4.0881,-4.0845,-4.0812,-4.0173,-3.9797,-3.9753,-3.9332,-3.9138,-3.9156,-3.9354,-3.952,-3.9527,-3.9577,-3.962,-3.962,-3.962,-3.962,-3.962,-3.962,-3.962,-3.962,-3.962,-3.962,-3.962,-3.9626,-3.9626,-3.9626,-3.9626,-3.962,-3.9571,-3.9483,-3.9432,-3.9425,-3.9399,-3.9373,-3.9373,-3.9458,-3.9596,-3.962,-3.962,-3.962,-3.9545,-3.9102,-3.879,-3.8752,-3.8877,-3.9246,-3.9346,-3.8883,-3.8184,-3.7984,-3.772,-3.7328,-3.6922,-3.6822,-3.6786,-3.6611,-3.6277,-3.6069,-3.5908,-3.569,-3.5624,-3.5157,-3.4877,-3.4266,-3.3775,-3.3528,-3.3473,-3.3404,-3.3375,-3.3386,-3.3368,-3.3309,-3.3321,-3.3473,-3.3559,-3.3671,-4.245,-4.221,-4.275,-4.292,-4.2882,-4.3304,-4.3479,-4.3444,-4.3321,-4.3178,-4.2976,-4.2882,-4.2691,-4.2454,-4.2391,-4.2292,-4.2251,-4.2187,-4.2187,-4.2187,-4.231,-4.2729,-4.3214,-4.3532,-4.3618,-4.3463,-4.3286,-4.3032,-4.2752,-4.2476,-4.2105,-4.1721,-4.1591,-4.1522,-4.1558,-4.1524,-4.1686,-4.1949,-4.1812,-4.164,-4.1664,-4.0927,-4.0333,-4.0117,-3.9653,-3.9453,-3.9249,-3.9373,-3.952,-3.9577,-3.962,-3.962,-3.962,-3.962,-3.962,-3.962,-3.962,-3.962,-3.962,-3.962,-3.962,-3.9596,-3.9596,-3.9571,-3.9546,-3.9546,-3.9495,-3.9451,-3.9354,-3.9309,-3.9328,-3.9301,-3.9248,-3.9248,-3.9309,-3.9458,-3.9577,-3.962,-3.962,-3.9596,-3.9571,-3.9527,-3.9577,-3.9571,-3.9571,-3.9496,-3.9183,-3.8852,-3.8644,-3.8335,-3.8088,-3.7728,-3.7599,-3.7711,-3.7626,-3.7305,-3.6985,-3.6784,-3.6772,-3.6674,-3.6079,-3.5624,-3.4691,-3.4018,-3.3651,-3.3357,-3.3256,-3.3165,-3.3117,-3.3068,-3.2943,-3.2975,-3.3178,-3.3345,-3.3444,-4.2228,-4.1805,-4.2652,-4.2844,-4.2824,-4.3232,-4.341,-4.3375,-4.3142,-4.2939,-4.2788,-4.2573,-4.2274,-4.2092,-4.1959,-4.1856,-4.1666,-4.1719,-4.1719,-4.1849,-4.2103,-4.2534,-4.3032,-4.3304,-4.3304,-4.3105,-4.2995,-4.2652,-4.2351,-4.2228,-4.2163,-4.2015,-4.2032,-4.2356,-4.2495,-4.2755,-4.3087,-4.3083,-4.2674,-4.2433,-4.2301,-4.1677,-4.1066,-4.0596,-4.0148,-3.9721,-3.9388,-3.938,-3.9502,-3.9577,-3.962,-3.962,-3.962,-3.962,-3.962,-3.962,-3.962,-3.962,-3.962,-3.962,-3.9596,-3.9552,-3.952,-3.9469,-3.9469,-3.9444,-3.9399,-3.9373,-3.9202,-3.9183,-3.9156,-3.911,-3.9101,-3.9073,-3.9101,-3.9237,-3.9483,-3.9596,-3.962,-3.962,-3.962,-3.962,-3.962,-3.962,-3.962,-3.9577,-3.9339,-3.9207,-3.9081,-3.8902,-3.8784,-3.8729,-3.8702,-3.8802,-3.8612,-3.837,-3.8059,-3.7783,-3.7906,-3.771,-3.6888,-3.617,-3.5132,-3.4388,-3.4111,-3.3617,-3.3073,-3.2979,-3.2898,-3.2802,-3.2737,-3.2784,-3.2912,-3.3055,-3.3178,-4.2432,-4.2693,-4.2709,-4.2938,-4.3232,-4.3196,-4.3105,-4.3105,-4.3014,-4.2616,-4.2133,-4.1924,-4.164,-4.1209,-4.1391,-4.1328,-4.1373,-4.1542,-4.1719,-4.2019,-4.2351,-4.2652,-4.2957,-4.3105,-4.3069,-4.2957,-4.2768,-4.2472,-4.2205,-4.2061,-4.2019,-4.2121,-4.2287,-4.2552,-4.2936,-4.3049,-4.3178,-4.341,-4.3277,-4.3167,-4.302,-4.2451,-4.1919,-4.1618,-4.0745,-3.9964,-3.9506,-3.9399,-3.9444,-3.952,-3.9552,-3.9596,-3.962,-3.962,-3.962,-3.962,-3.962,-3.962,-3.962,-3.9577,-3.9552,-3.9483,-3.9451,-3.9462,-3.9346,-3.9391,-3.9346,-3.9275,-3.9202,-3.9101,-3.9017,-3.9026,-3.8997,-3.8979,-3.9017,-3.9147,-3.9346,-3.952,-3.9596,-3.962,-3.962,-3.962,-3.962,-3.962,-3.962,-3.9577,-3.9546,-3.9469,-3.9399,-3.932,-3.9221,-3.9129,-3.9064,-3.8979,-3.8836,-3.8541,-3.8212,-3.8132,-3.8365,-3.8597,-3.7741,-3.7144,-3.6237,-3.5369,-3.463,-3.3975,-3.3077,-3.2755,-3.2672,-3.2623,-3.2592,-3.2712,-3.2847,-3.2891,-3.3059,-4.2494,-4.2824,-4.2975,-4.305,-4.3087,-4.3032,-4.292,-4.2806,-4.2652,-4.2315,-4.1941,-4.1744,-4.1436,-4.1088,-4.1272,-4.1346,-4.1346,-4.1631,-4.1934,-4.2145,-4.2432,-4.2747,-4.2957,-4.2995,-4.2957,-4.2806,-4.267,-4.2432,-4.2145,-4.2019,-4.2061,-4.231,-4.2472,-4.2688,-4.3049,-4.3123,-4.3251,-4.3463,-4.3479,-4.3479,-4.3369,-4.3112,-4.2647,-4.2308,-4.1397,-4.0669,-4.0514,-4.0103,-3.9981,-3.993,-3.9745,-3.9571,-3.9577,-3.962,-3.962,-3.962,-3.962,-3.962,-3.962,-3.9552,-3.9527,-3.9451,-3.9399,-3.9328,-3.9275,-3.9275,-3.9248,-3.9156,-3.9045,-3.895,-3.8881,-3.8929,-3.8929,-3.8939,-3.8931,-3.9017,-3.9166,-3.9425,-3.962,-3.962,-3.962,-3.962,-3.962,-3.962,-3.962,-3.9596,-3.9527,-3.9469,-3.9418,-3.932,-3.9248,-3.9147,-3.9092,-3.9007,-3.8865,-3.8575,-3.8136,-3.8113,-3.8309,-3.8596,-3.8442,-3.7986,-3.7544,-3.6313,-3.4911,-3.3802,-3.3004,-3.2747,-3.2523,-3.2507,-3.2544,-3.2685,-3.2841,-3.294,-3.3184,-4.2649,-4.2709,-4.316,-4.3087,-4.2709,-4.2788,-4.2729,-4.2472,-4.2246,-4.2044,-4.1917,-4.1631,-4.1363,-4.1209,-4.1363,-4.1408,-4.1569,-4.1874,-4.2228,-4.2374,-4.2591,-4.2862,-4.3069,-4.3105,-4.292,-4.2649,-4.2609,-4.2391,-4.2145,-4.2061,-4.2251,-4.2591,-4.267,-4.2918,-4.3123,-4.3233,-4.3322,-4.3497,-4.3513,-4.3479,-4.3479,-4.344,-4.3122,-4.253,-4.2057,-4.1556,-4.1341,-4.097,-4.071,-4.0709,-4.0061,-3.9783,-3.974,-3.9639,-3.962,-3.962,-3.962,-3.9596,-3.9571,-3.952,-3.9495,-3.9469,-3.932,-3.9229,-3.9202,-3.9156,-3.9129,-3.9064,-3.8979,-3.8822,-3.8738,-3.8799,-3.884,-3.8851,-3.8851,-3.8892,-3.9026,-3.9301,-3.9399,-3.9533,-3.9577,-3.962,-3.962,-3.962,-3.962,-3.9596,-3.9546,-3.9469,-3.9418,-3.9346,-3.9248,-3.9175,-3.9092,-3.8674,-3.8477,-3.881,-3.8354,-3.8026,-3.8239,-3.8541,-3.8773,-3.8345,-3.7598,-3.6272,-3.4947,-3.3952,-3.308,-3.2679,-3.2523,-3.2457,-3.251,-3.272,-3.286,-3.2983,-3.3335,-4.2747,-4.292,-4.2768,-4.2824,-4.2844,-4.2454,-4.2269,-4.2187,-4.2103,-4.1805,-4.1391,-4.13,-4.118,-4.1088,-4.1163,-4.148,-4.1987,-4.2476,-4.2703,-4.2822,-4.2956,-4.3105,-4.3304,-4.3339,-4.3105,-4.2709,-4.2609,-4.2472,-4.2269,-4.2251,-4.2534,-4.2806,-4.3013,-4.3196,-4.3322,-4.3411,-4.3446,-4.3532,-4.3513,-4.3479,-4.3479,-4.3511,-4.3354,-4.2783,-4.2569,-4.2279,-4.1802,-4.1534,-4.1444,-4.1446,-4.0821,-4.0528,-4.03,-3.9908,-3.9614,-3.962,-3.9596,-3.9571,-3.952,-3.9514,-3.9399,-3.9301,-3.9221,-3.9166,-3.9147,-3.9101,-3.9101,-3.9073,-3.8979,-3.8833,-3.8792,-3.8768,-3.8738,-3.8719,-3.875,-3.8792,-3.8881,-3.8939,-3.9054,-3.9256,-3.9432,-3.962,-3.962,-3.962,-3.962,-3.9596,-3.9552,-3.9476,-3.9418,-3.9346,-3.9301,-3.9202,-3.9101,-3.8554,-3.8015,-3.858,-3.8633,-3.8055,-3.8118,-3.8425,-3.8541,-3.83,-3.7486,-3.6287,-3.5259,-3.4363,-3.359,-3.2836,-3.2659,-3.2679,-3.2733,-3.2807,-3.316,-3.3547,-3.3756,-4.2512,-4.2786,-4.2631,-4.2552,-4.2494,-4.221,-4.1977,-4.1849,-4.1805,-4.1675,-4.1498,-4.1408,-4.1363,-4.1363,-4.1525,-4.2136,-4.2834,-4.3286,-4.348,-4.3577,-4.3397,-4.3339,-4.3479,-4.3479,-4.3214,-4.292,-4.2806,-4.267,-4.2409,-4.2573,-4.2806,-4.3105,-4.3251,-4.3358,-4.3463,-4.3481,-4.3497,-4.36,-4.3513,-4.3479,-4.3479,-4.3548,-4.3373,-4.3273,-4.3227,-4.3074,-4.2804,-4.2279,-4.221,-4.2039,-4.1148,-4.0709,-4.0435,-4.0019,-3.9552,-3.9577,-3.9552,-3.9546,-3.9469,-3.9418,-3.9283,-3.921,-3.9147,-3.912,-3.9101,-3.9101,-3.9101,-3.9073,-3.896,-3.8862,-3.8822,-3.875,-3.8707,-3.8707,-3.8707,-3.8738,-3.878,-3.8738,-3.8851,-3.9045,-3.9256,-3.9432,-3.962,-3.962,-3.962,-3.9596,-3.9552,-3.9476,-3.9399,-3.9399,-3.9373,-3.9202,-3.9064,-3.8702,-3.822,-3.8524,-3.8744,-3.8221,-3.8028,-3.8345,-3.8318,-3.8101,-3.7496,-3.6514,-3.5608,-3.4845,-3.3837,-3.2995,-3.2989,-3.3022,-3.3275,-3.3545,-3.3847,-3.4127,-3.4263,-4.2269,-4.249,-4.249,-4.2369,-4.2103,-4.2019,-4.1849,-4.1648,-4.1604,-4.1604,-4.1604,-4.1604,-4.1648,-4.178,-4.2174,-4.2866,-4.3848,-4.3993,-4.4015,-4.4126,-4.3687,-4.3497,-4.3479,-4.3444,-4.3304,-4.3032,-4.3105,-4.2957,-4.2747,-4.2806,-4.3087,-4.3286,-4.3411,-4.3481,-4.355,-4.3532,-4.3566,-4.36,-4.3513,-4.3479,-4.3513,-4.3548,-4.3634,-4.3634,-4.3753,-4.3749,-4.3578,-4.3185,-4.2804,-4.2365,-4.1545,-4.0654,-4.0412,-3.984,-3.9488,-3.9502,-3.9495,-3.9495,-3.9373,-3.9275,-3.9156,-3.9156,-3.9101,-3.9073,-3.9073,-3.9073,-3.9045,-3.9064,-3.8921,-3.8833,-3.8792,-3.875,-3.8689,-3.8707,-3.8707,-3.8707,-3.8707,-3.8707,-3.875,-3.8921,-3.9101,-3.9264,-3.9458,-3.9571,-3.9571,-3.9527,-3.9502,-3.9406,-3.9373,-3.9469,-3.9425,-3.9202,-3.9008,-3.8831,-3.8619,-3.8635,-3.8659,-3.826,-3.8112,-3.8281,-3.8119,-3.7915,-3.7324,-3.6859,-3.6199,-3.5364,-3.4282,-3.3592,-3.3855,-3.4066,-3.4106,-3.4073,-3.4005,-3.4197,-3.4436,-4.2145,-4.2145,-4.2163,-4.2145,-4.2061,-4.178,-4.1648,-4.1604,-4.1604,-4.1604,-4.1648,-4.1648,-4.178,-4.2216,-4.2706,-4.3371,-4.3905,-4.3944,-4.4107,-4.44,-4.3848,-4.3479,-4.3479,-4.3479,-4.3339,-4.3142,-4.3304,-4.3214,-4.3032,-4.2995,-4.3178,-4.341,-4.3497,-4.3566,-4.3652,-4.3566,-4.3618,-4.3686,-4.3566,-4.3513,-4.3566,-4.3582,-4.3634,-4.3719,-4.3753,-4.3771,-4.3771,-4.3545,-4.3301,-4.2556,-4.1804,-4.1,-4.0306,-3.9547,-3.9222,-3.9229,-3.9328,-3.9399,-3.9276,-3.925,-3.9305,-3.937,-3.9258,-3.9044,-3.9045,-3.9017,-3.8979,-3.9016,-3.884,-3.8762,-3.8792,-3.8732,-3.8689,-3.8707,-3.8707,-3.8707,-3.8707,-3.8707,-3.8719,-3.8822,-3.9007,-3.9156,-3.9309,-3.9425,-3.9539,-3.9476,-3.9432,-3.9354,-3.9328,-3.9399,-3.9399,-3.9183,-3.9101,-3.8924,-3.8813,-3.8849,-3.8637,-3.8261,-3.8218,-3.8223,-3.8036,-3.7863,-3.7792,-3.7327,-3.6701,-3.5969,-3.4952,-3.4615,-3.4918,-3.5027,-3.5046,-3.4514,-3.3845,-3.4199,-3.4771,-4.1823,-4.1858,-4.23,-4.2229,-4.1823,-4.1648,-4.1604,-4.1604,-4.1604,-4.1692,-4.1866,-4.1909,-4.2383,-4.3098,-4.361,-4.4271,-4.4839,-4.4399,-4.4342,-4.4452,-4.3938,-4.3497,-4.3479,-4.3479,-4.3375,-4.3375,-4.341,-4.3444,-4.3304,-4.3286,-4.3375,-4.3444,-4.3479,-4.3566,-4.3667,-4.3566,-4.36,-4.36,-4.3566,-4.3532,-4.3566,-4.3548,-4.3566,-4.3652,-4.3634,-4.3652,-4.3652,-4.3667,-4.3295,-4.2608,-4.2026,-4.128,-4.0281,-3.9431,-3.8902,-3.8881,-3.9082,-3.9361,-3.9637,-3.9721,-3.9907,-4.0285,-4.0285,-4.0102,-3.9444,-3.9082,-3.9026,-3.9054,-3.891,-3.8851,-3.8822,-3.875,-3.8719,-3.8707,-3.8707,-3.8707,-3.8707,-3.8707,-3.8719,-3.884,-3.891,-3.9036,-3.9175,-3.9301,-3.9418,-3.9425,-3.9354,-3.9283,-3.9229,-3.9229,-3.9229,-3.9129,-3.9101,-3.9091,-3.899,-3.896,-3.8707,-3.84,-3.8125,-3.8104,-3.7985,-3.7881,-3.7846,-3.7828,-3.7469,-3.6627,-3.5659,-3.5643,-3.5967,-3.6005,-3.5953,-3.5331,-3.4783,-3.5011,-3.5623,-4.178,-4.1674,-4.2271,-4.2166,-4.1622,-4.1604,-4.1604,-4.1604,-4.1604,-4.1762,-4.2103,-4.2269,-4.2936,-4.3683,-4.3943,-4.4419,-4.5407,-4.4764,-4.4617,-4.436,-4.3956,-4.3534,-4.3479,-4.3479,-4.3479,-4.3479,-4.3479,-4.3479,-4.3479,-4.3479,-4.3444,-4.3479,-4.3479,-4.3548,-4.3582,-4.3566,-4.3532,-4.3566,-4.3513,-4.3479,-4.3479,-4.3479,-4.3479,-4.3479,-4.3479,-4.3479,-4.3497,-4.3566,-4.3195,-4.2529,-4.2267,-4.1507,-4.0216,-3.954,-3.9031,-3.8891,-3.891,-3.9438,-3.9907,-4.0288,-4.07,-4.1267,-4.1809,-4.1463,-3.977,-3.9389,-3.9203,-3.9129,-3.891,-3.8881,-3.8862,-3.878,-3.8719,-3.8707,-3.8707,-3.8707,-3.8707,-3.8707,-3.8707,-3.875,-3.887,-3.8939,-3.9054,-3.9212,-3.9266,-3.9301,-3.9256,-3.9183,-3.9183,-3.9175,-3.9129,-3.9101,-3.9101,-3.9101,-3.9064,-3.895,-3.8732,-3.8515,-3.8238,-3.8138,-3.807,-3.802,-3.7967,-3.7951,-3.7969,-3.7863,-3.7239,-3.7145,-3.7001,-3.666,-3.6341,-3.6221,-3.6007,-3.6111,-3.6358,-4.2289,-4.1604,-4.1674,-4.1692,-4.1604,-4.1604,-4.1604,-4.1604,-4.1604,-4.1805,-4.2169,-4.2652,-4.2974,-4.3232,-4.3633,-4.4105,-4.48,-4.3956,-4.4103,-4.4195,-4.3938,-4.3552,-4.3479,-4.3479,-4.3479,-4.3479,-4.3479,-4.3479,-4.3479,-4.3479,-4.3479,-4.3479,-4.3479,-4.3566,-4.3566,-4.3513,-4.3497,-4.3513,-4.3479,-4.3479,-4.3479,-4.3479,-4.3479,-4.3479,-4.3479,-4.3479,-4.3479,-4.3513,-4.3146,-4.2393,-4.2445,-4.1691,-4.0441,-3.9908,-3.9473,-3.9068,-3.8983,-3.962,-4.0357,-4.0529,-4.0714,-4.1672,-4.2459,-4.2545,-4.0783,-4.0163,-3.9822,-3.9426,-3.9316,-3.9006,-3.8951,-3.881,-3.8707,-3.8707,-3.8707,-3.8707,-3.8707,-3.8707,-3.8707,-3.8738,-3.878,-3.8881,-3.8968,-3.9101,-3.9184,-3.9202,-3.9256,-3.9183,-3.9202,-3.9202,-3.9156,-3.9129,-3.9101,-3.9101,-3.9073,-3.8921,-3.8701,-3.8546,-3.8336,-3.8303,-3.8303,-3.8238,-3.8104,-3.8156,-3.8223,-3.8541,-3.8737,-3.8159,-3.7594,-3.7043,-3.678,-3.6789,-3.6577,-3.6416,-3.6881,-4.1868,-4.1604,-4.1604,-4.1604,-4.1604,-4.1604,-4.1604,-4.1604,-4.1604,-4.1909,-4.2432,-4.2806,-4.3378,-4.3779,-4.3611,-4.3938,-4.4507,-4.3864,-4.3828,-4.3773,-4.3608,-4.3497,-4.3479,-4.3479,-4.3479,-4.3479,-4.3479,-4.3479,-4.3479,-4.3479,-4.3479,-4.3479,-4.3479,-4.3532,-4.3532,-4.3513,-4.3479,-4.3479,-4.3479,-4.3479,-4.3479,-4.3479,-4.3479,-4.3479,-4.3479,-4.3479,-4.3479,-4.3479,-4.3002,-4.2653,-4.2782,-4.1956,-4.0891,-4.0451,-3.9942,-3.947,-3.9473,-4.0042,-4.0827,-4.0983,-4.1471,-4.2637,-4.315,-4.2821,-4.1702,-4.1364,-4.0982,-4.0563,-4.0041,-3.9656,-3.9528,-3.9081,-3.8707,-3.8707,-3.8707,-3.8707,-3.8707,-3.8707,-3.8707,-3.8707,-3.878,-3.8851,-3.8939,-3.8997,-3.9082,-3.9147,-3.9175,-3.9202,-3.9229,-3.9202,-3.9129,-3.9101,-3.9101,-3.9064,-3.9036,-3.8881,-3.867,-3.8546,-3.8401,-3.8433,-3.8433,-3.8401,-3.8336,-3.8387,-3.8465,-3.8695,-3.8755,-3.8609,-3.82,-3.7707,-3.7543,-3.7554,-3.7237,-3.6881,-3.7359,-4.1631,-4.1719,-4.1648,-4.1604,-4.1604,-4.1604,-4.1604,-4.1604,-4.1604,-4.1909,-4.2472,-4.2804,-4.3341,-4.3816,-4.3669,-4.3683,-4.4013,-4.3754,-4.3552,-4.3516,-4.3516,-4.3479,-4.3479,-4.3479,-4.3479,-4.3479,-4.3479,-4.3479,-4.3479,-4.3479,-4.3497,-4.3463,-4.3463,-4.3463,-4.3497,-4.3479,-4.3479,-4.3479,-4.3479,-4.3479,-4.3479,-4.3479,-4.3479,-4.3479,-4.3479,-4.3479,-4.3479,-4.3461,-4.3259,-4.3039,-4.2965,-4.2671,-4.1846,-4.1079,-4.0657,-4.0382,-4.0308,-4.0634,-4.1273,-4.1972,-4.2543,-4.3489,-4.346,-4.3157,-4.2723,-4.2259,-4.1839,-4.1304,-4.0781,-4.0351,-4.0025,-3.9234,-3.8744,-3.8707,-3.8707,-3.8707,-3.8707,-3.8707,-3.8707,-3.8707,-3.875,-3.8792,-3.8881,-3.8968,-3.9036,-3.9092,-3.9129,-3.9202,-3.932,-3.9248,-3.912,-3.9092,-3.9073,-3.9036,-3.8997,-3.8851,-3.8713,-3.864,-3.8546,-3.8546,-3.8515,-3.8496,-3.8496,-3.8546,-3.867,-3.8815,-3.8844,-3.8803,-3.8621,-3.8346,-3.8165,-3.7875,-3.7839,-3.7536,-3.7896,-4.1762,-4.2019,-4.1719,-4.1604,-4.1604,-4.1604,-4.1604,-4.1604,-4.1604,-4.1805,-4.2187,-4.2472,-4.2747,-4.3066,-4.3068,-4.3306,-4.3521,-4.3518,-4.3479,-4.3497,-4.341,-4.3444,-4.3444,-4.3444,-4.3375,-4.3479,-4.3444,-4.341,-4.3479,-4.3479,-4.3481,-4.3376,-4.3358,-4.3411,-4.3479,-4.3479,-4.3479,-4.3479,-4.3479,-4.3479,-4.3479,-4.3479,-4.3479,-4.3479,-4.3479,-4.3479,-4.3479,-4.3479,-4.3351,-4.3332,-4.3332,-4.302,-4.2378,-4.2066,-4.1625,-4.1126,-4.1075,-4.1464,-4.2203,-4.31,-4.3564,-4.3777,-4.3606,-4.3484,-4.3008,-4.2693,-4.2532,-4.2038,-4.1213,-4.0542,-3.9933,-3.927,-3.8909,-3.8982,-3.9038,-3.8909,-3.8927,-3.8707,-3.8707,-3.8707,-3.8689,-3.8719,-3.8822,-3.8892,-3.9007,-3.9045,-3.9101,-3.9175,-3.9293,-3.9239,-3.9064,-3.9017,-3.9017,-3.9007,-3.8968,-3.8862,-3.8773,-3.8701,-3.8658,-3.864,-3.867,-3.8732,-3.8732,-3.8719,-3.8833,-3.8989,-3.9045,-3.9073,-3.8815,-3.859,-3.8285,-3.805,-3.8101,-3.8216,-3.846,-4.1648,-4.1762,-4.1648,-4.1604,-4.1604,-4.1604,-4.1604,-4.1604,-4.1604,-4.178,-4.2061,-4.2228,-4.2432,-4.267,-4.2768,-4.292,-4.3142,-4.3178,-4.3214,-4.3463,-4.3304,-4.3375,-4.3339,-4.316,-4.3105,-4.3339,-4.3339,-4.3321,-4.3479,-4.341,-4.3358,-4.3286,-4.3142,-4.3178,-4.3286,-4.3358,-4.3428,-4.3428,-4.3463,-4.3479,-4.3479,-4.3479,-4.3479,-4.3479,-4.3479,-4.3479,-4.3479,-4.3497,-4.3479,-4.3479,-4.3479,-4.3296,-4.2873,-4.2635,-4.2066,-4.1824,-4.1827,-4.2136,-4.2871,-4.3505,-4.3612,-4.3734,-4.3795,-4.3735,-4.3495,-4.3489,-4.3222,-4.2918,-4.2332,-4.188,-4.1618,-3.973,-3.9148,-3.9882,-3.9955,-3.957,-3.9368,-3.8927,-3.8707,-3.8707,-3.8689,-3.8719,-3.8792,-3.8833,-3.8921,-3.8979,-3.8989,-3.9036,-3.911,-3.9082,-3.9007,-3.896,-3.8931,-3.895,-3.891,-3.8803,-3.8762,-3.8719,-3.8719,-3.8719,-3.881,-3.8881,-3.8939,-3.8892,-3.9017,-3.9129,-3.9129,-3.9073,-3.8979,-3.8725,-3.8541,-3.8396,-3.841,-3.8585,-3.8785,-4.1692,-4.1762,-4.1648,-4.1692,-4.1736,-4.1648,-4.1604,-4.1604,-4.1604,-4.1736,-4.1892,-4.1934,-4.2103,-4.2391,-4.257,-4.2747,-4.2976,-4.3142,-4.3105,-4.3339,-4.3142,-4.3105,-4.3013,-4.288,-4.2975,-4.316,-4.3178,-4.3124,-4.3286,-4.3268,-4.3142,-4.2975,-4.2842,-4.2862,-4.2994,-4.316,-4.3323,-4.3394,-4.3446,-4.3463,-4.3479,-4.3479,-4.3497,-4.3463,-4.3463,-4.3497,-4.3497,-4.3497,-4.3479,-4.3479,-4.3479,-4.3479,-4.3222,-4.2947,-4.2543,-4.2598,-4.2653,-4.2871,-4.3345,-4.3511,-4.3548,-4.3582,-4.3767,-4.3832,-4.3804,-4.3763,-4.3679,-4.352,-4.3465,-4.2975,-4.2099,-4.0084,-4.012,-4.0855,-4.1093,-4.0708,-3.968,-3.9239,-3.8707,-3.8707,-3.8762,-3.8805,-3.8891,-3.8773,-3.8862,-3.8892,-3.8921,-3.8939,-3.8958,-3.891,-3.891,-3.8892,-3.8844,-3.8833,-3.8822,-3.878,-3.8719,-3.8707,-3.8719,-3.878,-3.8851,-3.8921,-3.9007,-3.9073,-3.9129,-3.9129,-3.9129,-3.9092,-3.9007,-3.8979,-3.8921,-3.8844,-3.8796,-3.8902,-3.9036,-4.178,-4.2019,-4.1736,-4.1762,-4.1977,-4.1719,-4.1604,-4.1604,-4.1604,-4.1587,-4.1604,-4.1631,-4.1849,-4.2145,-4.2432,-4.2691,-4.2995,-4.3268,-4.325,-4.3105,-4.2995,-4.2882,-4.2783,-4.2717,-4.2874,-4.2936,-4.3048,-4.3154,-4.3085,-4.3391,-4.3219,-4.2847,-4.2902,-4.2821,-4.285,-4.3043,-4.3213,-4.3269,-4.3305,-4.3322,-4.3393,-4.3463,-4.3428,-4.3393,-4.3428,-4.3481,-4.3446,-4.3481,-4.3497,-4.3479,-4.3479,-4.3479,-4.3461,-4.3479,-4.3479,-4.3461,-4.3369,-4.3458,-4.3495,-4.3532,-4.3532,-4.3566,-4.3697,-4.3749,-4.3786,-4.3756,-4.3686,-4.3487,-4.3232,-4.2849,-4.2173,-4.1717,-4.1332,-4.1901,-4.2415,-4.157,-4.0286,-3.9533,-3.8909,-3.8744,-3.8872,-3.8995,-3.927,-3.9246,-3.9283,-3.9099,-3.9111,-3.8902,-3.8902,-3.878,-3.878,-3.8822,-3.8792,-3.8762,-3.8719,-3.8719,-3.8707,-3.8707,-3.875,-3.8822,-3.8892,-3.8979,-3.9007,-3.9045,-3.9129,-3.9129,-3.912,-3.912,-3.9147,-3.912,-3.911,-3.9092,-3.8989,-3.9045,-3.9175,-4.1648,-4.1736,-4.1648,-4.1648,-4.1719,-4.1648,-4.1604,-4.1604,-4.1604,-4.1604,-4.1604,-4.1604,-4.178,-4.2103,-4.2187,-4.2573,-4.2882,-4.3105,-4.325,-4.3142,-4.292,-4.2844,-4.2775,-4.2744,-4.2848,-4.2936,-4.3087,-4.326,-4.3764,-4.3917,-4.3632,-4.3226,-4.3362,-4.3161,-4.2946,-4.3109,-4.309,-4.3045,-4.3031,-4.3142,-4.3233,-4.3305,-4.3269,-4.3286,-4.3428,-4.3446,-4.3446,-4.3463,-4.3479,-4.3479,-4.3479,-4.3479,-4.3479,-4.3479,-4.3479,-4.3479,-4.3479,-4.3532,-4.3566,-4.3566,-4.3566,-4.3548,-4.3631,-4.3597,-4.3634,-4.3618,-4.3618,-4.3401,-4.329,-4.3036,-4.2708,-4.2341,-4.2268,-4.2671,-4.2892,-4.2066,-4.0891,-4.0286,-3.9662,-3.9318,-3.9428,-3.969,-3.9942,-4.0056,-4.0056,-3.969,-3.9342,-3.908,-3.8805,-3.8713,-3.8658,-3.8701,-3.8701,-3.864,-3.8689,-3.8689,-3.8689,-3.8707,-3.878,-3.8822,-3.8862,-3.8921,-3.8979,-3.9007,-3.9036,-3.9064,-3.9036,-3.9064,-3.912,-3.9175,-3.9175,-3.9202,-3.9202,-3.9229,-3.9256,-4.156,-4.1453,-4.1453,-4.1453,-4.1453,-4.1453,-4.1515,-4.1604,-4.1604,-4.1604,-4.1604,-4.1604,-4.1736,-4.1934,-4.2187,-4.2494,-4.2806,-4.3142,-4.325,-4.3087,-4.292,-4.2729,-4.2647,-4.2614,-4.2531,-4.2637,-4.2803,-4.2971,-4.3804,-4.4125,-4.3899,-4.3696,-4.397,-4.3429,-4.2988,-4.2864,-4.2749,-4.2753,-4.2765,-4.288,-4.2994,-4.3123,-4.316,-4.3196,-4.3358,-4.3393,-4.3411,-4.3463,-4.3479,-4.3479,-4.3479,-4.3479,-4.3479,-4.3479,-4.3479,-4.3479,-4.3479,-4.3513,-4.3548,-4.3566,-4.3548,-4.3529,-4.3563,-4.3548,-4.3548,-4.3566,-4.3532,-4.3477,-4.3495,-4.3387,-4.3057,-4.2818,-4.3075,-4.3369,-4.2892,-4.2396,-4.1772,-4.1185,-4.0675,-4.0221,-4.0299,-4.061,-4.0796,-4.0891,-4.0602,-3.994,-3.9429,-3.9168,-3.887,-3.8596,-3.8578,-3.8609,-3.8578,-3.8578,-3.8609,-3.864,-3.864,-3.8689,-3.881,-3.8851,-3.8862,-3.8862,-3.8862,-3.891,-3.8939,-3.8939,-3.8968,-3.9026,-3.9082,-3.911,-3.912,-3.9082,-3.9138,-3.9275,-3.9301,-4.1426,-4.1209,-4.1209,-4.1255,-4.1255,-4.1255,-4.1391,-4.1604,-4.1604,-4.1604,-4.1604,-4.1604,-4.1648,-4.1849,-4.2228,-4.2512,-4.2824,-4.3142,-4.325,-4.3014,-4.2976,-4.2768,-4.2432,-4.2216,-4.2394,-4.2246,-4.2463,-4.32,-4.3554,-4.4145,-4.4554,-4.4149,-4.3878,-4.3607,-4.3446,-4.307,-4.2923,-4.2803,-4.2713,-4.2727,-4.288,-4.3012,-4.3104,-4.3141,-4.3269,-4.3411,-4.3411,-4.3446,-4.3479,-4.3479,-4.3479,-4.3479,-4.3479,-4.3479,-4.3479,-4.3479,-4.3479,-4.3479,-4.3513,-4.3513,-4.3513,-4.3513,-4.3479,-4.3513,-4.3513,-4.3513,-4.3497,-4.3497,-4.3479,-4.3479,-4.3222,-4.3149,-4.3332,-4.3259,-4.2873,-4.2396,-4.1882,-4.1611,-4.1635,-4.1272,-4.122,-4.1478,-4.1643,-4.1718,-4.1464,-4.0425,-3.9783,-3.9542,-3.8903,-3.8569,-3.8515,-3.8501,-3.8515,-3.8515,-3.8496,-3.8528,-3.8559,-3.8621,-3.8732,-3.8762,-3.8695,-3.8713,-3.8713,-3.8743,-3.8743,-3.8851,-3.8881,-3.8939,-3.8968,-3.8939,-3.8939,-3.8881,-3.8968,-3.9166,-3.9275,-4.1012,-4.1012,-4.1117,-4.13,-4.1498,-4.1498,-4.156,-4.1604,-4.1604,-4.1604,-4.1604,-4.1604,-4.1736,-4.1934,-4.2145,-4.2432,-4.2844,-4.2995,-4.3214,-4.3142,-4.3069,-4.2768,-4.2615,-4.2656,-4.2554,-4.2544,-4.2944,-4.3768,-4.4413,-4.5022,-4.5326,-4.497,-4.4789,-4.4834,-4.397,-4.3616,-4.3515,-4.309,-4.2785,-4.2731,-4.2853,-4.2917,-4.2994,-4.3123,-4.3305,-4.3411,-4.3446,-4.3463,-4.3479,-4.3479,-4.3479,-4.3479,-4.3479,-4.3479,-4.3479,-4.3479,-4.3479,-4.3479,-4.3479,-4.3479,-4.3479,-4.3479,-4.3479,-4.3479,-4.3479,-4.3479,-4.3479,-4.3479,-4.3479,-4.3479,-4.3479,-4.3479,-4.3442,-4.3167,-4.291,-4.2485,-4.1992,-4.2219,-4.2445,-4.2355,-4.2175,-4.2231,-4.2395,-4.2304,-4.2068,-4.1523,-4.0777,-4.0156,-3.9097,-3.8565,-3.846,-3.846,-3.8419,-3.8433,-3.8433,-3.8465,-3.8465,-3.8496,-3.8559,-3.8541,-3.8541,-3.8572,-3.859,-3.8559,-3.859,-3.867,-3.8762,-3.8851,-3.8851,-3.8792,-3.8762,-3.8732,-3.8792,-3.895,-3.9092,-4.0319,-4.0451,-4.0741,-4.1041,-4.1272,-4.1363,-4.1515,-4.1604,-4.1604,-4.1604,-4.1604,-4.1587,-4.1719,-4.1934,-4.2019,-4.2228,-4.2634,-4.2768,-4.2844,-4.2975,-4.2957,-4.2652,-4.2701,-4.2947,-4.2825,-4.2846,-4.3839,-4.4716,-4.5238,-4.5747,-4.5888,-4.5607,-4.5862,-4.5429,-4.4392,-4.4334,-4.4103,-4.3415,-4.3036,-4.3028,-4.3044,-4.3021,-4.3012,-4.3142,-4.3305,-4.3446,-4.3463,-4.3479,-4.3479,-4.3479,-4.3479,-4.3479,-4.3479,-4.3479,-4.3479,-4.3479,-4.3479,-4.3479,-4.3479,-4.3479,-4.3479,-4.3479,-4.3479,-4.3479,-4.3479,-4.3479,-4.3479,-4.3479,-4.3479,-4.3479,-4.3444,-4.3444,-4.3428,-4.3263,-4.3188,-4.2965,-4.2732,-4.272,-4.2813,-4.2777,-4.2668,-4.2614,-4.2686,-4.2686,-4.2377,-4.1851,-4.1252,-4.0725,-3.967,-3.8631,-3.8525,-3.8401,-3.8398,-3.8372,-3.8354,-3.8387,-3.8387,-3.8401,-3.835,-3.8382,-3.8415,-3.8465,-3.8465,-3.8433,-3.8465,-3.8528,-3.8621,-3.8713,-3.8683,-3.859,-3.859,-3.859,-3.8683,-3.8713,-3.8833,-3.9577,-3.9833,-4.0254,-4.0614,-4.0918,-4.1117,-4.1363,-4.1542,-4.1604,-4.1604,-4.1604,-4.1604,-4.1604,-4.1719,-4.1849,-4.2019,-4.2187,-4.2432,-4.2552,-4.2631,-4.2649,-4.2651,-4.2744,-4.287,-4.3075,-4.3641,-4.456,-4.501,-4.5414,-4.5923,-4.6119,-4.6063,-4.5589,-4.497,-4.46,-4.4385,-4.4307,-4.4118,-4.3913,-4.3868,-4.3628,-4.3237,-4.3121,-4.3178,-4.334,-4.3446,-4.3497,-4.3479,-4.3479,-4.3479,-4.3479,-4.3479,-4.3479,-4.3479,-4.3479,-4.3479,-4.3479,-4.3479,-4.3479,-4.3479,-4.3479,-4.3479,-4.3479,-4.3479,-4.3479,-4.3479,-4.3479,-4.3479,-4.3479,-4.3479,-4.3444,-4.3375,-4.3376,-4.3376,-4.3373,-4.3353,-4.3177,-4.3069,-4.3105,-4.3105,-4.3032,-4.2902,-4.2902,-4.292,-4.263,-4.2031,-4.1542,-4.1053,-4.0346,-3.9311,-3.8676,-3.8518,-3.8393,-3.837,-3.8259,-3.8289,-3.8289,-3.8271,-3.8252,-3.8271,-3.8303,-3.8322,-3.8354,-3.8322,-3.8354,-3.8419,-3.8465,-3.851,-3.8446,-3.8433,-3.8433,-3.8465,-3.8478,-3.8541,-3.8541,-3.9259,-3.9817,-3.9885,-4.0385,-4.1071,-4.1192,-4.1363,-4.156,-4.1604,-4.1604,-4.1604,-4.1604,-4.1604,-4.1604,-4.1648,-4.1762,-4.2019,-4.2187,-4.2391,-4.2552,-4.2472,-4.2667,-4.2917,-4.3056,-4.3809,-4.4536,-4.5223,-4.5582,-4.5791,-4.6094,-4.6221,-4.6168,-4.6168,-4.5914,-4.5994,-4.5663,-4.5204,-4.5043,-4.4773,-4.4656,-4.408,-4.3666,-4.3287,-4.3305,-4.3428,-4.3463,-4.3479,-4.3479,-4.3479,-4.3479,-4.3479,-4.3479,-4.3479,-4.3479,-4.3479,-4.3479,-4.3479,-4.3479,-4.3479,-4.3479,-4.3479,-4.3479,-4.3479,-4.3479,-4.3479,-4.3479,-4.3479,-4.3479,-4.3479,-4.3479,-4.3444,-4.3304,-4.3251,-4.3269,-4.3304,-4.3196,-4.3087,-4.316,-4.325,-4.316,-4.3031,-4.2938,-4.2882,-4.29,-4.2882,-4.2393,-4.2031,-4.156,-4.1433,-4.0256,-3.8989,-3.8594,-3.8381,-3.8218,-3.8054,-3.8174,-3.8189,-3.8138,-3.8171,-3.8223,-3.8223,-3.8207,-3.8225,-3.8241,-3.8241,-3.8274,-3.8322,-3.8382,-3.8368,-3.8387,-3.8322,-3.8322,-3.8368,-3.8401,-3.8401]}]]